[[{"header":{"parameterUnit":"m.s-1","parameterCategory":1,"la1":31.0,"la2":29.5877,"lo1":-88.7671,"lo2":-86.6584,"dx":0.0162,"dy":0.0185,"nx":115,"ny":88,"refTime":"2022-12-03T18:00:00:Z","depth":0,"parameterNumber":2,"parameterNumberName":"U-component_of_WINDS"},"data":[0.0,0.0,0.0,0.0,0.0,0.0,0.0,0.0,0.0,0.0,0.0,0.0,0.0,0.0,0.0,0.0,0.0,0.0,0.0,0.0,0.0,0.0,0.0,0.0,0.0,0.0,0.0,0.0,0.0,0.0,0.0,0.0,0.0,0.0,0.0,0.0,0.0,0.0,0.0,0.0,0.0,0.0,0.0,0.0,0.0,0.0,0.0,0.0,0.0,0.0,0.0,0.0,0.0,0.0,0.0,0.0,0.0,0.0,0.0,0.0,0.0,0.0,0.0,0.0,0.0,0.0,0.0,0.0,0.0,0.0,0.0,0.0,0.0,0.0,0.0,0.0,0.0,0.0,0.0,0.0,0.0,0.0,0.0,0.0,0.0,0.0,0.0,0.0,0.0,0.0,0.0,0.0,0.0,0.0,0.0,0.0,0.0,0.0,0.0,0.0,0.0,0.0,0.0,0.0,0.0,0.0,0.0,0.0,0.0,0.0,0.0,0.0,0.0,0.0,0.0,0.0,0.0,0.0,0.0,0.0,0.0,0.0,0.0,0.0,0.0,0.0,0.0,0.0,0.0,0.0,0.0,0.0,0.0,0.0,0.0,0.0,0.0,0.0,0.0,0.0,0.0,0.0,0.0,0.0,0.0,0.0,0.0,0.0,0.0,0.0,0.0,0.0,0.0,0.0,0.0,0.0,0.0,0.0,0.0,0.0,0.0,0.0,0.0,0.0,0.0,0.0,0.0,0.0,0.0,0.0,0.0,0.0,0.0,0.0,0.0,0.0,0.0,0.0,0.0,0.0,0.0,0.0,0.0,0.0,0.0,0.0,0.0,0.0,0.0,0.0,0.0,0.0,0.0,0.0,0.0,0.0,0.0,0.0,0.0,0.0,0.0,0.0,0.0,0.0,0.0,0.0,0.0,0.0,0.0,0.0,0.0,0.0,0.0,0.0,0.0,0.0,0.0,0.0,0.0,0.0,0.0,0.0,0.0,0.0,0.0,0.0,0.0,0.0,0.0,0.0,0.0,0.0,0.0,0.0,0.0,0.0,0.0,0.0,0.0,0.0,0.0,0.0,0.0,0.0,0.0,0.0,0.0,0.0,0.0,0.0,0.0,0.0,0.0,0.0,0.0,0.0,0.0,0.0,0.0,0.0,0.0,0.0,0.0,0.0,0.0,0.0,0.0,0.0,0.0,0.0,0.0,0.0,0.0,0.0,0.0,0.0,0.0,0.0,0.0,0.0,0.0,0.0,0.0,0.0,0.0,0.0,0.0,0.0,0.0,0.0,0.0,0.0,0.0,0.0,0.0,0.0,0.0,0.0,0.0,0.0,0.0,0.0,0.0,0.0,0.0,0.0,0.0,0.0,0.0,0.0,0.0,0.0,0.0,0.0,0.0,0.0,0.0,0.0,0.0,0.0,0.0,0.0,0.0,0.0,0.0,0.0,0.0,0.0,0.0,0.0,0.0,0.0,0.0,0.0,0.0,0.0,0.0,0.0,0.0,0.0,0.0,0.0,0.0,0.0,0.0,0.0,0.0,0.0,0.0,0.0,0.0,0.0,0.0,0.0,0.0,0.0,0.0,0.0,0.0,0.0,0.0,0.0,0.0,0.0,0.0,0.0,0.0,0.0,0.0,0.0,0.0,0.0,0.0,0.0,0.0,0.0,0.0,0.0,0.0,0.0,0.0,0.0,0.0,0.0,0.0,0.0,0.0,0.0,0.0,0.0,0.0,0.0,0.0,0.0,0.0,0.0,0.0,0.0,0.0,0.0,0.0,0.0,0.0,0.0,0.0,0.0,0.0,0.0,0.0,0.0,0.0,0.0,0.0,0.0,0.0,0.0,0.0,0.0,0.0,0.0,0.0,0.0,0.0,0.0,0.0,0.0,0.0,0.0,0.0,0.0,0.0,0.0,0.0,0.0,0.0,0.0,0.0,0.0,0.0,0.0,0.0,0.0,0.0,0.0,0.0,0.0,0.0,0.0,0.0,0.0,0.0,0.0,0.0,0.0,0.0,0.0,0.0,0.0,0.0,0.0,0.0,0.0,0.0,0.0,0.0,0.0,0.0,0.0,0.0,0.0,0.0,0.0,0.0,0.0,0.0,0.0,0.0,0.0,0.0,0.0,0.0,0.0,0.0,0.0,0.0,0.0,0.0,0.0,0.0,0.0,0.0,0.0,0.0,0.0,0.0,0.0,0.0,0.0,0.0,0.0,0.0,0.0,0.0,0.0,0.0,0.0,0.0,0.0,0.0,0.0,0.0,0.0,0.0,0.0,0.0,0.0,0.0,0.0,0.0,0.0,0.0,0.0,0.0,0.0,0.0,0.0,0.0,0.0,0.0,0.0,0.0,0.0,0.0,0.0,0.0,0.0,0.0,0.0,0.0,0.0,0.0,0.0,0.0,0.0,0.0,0.0,0.0,0.0,0.0,0.0,0.0,0.0,0.0,0.0,0.0,0.0,0.0,0.0,0.0,0.0,0.0,0.0,0.0,0.0,0.0,0.0,0.0,0.0,0.0,0.0,0.0,0.0,0.0,0.0,0.0,0.0,0.0,0.0,0.0,0.0,0.0,0.0,0.0,0.0,0.0,0.0,0.0,0.0,0.0,0.0,0.0,0.0,0.0,0.0,0.0,0.0,0.0,0.0,0.0,0.0,0.0,0.0,0.0,0.0,0.0,0.0,0.0,0.0,0.0,0.0,0.0,0.0,0.0,0.0,0.0,0.0,0.0,0.0,0.0,0.0,0.0,0.0,0.0,0.0,0.0,0.0,0.0,0.0,0.0,0.0,0.0,0.0,0.0,0.0,0.0,0.0,0.0,0.0,0.0,0.0,0.0,0.0,0.0,0.0,0.0,0.0,0.0,0.0,0.0,0.0,0.0,0.0,0.0,0.0,0.0,0.0,0.0,0.0,0.0,0.0,0.0,0.0,0.0,0.0,0.0,0.0,0.0,0.0,0.0,0.0,0.0,0.0,0.0,0.0,0.0,0.0,0.0,0.0,0.0,0.0,0.0,0.0,0.0,0.0,0.0,0.0,0.0,0.0,0.0,0.0,0.0,0.0,0.0,0.0,0.0,0.0,0.0,0.0,0.0,0.0,0.0,0.0,0.0,0.0,0.0,0.0,0.0,0.0,0.0,0.0,0.0,0.0,0.0,0.0,0.0,0.0,0.0,0.0,0.0,0.0,0.0,0.0,0.0,0.0,0.0,0.0,0.0,0.0,0.0,0.0,0.0,0.0,0.0,0.0,0.0,0.0,0.0,0.0,0.0,0.0,0.0,0.0,0.0,0.0,0.0,0.0,0.0,0.0,0.0,0.0,0.0,0.0,0.0,0.0,0.0,0.0,0.0,0.0,0.0,0.0,0.0,0.0,0.0,0.0,0.0,0.0,0.0,0.0,0.0,0.0,0.0,0.0,0.0,0.0,0.0,0.0,0.0,0.0,0.0,0.0,0.0,0.0,0.0,0.0,0.0,0.0,0.0,0.0,0.0,0.0,0.0,0.0,0.0,0.0,0.0,0.0,0.0,0.0,0.0,0.0,0.0,0.0,0.0,0.0,0.0,0.0,0.0,0.0,0.0,0.0,0.0,0.0,0.0,0.0,0.0,0.0,0.0,0.0,0.0,0.0,0.0,0.0,0.0,0.0,0.0,0.0,0.0,0.0,0.0,0.0,0.0,0.0,0.0,0.0,0.0,0.0,0.0,0.0,0.0,0.0,0.0,0.0,0.0,0.0,0.0,0.0,0.0,0.0,0.0,0.0,0.0,0.0,0.0,0.0,0.0,0.0,0.0,0.0,0.0,0.0,0.0,0.0,0.0,0.0,0.0,0.0,0.0,0.0,0.0,0.0,0.0,0.0,0.0,0.0,0.0,0.0,0.0,0.0,0.0,0.0,0.0,0.0,0.0,0.0,0.0,0.0,0.0,0.0,0.0,0.0,0.0,0.0,0.0,0.0,0.0,0.0,0.0,0.0,0.0,0.0,0.0,0.0,0.0,0.0,0.0,0.0,0.0,0.0,0.0,0.0,0.0,0.0,0.0,0.0,0.0,0.0,0.0,0.0,0.0,0.0,0.0,0.0,0.0,0.0,0.0,0.0,0.0,0.0,0.0,0.0,0.0,0.0,0.0,0.0,0.0,0.0,0.0,0.0,0.0,0.0,0.0,0.0,0.0,0.0,0.0,0.0,0.0,0.0,0.0,0.0,0.0,0.0,0.0,0.0,0.0,0.0,0.0,0.0,0.0,0.0,0.0,0.0,-2.043,0.0,0.0,0.0,-1.7969,0.0,0.0,0.0,0.0,0.0,0.0,0.0,0.0,0.0,0.0,0.0,0.0,0.0,0.0,0.0,0.0,0.0,0.0,0.0,0.0,0.0,0.0,0.0,0.0,0.0,0.0,0.0,0.0,0.0,0.0,0.0,0.0,0.0,0.0,0.0,0.0,0.0,0.0,0.0,0.0,0.0,0.0,0.0,0.0,0.0,0.0,0.0,0.0,0.0,0.0,0.0,0.0,0.0,0.0,0.0,0.0,0.0,0.0,0.0,0.0,0.0,0.0,0.0,0.0,0.0,0.0,0.0,0.0,0.0,0.0,0.0,0.0,0.0,0.0,0.0,0.0,0.0,0.0,0.0,0.0,0.0,0.0,0.0,0.0,0.0,0.0,0.0,0.0,0.0,0.0,0.0,0.0,0.0,0.0,0.0,0.0,0.0,0.0,0.0,0.0,0.0,0.0,0.0,0.0,0.0,0.0,0.0,0.0,0.0,0.0,-2.0605,-2.0566,-1.8906,-1.8008,-1.7969,0.0,0.0,0.0,0.0,0.0,0.0,0.0,0.0,0.0,0.0,0.0,0.0,0.0,0.0,0.0,0.0,0.0,0.0,0.0,0.0,0.0,0.0,0.0,0.0,0.0,0.0,0.0,0.0,0.0,0.0,0.0,0.0,0.0,0.0,0.0,0.0,0.0,0.0,0.0,0.0,0.0,0.0,0.0,0.0,0.0,0.0,0.0,0.0,0.0,0.0,0.0,0.0,0.0,0.0,0.0,0.0,0.0,0.0,0.0,0.0,0.0,0.0,0.0,0.0,0.0,0.0,0.0,0.0,0.0,0.0,0.0,0.0,0.0,0.0,0.0,0.0,0.0,0.0,0.0,0.0,0.0,0.0,0.0,0.0,0.0,0.0,0.0,0.0,0.0,0.0,0.0,0.0,0.0,0.0,0.0,0.0,0.0,0.0,0.0,0.0,0.0,0.0,0.0,0.0,0.0,0.0,0.0,0.0,0.0,0.0,0.0,0.0,-1.8906,-1.7812,-1.7383,0.0,0.0,0.0,0.0,0.0,0.0,0.0,0.0,0.0,0.0,0.0,0.0,0.0,0.0,0.0,0.0,0.0,0.0,0.0,0.0,0.0,0.0,0.0,0.0,0.0,0.0,0.0,0.0,0.0,0.0,0.0,0.0,0.0,0.0,0.0,0.0,0.0,0.0,0.0,0.0,0.0,0.0,0.0,0.0,0.0,0.0,0.0,0.0,0.0,0.0,0.0,0.0,0.0,0.0,0.0,0.0,0.0,0.0,0.0,0.0,0.0,0.0,0.0,0.0,0.0,0.0,0.0,0.0,0.0,0.0,0.0,0.0,0.0,0.0,0.0,0.0,0.0,0.0,0.0,0.0,0.0,0.0,0.0,0.0,0.0,0.0,0.0,0.0,0.0,0.0,0.0,0.0,0.0,0.0,0.0,0.0,0.0,0.0,0.0,0.0,0.0,0.0,0.0,0.0,0.0,0.0,0.0,0.0,0.0,0.0,-2.0602,-2.0563,-1.8904,0.0,-1.5722,0.0,0.0,0.0,0.0,0.0,0.0,0.0,0.0,0.0,0.0,0.0,0.0,0.0,0.0,0.0,0.0,0.0,0.0,0.0,0.0,0.0,0.0,0.0,0.0,0.0,0.0,0.0,0.0,0.0,0.0,0.0,0.0,0.0,0.0,0.0,0.0,0.0,0.0,0.0,0.0,0.0,0.0,0.0,0.0,0.0,0.0,0.0,0.0,0.0,0.0,0.0,0.0,0.0,0.0,0.0,0.0,0.0,0.0,0.0,0.0,0.0,0.0,0.0,0.0,0.0,0.0,0.0,0.0,0.0,0.0,0.0,0.0,0.0,0.0,0.0,0.0,0.0,0.0,0.0,0.0,0.0,0.0,0.0,0.0,0.0,0.0,0.0,0.0,0.0,0.0,0.0,0.0,0.0,0.0,0.0,0.0,0.0,0.0,0.0,0.0,0.0,0.0,0.0,0.0,0.0,0.0,0.0,0.0,0.0,0.0,-2.0601,-2.0601,-1.8903,-1.7185,0.0,0.0,0.0,0.0,0.0,0.0,0.0,0.0,0.0,0.0,0.0,0.0,0.0,0.0,0.0,0.0,0.0,0.0,0.0,0.0,0.0,0.0,0.0,0.0,0.0,0.0,0.0,0.0,0.0,0.0,0.0,0.0,0.0,0.0,0.0,0.0,0.0,0.0,0.0,0.0,0.0,0.0,0.0,0.0,0.0,0.0,0.0,0.0,0.0,0.0,0.0,0.0,0.0,0.0,0.0,0.0,0.0,0.0,0.0,0.0,0.0,0.0,0.0,0.0,0.0,0.0,0.0,0.0,0.0,0.0,0.0,0.0,0.0,0.0,0.0,0.0,0.0,0.0,0.0,0.0,0.0,0.0,0.0,0.0,0.0,0.0,0.0,0.0,0.0,0.0,0.0,0.0,0.0,0.0,0.0,0.0,0.0,0.0,0.0,0.0,0.0,0.0,0.0,0.0,0.0,0.0,0.0,0.0,0.0,0.0,-2.0599,-2.05,-2.0188,-1.8802,-1.73,-1.5796,0.0,0.0,0.0,0.0,0.0,0.0,0.0,0.0,0.0,0.0,0.0,0.0,0.0,0.0,0.0,0.0,0.0,0.0,0.0,0.0,0.0,0.0,0.0,0.0,0.0,0.0,0.0,0.0,0.0,0.0,0.0,0.0,0.0,0.0,0.0,0.0,0.0,0.0,0.0,0.0,0.0,0.0,0.0,0.0,0.0,0.0,0.0,0.0,0.0,0.0,0.0,0.0,0.0,0.0,0.0,0.0,0.0,0.0,0.0,0.0,0.0,0.0,0.0,0.0,0.0,0.0,0.0,0.0,0.0,0.0,0.0,0.0,0.0,0.0,0.0,0.0,0.0,0.0,0.0,0.0,0.0,0.0,0.0,0.0,0.0,0.0,0.0,0.0,0.0,0.0,0.0,0.0,0.0,0.0,0.0,0.0,0.0,0.0,0.0,0.0,0.0,0.0,0.0,0.0,0.0,0.0,0.0,0.0,-2.0599,-2.0592,-2.0214,-1.9391,-1.8476,-1.7583,0.0,0.0,0.0,0.0,0.0,0.0,0.0,0.0,0.0,0.0,0.0,0.0,0.0,0.0,0.0,0.0,0.0,0.0,0.0,0.0,0.0,0.0,0.0,0.0,0.0,0.0,0.0,0.0,0.0,0.0,0.0,0.0,0.0,0.0,0.0,0.0,0.0,0.0,0.0,0.0,0.0,0.0,0.0,0.0,0.0,0.0,0.0,0.0,0.0,0.0,0.0,0.0,0.0,0.0,0.0,0.0,0.0,0.0,0.0,0.0,0.0,0.0,0.0,0.0,0.0,0.0,0.0,0.0,0.0,0.0,0.0,0.0,0.0,0.0,0.0,0.0,0.0,0.0,0.0,0.0,0.0,0.0,0.0,0.0,0.0,0.0,0.0,0.0,0.0,0.0,0.0,0.0,0.0,0.0,0.0,0.0,0.0,0.0,0.0,0.0,0.0,0.0,0.0,0.0,0.0,0.0,0.0,0.0,0.0,-2.0592,-2.0561,-2.0124,-1.9244,-1.8428,-1.7594,0.0,0.0,0.0,0.0,0.0,0.0,0.0,0.0,0.0,0.0,0.0,0.0,0.0,0.0,0.0,0.0,0.0,0.0,0.0,0.0,0.0,0.0,0.0,0.0,0.0,0.0,0.0,0.0,0.0,0.0,0.0,0.0,0.0,0.0,0.0,0.0,0.0,0.0,0.0,0.0,0.0,0.0,0.0,0.0,0.0,0.0,0.0,0.0,0.0,0.0,0.0,0.0,0.0,0.0,0.0,0.0,0.0,0.0,0.0,0.0,0.0,0.0,0.0,0.0,0.0,0.0,0.0,0.0,0.0,0.0,0.0,0.0,0.0,0.0,0.0,0.0,0.0,0.0,0.0,0.0,0.0,0.0,0.0,0.0,0.0,0.0,0.0,0.0,0.0,0.0,0.0,0.0,0.0,0.0,0.0,0.0,0.0,0.0,0.0,0.0,0.0,0.0,0.0,0.0,0.0,0.0,0.0,0.0,0.0,-2.0578,-2.0527,-2.0226,-1.9638,-1.8821,-1.7989,0.0,0.0,0.0,0.0,0.0,0.0,0.0,0.0,0.0,0.0,0.0,0.0,0.0,0.0,0.0,0.0,0.0,0.0,0.0,0.0,0.0,0.0,0.0,0.0,0.0,0.0,0.0,0.0,0.0,0.0,0.0,0.0,0.0,0.0,0.0,0.0,0.0,0.0,0.0,0.0,0.0,0.0,0.0,0.0,0.0,0.0,0.0,0.0,0.0,0.0,0.0,0.0,0.0,0.0,0.0,0.0,0.0,0.0,0.0,0.0,0.0,0.0,0.0,0.0,0.0,0.0,0.0,0.0,0.0,0.0,0.0,0.0,0.0,0.0,0.0,0.0,0.0,0.0,0.0,0.0,0.0,0.0,0.0,0.0,0.0,0.0,0.0,0.0,0.0,0.0,0.0,0.0,0.0,0.0,0.0,0.0,0.0,0.0,0.0,0.0,0.0,0.0,0.0,0.0,0.0,0.0,0.0,0.0,-2.0597,-2.0537,-2.0547,-2.0595,-2.0506,-1.9675,-1.8827,0.0,0.0,0.0,0.0,0.0,0.0,0.0,0.0,0.0,0.0,0.0,0.0,0.0,0.0,0.0,0.0,0.0,0.0,0.0,0.0,0.0,0.0,0.0,0.0,0.0,0.0,0.0,0.0,0.0,0.0,0.0,0.0,0.0,0.0,0.0,0.0,0.0,0.0,0.0,0.0,0.0,0.0,0.0,0.0,0.0,0.0,0.0,0.0,0.0,0.0,0.0,0.0,0.0,0.0,0.0,0.0,0.0,0.0,0.0,0.0,0.0,0.0,0.0,0.0,0.0,0.0,0.0,0.0,0.0,0.0,0.0,0.0,0.0,0.0,0.0,0.0,0.0,0.0,0.0,0.0,0.0,0.0,0.0,0.0,0.0,0.0,0.0,0.0,0.0,0.0,0.0,0.0,0.0,0.0,0.0,0.0,0.0,0.0,0.0,0.0,0.0,0.0,0.0,0.0,0.0,0.0,0.0,0.0,0.0,-2.1351,-2.1925,-2.2226,-2.2175,-2.0806,-1.9655,0.0,0.0,0.0,0.0,0.0,0.0,0.0,0.0,0.0,0.0,0.0,0.0,0.0,0.0,0.0,0.0,0.0,0.0,0.0,0.0,0.0,0.0,0.0,0.0,0.0,0.0,0.0,0.0,0.0,0.0,0.0,0.0,0.0,0.0,0.0,0.0,0.0,0.0,0.0,0.0,0.0,0.0,0.0,0.0,0.0,0.0,0.0,0.0,0.0,0.0,0.0,0.0,0.0,0.0,0.0,0.0,0.0,0.0,0.0,0.0,0.0,0.0,0.0,0.0,0.0,0.0,0.0,0.0,0.0,0.0,0.0,0.0,0.0,0.0,0.0,0.0,0.0,0.0,0.0,0.0,0.0,0.0,0.0,0.0,0.0,0.0,0.0,0.0,0.0,0.0,0.0,0.0,0.0,0.0,0.0,0.0,0.0,0.0,0.0,0.0,0.0,0.0,0.0,0.0,0.0,0.0,0.0,0.0,0.0,-2.3106,-2.3342,-2.33,-2.3017,-2.223,-2.1138,-1.9679,0.0,0.0,0.0,0.0,0.0,0.0,0.0,0.0,0.0,0.0,0.0,0.0,0.0,0.0,0.0,0.0,0.0,0.0,0.0,0.0,0.0,0.0,0.0,0.0,0.0,0.0,0.0,0.0,0.0,0.0,0.0,0.0,0.0,0.0,0.0,0.0,0.0,0.0,0.0,0.0,0.0,0.0,0.0,0.0,0.0,0.0,0.0,0.0,0.0,0.0,0.0,0.0,0.0,0.0,0.0,0.0,0.0,0.0,0.0,0.0,0.0,0.0,0.0,0.0,0.0,0.0,0.0,0.0,0.0,0.0,0.0,0.0,0.0,0.0,0.0,0.0,0.0,0.0,0.0,0.0,0.0,0.0,0.0,0.0,0.0,0.0,0.0,0.0,0.0,0.0,0.0,0.0,0.0,0.0,0.0,0.0,0.0,0.0,0.0,0.0,0.0,0.0,0.0,0.0,0.0,0.0,0.0,0.0,-2.5576,-2.4858,-2.4148,-2.3366,-2.3935,-2.3085,0.0,0.0,0.0,0.0,0.0,0.0,0.0,0.0,0.0,0.0,0.0,0.0,0.0,0.0,0.0,0.0,0.0,0.0,0.0,0.0,0.0,0.0,0.0,0.0,0.0,0.0,0.0,0.0,0.0,0.0,0.0,0.0,0.0,0.0,0.0,0.0,0.0,0.0,0.0,0.0,0.0,0.0,0.0,0.0,0.0,0.0,0.0,0.0,0.0,0.0,0.0,0.0,0.0,0.0,0.0,0.0,0.0,0.0,0.0,0.0,0.0,0.0,0.0,0.0,0.0,0.0,0.0,0.0,0.0,0.0,0.0,0.0,0.0,0.0,0.0,0.0,0.0,0.0,0.0,0.0,0.0,0.0,0.0,0.0,0.0,0.0,0.0,0.0,0.0,0.0,0.0,0.0,0.0,0.0,0.0,0.0,0.0,0.0,0.0,0.0,0.0,0.0,0.0,0.0,0.0,0.0,0.0,0.0,0.0,-2.6451,-2.7446,-2.7558,-2.6707,-2.5712,-2.4247,0.0,0.0,0.0,0.0,0.0,0.0,0.0,0.0,0.0,0.0,0.0,0.0,0.0,0.0,0.0,0.0,0.0,0.0,0.0,0.0,0.0,0.0,0.0,0.0,0.0,0.0,0.0,0.0,0.0,0.0,0.0,0.0,0.0,0.0,0.0,0.0,0.0,0.0,0.0,0.0,0.0,0.0,0.0,0.0,0.0,0.0,0.0,0.0,0.0,0.0,0.0,0.0,0.0,0.0,0.0,0.0,0.0,0.0,0.0,0.0,0.0,0.0,0.0,0.0,0.0,0.0,0.0,0.0,0.0,0.0,0.0,0.0,0.0,0.0,0.0,0.0,0.0,0.0,0.0,0.0,0.0,0.0,0.0,0.0,0.0,0.0,0.0,0.0,0.0,0.0,0.0,0.0,0.0,0.0,0.0,0.0,0.0,0.0,0.0,0.0,0.0,0.0,0.0,0.0,0.0,0.0,0.0,0.0,-2.661,-2.7833,-2.9123,-2.9578,-2.9113,-2.7458,-2.5584,0.0,0.0,0.0,0.0,0.0,0.0,0.0,0.0,0.0,0.0,0.0,0.0,0.0,0.0,0.0,0.0,0.0,0.0,0.0,0.0,0.0,0.0,0.0,0.0,0.0,0.0,0.0,0.0,0.0,0.0,0.0,0.0,0.0,0.0,0.0,0.0,0.0,0.0,0.0,0.0,0.0,0.0,0.0,0.0,0.0,0.0,0.0,0.0,0.0,0.0,0.0,0.0,0.0,0.0,0.0,0.0,0.0,0.0,0.0,0.0,0.0,0.0,0.0,0.0,0.0,0.0,0.0,0.0,0.0,0.0,0.0,0.0,0.0,0.0,0.0,0.0,0.0,0.0,0.0,0.0,0.0,0.0,0.0,0.0,0.0,0.0,0.0,0.0,0.0,0.0,0.0,0.0,0.0,0.0,0.0,0.0,0.0,0.0,0.0,0.0,0.0,0.0,0.0,0.0,0.0,0.0,0.0,0.0,-2.7611,-2.9263,-3.0086,-3.055,-3.0559,-2.9016,-2.6985,0.0,0.0,0.0,0.0,0.0,0.0,0.0,0.0,0.0,0.0,0.0,0.0,0.0,0.0,0.0,0.0,0.0,0.0,0.0,0.0,0.0,0.0,0.0,0.0,0.0,0.0,0.0,0.0,0.0,0.0,0.0,0.0,0.0,0.0,0.0,0.0,0.0,0.0,0.0,0.0,0.0,0.0,0.0,0.0,0.0,0.0,0.0,0.0,0.0,0.0,0.0,0.0,0.0,0.0,0.0,0.0,0.0,0.0,0.0,0.0,0.0,0.0,0.0,0.0,0.0,0.0,0.0,0.0,0.0,0.0,0.0,0.0,0.0,0.0,0.0,0.0,0.0,0.0,0.0,0.0,0.0,0.0,0.0,0.0,0.0,0.0,0.0,0.0,0.0,0.0,0.0,0.0,0.0,0.0,0.0,0.0,0.0,0.0,0.0,0.0,0.0,0.0,0.0,0.0,0.0,0.0,0.0,0.0,-2.8169,-2.9289,-3.0076,-3.055,-3.0578,-2.9573,-2.8122,0.0,0.0,0.0,0.0,0.0,0.0,0.0,0.0,0.0,0.0,0.0,0.0,0.0,0.0,0.0,0.0,0.0,0.0,0.0,0.0,0.0,0.0,0.0,0.0,0.0,0.0,0.0,0.0,0.0,0.0,0.0,0.0,0.0,0.0,0.0,0.0,0.0,0.0,0.0,0.0,0.0,0.0,0.0,0.0,0.0,0.0,0.0,0.0,-1.8583,0.0,0.0,0.0,0.0,0.0,0.0,0.0,0.0,0.0,0.0,0.0,0.0,0.0,0.0,0.0,0.0,0.0,0.0,0.0,0.0,0.0,0.0,0.0,0.0,0.0,0.0,0.0,0.0,0.0,0.0,0.0,0.0,0.0,0.0,0.0,0.0,0.0,0.0,0.0,0.0,0.0,0.0,0.0,0.0,0.0,0.0,0.0,0.0,0.0,0.0,0.0,0.0,0.0,0.0,0.0,0.0,0.0,0.0,0.0,-2.8728,-3.0355,-3.0441,-3.0664,-3.1056,-3.0651,-2.9255,0.0,0.0,0.0,0.0,0.0,0.0,0.0,0.0,0.0,0.0,0.0,0.0,0.0,0.0,0.0,0.0,0.0,0.0,0.0,0.0,0.0,0.0,0.0,0.0,0.0,0.0,0.0,0.0,0.0,0.0,0.0,0.0,0.0,0.0,0.0,0.0,0.0,0.0,0.0,0.0,0.0,0.0,0.0,0.0,0.0,0.0,0.0,0.0,0.0,0.0,0.0,0.0,0.0,0.0,0.0,0.0,0.0,0.0,0.0,0.0,0.0,0.0,0.0,0.0,0.0,0.0,0.0,0.0,0.0,0.0,0.0,0.0,0.0,0.0,0.0,0.0,0.0,0.0,0.0,0.0,0.0,0.0,0.0,0.0,0.0,0.0,0.0,0.0,0.0,0.0,0.0,0.0,0.0,0.0,0.0,0.0,0.0,0.0,0.0,0.0,0.0,0.0,0.0,0.0,0.0,0.0,0.0,-2.7552,-2.9194,-3.146,-3.0793,-3.0785,-3.163,-3.1711,-3.02,-2.7022,0.0,0.0,0.0,0.0,0.0,0.0,0.0,0.0,0.0,0.0,0.0,0.0,0.0,0.0,0.0,0.0,0.0,0.0,0.0,0.0,0.0,0.0,0.0,0.0,0.0,0.0,0.0,0.0,0.0,0.0,0.0,0.0,0.0,0.0,0.0,0.0,0.0,0.0,-1.4584,-1.7484,0.0,0.0,0.0,0.0,0.0,0.0,0.0,0.0,-2.2001,0.0,0.0,0.0,0.0,0.0,0.0,0.0,0.0,0.0,0.0,0.0,0.0,0.0,0.0,0.0,0.0,0.0,0.0,0.0,0.0,0.0,0.0,0.0,0.0,0.0,0.0,0.0,0.0,0.0,0.0,0.0,0.0,0.0,0.0,0.0,0.0,0.0,0.0,0.0,0.0,0.0,0.0,0.0,0.0,0.0,0.0,0.0,0.0,0.0,0.0,0.0,0.0,0.0,0.0,0.0,0.0,-2.6346,-2.7859,-2.9489,-3.1115,-3.0557,-3.0631,-3.1411,-3.1671,-3.0504,-2.787,0.0,0.0,0.0,0.0,0.0,0.0,0.0,0.0,0.0,0.0,0.0,0.0,0.0,0.0,0.0,0.0,0.0,0.0,0.0,0.0,0.0,0.0,0.0,0.0,0.0,0.0,0.0,0.0,0.0,0.0,0.0,0.0,0.0,0.0,0.0,0.0,0.0,0.0,0.0,-1.9402,-2.084,0.0,0.0,0.0,0.0,0.0,0.0,0.0,0.0,-2.3241,0.0,0.0,0.0,0.0,0.0,0.0,0.0,0.0,0.0,0.0,0.0,0.0,0.0,0.0,0.0,0.0,0.0,0.0,0.0,0.0,0.0,0.0,0.0,0.0,0.0,0.0,0.0,0.0,0.0,0.0,0.0,0.0,0.0,0.0,0.0,0.0,0.0,0.0,0.0,0.0,0.0,0.0,0.0,0.0,0.0,0.0,0.0,0.0,0.0,0.0,0.0,0.0,0.0,0.0,0.0,-2.6949,-2.8518,-3.0121,-3.1665,-3.0643,-3.0632,-3.187,-3.1701,-3.0388,0.0,0.0,0.0,0.0,0.0,0.0,0.0,0.0,0.0,0.0,0.0,0.0,0.0,0.0,0.0,0.0,0.0,0.0,0.0,0.0,0.0,0.0,0.0,0.0,0.0,0.0,0.0,0.0,0.0,0.0,0.0,0.0,0.0,0.0,0.0,0.0,0.0,0.0,0.0,0.0,-2.1169,-2.2478,-2.4606,0.0,0.0,0.0,0.0,0.0,0.0,-2.5288,-2.3999,0.0,0.0,0.0,0.0,0.0,0.0,0.0,0.0,0.0,0.0,0.0,0.0,0.0,0.0,0.0,0.0,0.0,0.0,0.0,0.0,0.0,0.0,0.0,0.0,0.0,0.0,0.0,0.0,0.0,0.0,0.0,0.0,0.0,0.0,0.0,0.0,0.0,0.0,0.0,0.0,0.0,0.0,0.0,0.0,0.0,0.0,0.0,0.0,0.0,0.0,0.0,0.0,0.0,0.0,0.0,-2.7768,-2.9414,-3.0912,-3.2156,-3.1011,-3.0982,-3.2268,-3.17,-3.018,0.0,0.0,0.0,0.0,0.0,0.0,0.0,0.0,0.0,0.0,0.0,0.0,0.0,0.0,0.0,0.0,0.0,0.0,0.0,0.0,0.0,0.0,0.0,0.0,0.0,0.0,0.0,0.0,0.0,0.0,0.0,0.0,0.0,0.0,0.0,0.0,0.0,0.0,0.0,0.0,0.0,-2.4208,-2.6387,-2.6828,0.0,0.0,0.0,0.0,-2.7855,-2.6328,0.0,0.0,0.0,0.0,0.0,0.0,0.0,0.0,0.0,0.0,0.0,0.0,0.0,0.0,0.0,0.0,0.0,0.0,0.0,0.0,0.0,0.0,0.0,0.0,0.0,0.0,0.0,0.0,0.0,0.0,0.0,0.0,0.0,0.0,0.0,0.0,0.0,0.0,0.0,0.0,0.0,0.0,0.0,0.0,0.0,0.0,0.0,0.0,0.0,0.0,0.0,0.0,0.0,0.0,0.0,0.0,-2.8418,-3.0611,-3.1771,-3.1864,-3.1865,-3.1946,-3.2125,-3.1536,-3.0076,0.0,0.0,0.0,0.0,0.0,0.0,0.0,0.0,0.0,0.0,0.0,0.0,0.0,0.0,0.0,0.0,0.0,0.0,0.0,0.0,0.0,0.0,0.0,0.0,0.0,0.0,0.0,0.0,0.0,0.0,0.0,0.0,0.0,0.0,0.0,0.0,0.0,0.0,0.0,0.0,0.0,-2.5498,-2.6541,-2.7306,-2.7788,0.0,0.0,-2.8664,-2.8004,-2.8279,0.0,0.0,0.0,0.0,0.0,0.0,0.0,0.0,0.0,0.0,0.0,0.0,0.0,0.0,0.0,0.0,0.0,0.0,0.0,0.0,0.0,0.0,0.0,0.0,0.0,0.0,0.0,0.0,0.0,0.0,0.0,0.0,0.0,0.0,0.0,0.0,0.0,0.0,0.0,0.0,0.0,0.0,0.0,0.0,0.0,0.0,0.0,0.0,0.0,0.0,0.0,0.0,0.0,0.0,0.0,-2.7298,-2.8563,-3.1192,-3.2322,-3.1812,-3.1882,-3.1926,-3.1926,-3.1327,-2.9897,0.0,0.0,0.0,0.0,0.0,0.0,0.0,0.0,0.0,0.0,0.0,0.0,0.0,0.0,0.0,0.0,0.0,0.0,0.0,0.0,0.0,0.0,0.0,0.0,0.0,0.0,0.0,0.0,0.0,0.0,0.0,0.0,0.0,0.0,0.0,0.0,0.0,0.0,0.0,0.0,0.0,0.0,-2.7875,-2.8395,0.0,0.0,0.0,-2.9176,-2.9286,0.0,0.0,0.0,0.0,0.0,0.0,0.0,0.0,0.0,0.0,0.0,0.0,0.0,0.0,0.0,0.0,0.0,0.0,0.0,0.0,0.0,0.0,0.0,0.0,0.0,0.0,0.0,0.0,0.0,0.0,0.0,0.0,0.0,0.0,0.0,0.0,0.0,0.0,0.0,0.0,0.0,0.0,0.0,0.0,0.0,0.0,0.0,0.0,0.0,0.0,0.0,0.0,0.0,0.0,0.0,0.0,0.0,-2.911,-3.1856,-3.302,-3.2414,-3.2395,-3.2295,-3.2091,-3.1669,0.0,0.0,0.0,0.0,0.0,0.0,0.0,0.0,0.0,0.0,0.0,0.0,0.0,0.0,0.0,0.0,0.0,0.0,0.0,0.0,0.0,0.0,0.0,0.0,0.0,0.0,0.0,-1.591,0.0,0.0,0.0,0.0,0.0,0.0,0.0,0.0,0.0,0.0,0.0,0.0,0.0,0.0,-2.68,-2.8907,-2.9327,-2.9654,0.0,0.0,-2.9558,-3.0006,-2.9217,-2.8145,0.0,0.0,0.0,0.0,0.0,0.0,0.0,0.0,0.0,0.0,0.0,0.0,0.0,0.0,0.0,0.0,0.0,0.0,0.0,0.0,0.0,0.0,0.0,0.0,0.0,0.0,0.0,0.0,0.0,0.0,0.0,0.0,0.0,0.0,0.0,0.0,0.0,0.0,0.0,0.0,0.0,0.0,0.0,0.0,0.0,0.0,0.0,0.0,0.0,0.0,0.0,0.0,0.0,0.0,-2.9083,-3.0655,-3.2952,-3.4067,-3.4042,-3.403,-3.3689,-3.2964,-3.3004,-3.1572,0.0,0.0,0.0,0.0,0.0,0.0,0.0,0.0,0.0,0.0,0.0,0.0,0.0,0.0,0.0,0.0,0.0,0.0,0.0,0.0,0.0,0.0,0.0,0.0,0.0,0.0,0.0,0.0,0.0,0.0,0.0,0.0,0.0,0.0,0.0,0.0,0.0,0.0,0.0,0.0,0.0,-2.8086,-2.9068,-2.9794,-3.0265,0.0,-3.0284,-2.9976,-2.9313,-2.9794,-2.9684,-2.8076,0.0,0.0,0.0,0.0,0.0,0.0,0.0,0.0,0.0,0.0,0.0,0.0,0.0,0.0,0.0,0.0,0.0,0.0,0.0,0.0,0.0,0.0,0.0,0.0,0.0,0.0,0.0,0.0,0.0,0.0,0.0,0.0,0.0,0.0,0.0,0.0,0.0,0.0,0.0,0.0,0.0,0.0,0.0,0.0,0.0,0.0,0.0,0.0,0.0,0.0,0.0,0.0,0.0,-2.8905,-3.0075,-3.2791,-3.3968,-3.351,-3.3918,-3.403,-3.3745,-3.2854,-3.1368,0.0,0.0,0.0,0.0,0.0,0.0,0.0,0.0,0.0,0.0,0.0,0.0,0.0,0.0,0.0,0.0,0.0,0.0,0.0,0.0,0.0,0.0,0.0,0.0,0.0,0.0,0.0,0.0,-2.21,-2.2664,-2.246,0.0,0.0,0.0,0.0,0.0,0.0,0.0,0.0,0.0,0.0,-2.9015,-3.0356,-3.079,0.0,0.0,-3.1411,-3.1052,-3.0756,-3.0519,-3.0006,-2.883,-2.8398,0.0,0.0,0.0,0.0,0.0,0.0,0.0,0.0,0.0,0.0,0.0,0.0,0.0,0.0,0.0,0.0,0.0,0.0,0.0,0.0,0.0,0.0,0.0,0.0,0.0,0.0,-1.7592,-1.8108,0.0,0.0,0.0,0.0,0.0,0.0,0.0,0.0,0.0,0.0,0.0,0.0,0.0,0.0,0.0,0.0,0.0,0.0,0.0,0.0,0.0,0.0,0.0,0.0,-2.9073,-2.9923,-3.2743,-3.4061,-3.3763,-3.403,-3.4309,-3.4531,-3.305,-3.1581,-3.0287,0.0,0.0,0.0,0.0,0.0,0.0,0.0,0.0,0.0,0.0,0.0,0.0,0.0,0.0,0.0,0.0,0.0,0.0,0.0,0.0,0.0,0.0,0.0,0.0,0.0,0.0,0.0,-2.3663,-2.4115,-2.3022,0.0,0.0,0.0,0.0,0.0,0.0,0.0,0.0,0.0,0.0,-2.9694,-3.1164,-3.1577,-3.1947,-3.2569,-3.2095,-3.1667,-3.1712,-3.0981,-3.0192,-2.9583,0.0,0.0,0.0,0.0,0.0,0.0,0.0,0.0,0.0,0.0,0.0,0.0,0.0,0.0,0.0,0.0,0.0,0.0,0.0,0.0,0.0,0.0,0.0,0.0,0.0,0.0,0.0,-1.9224,0.0,0.0,-2.1744,0.0,0.0,0.0,0.0,0.0,0.0,0.0,0.0,0.0,0.0,0.0,0.0,0.0,0.0,0.0,0.0,0.0,0.0,0.0,0.0,0.0,0.0,-2.9856,-3.0679,-3.2976,-3.4587,-3.5349,-3.4624,-3.4624,-3.5386,-3.3796,-3.2528,-3.1738,0.0,0.0,0.0,0.0,0.0,0.0,0.0,0.0,0.0,0.0,0.0,0.0,0.0,0.0,0.0,0.0,0.0,0.0,0.0,0.0,0.0,0.0,0.0,0.0,0.0,0.0,-2.3897,-2.4833,-2.4716,0.0,0.0,0.0,0.0,0.0,0.0,0.0,0.0,0.0,-2.8413,-2.9349,-3.0159,-3.1202,-3.1982,-3.2572,-3.2788,-3.2164,-3.1654,-3.1763,-3.1019,-3.0385,0.0,0.0,0.0,0.0,0.0,0.0,0.0,0.0,0.0,0.0,0.0,0.0,0.0,0.0,0.0,0.0,0.0,0.0,0.0,0.0,0.0,0.0,0.0,0.0,0.0,0.0,0.0,-2.3676,-2.5744,0.0,0.0,0.0,0.0,0.0,0.0,0.0,0.0,0.0,0.0,0.0,-2.8755,-2.8727,0.0,0.0,0.0,0.0,0.0,0.0,0.0,0.0,0.0,0.0,0.0,0.0,-3.031,-3.0734,-3.2888,-3.4468,-3.5319,-3.5079,-3.5338,-3.6115,-3.4504,-3.3032,-3.1763,0.0,0.0,0.0,0.0,0.0,0.0,0.0,0.0,0.0,0.0,0.0,0.0,0.0,0.0,0.0,0.0,0.0,0.0,0.0,0.0,0.0,0.0,0.0,0.0,0.0,-2.3798,0.0,0.0,0.0,0.0,0.0,0.0,0.0,0.0,0.0,0.0,-2.6212,-2.7926,-2.9341,-3.0139,-3.1143,-3.2632,-3.3083,-3.3551,0.0,0.0,0.0,0.0,0.0,0.0,0.0,0.0,0.0,0.0,0.0,0.0,0.0,-2.6805,-2.5871,-2.4765,-2.4566,-2.4563,-2.4563,0.0,0.0,0.0,0.0,0.0,0.0,0.0,0.0,0.0,0.0,0.0,0.0,0.0,0.0,-2.7496,-2.9748,-2.9147,0.0,0.0,0.0,0.0,0.0,0.0,0.0,0.0,-3.0685,-3.0876,-3.0422,-3.0917,-3.0745,-3.0031,-2.9581,-2.8411,0.0,0.0,0.0,0.0,0.0,0.0,0.0,0.0,-3.0639,-3.1017,-3.2964,-3.4423,-3.5259,-3.5573,-3.6108,-3.6846,-3.5288,-3.3652,-3.2072,-3.1094,-3.0208,0.0,0.0,0.0,0.0,0.0,0.0,0.0,0.0,0.0,0.0,0.0,0.0,0.0,0.0,0.0,0.0,0.0,0.0,0.0,0.0,0.0,0.0,0.0,-2.6022,0.0,0.0,0.0,0.0,0.0,0.0,0.0,0.0,0.0,-2.6189,-2.7778,-2.9262,-3.0145,-3.1166,-3.2251,-3.344,0.0,0.0,0.0,0.0,0.0,0.0,0.0,-3.2718,-3.2218,-3.2102,-3.1929,-3.1365,-3.0794,-3.0242,-2.9723,0.0,0.0,-2.6694,-2.6265,-2.6256,-2.6269,-2.6722,-2.7195,-2.7511,-2.8265,-2.896,0.0,0.0,0.0,0.0,-2.6934,0.0,0.0,0.0,-2.878,-2.9688,0.0,-3.0419,0.0,0.0,0.0,0.0,-3.1716,-3.2196,0.0,0.0,-3.2388,-3.2737,-3.1675,-3.2394,-3.2426,-3.1673,-3.0526,-3.0211,-3.0657,-3.0681,-3.0231,0.0,0.0,0.0,0.0,0.0,-3.093,-3.1715,-3.3247,-3.4465,-3.5319,-3.6127,-3.6902,-3.7603,-3.6021,-3.4352,-3.2797,-3.2716,-3.241,-3.1617,-2.9532,0.0,0.0,0.0,0.0,0.0,0.0,0.0,0.0,0.0,0.0,0.0,0.0,0.0,0.0,0.0,0.0,0.0,0.0,0.0,0.0,-2.7233,0.0,0.0,0.0,0.0,0.0,0.0,0.0,0.0,0.0,-2.9307,-2.8671,-2.9251,-3.0001,-3.0865,0.0,0.0,0.0,0.0,-3.5126,-3.5315,-3.4718,-3.4297,-3.4346,-3.366,-3.3103,-3.3064,0.0,0.0,-3.2968,-3.2968,-3.2949,-3.2968,-3.2891,-3.1948,-2.88,-2.8238,-2.8139,-2.8119,-2.8192,-2.8381,-2.9172,-3.0078,-3.0874,-2.9824,0.0,0.0,0.0,0.0,-2.7607,-2.8657,-3.0696,-2.9661,-3.068,-3.2993,-3.1755,0.0,0.0,0.0,0.0,0.0,0.0,-3.2336,-3.2353,-3.3178,-3.3284,-3.2896,-3.4214,-3.4724,-3.4488,-3.3822,-3.388,-3.4623,-3.4651,-3.3264,-3.0637,0.0,0.0,0.0,0.0,-3.2447,-3.3232,-3.4204,-3.5129,-3.6011,-3.6797,-3.7312,-3.7533,-3.5372,-3.4243,-3.4307,-3.3233,-3.2568,-3.2379,-3.1812,0.0,0.0,0.0,0.0,0.0,0.0,0.0,0.0,0.0,0.0,0.0,0.0,0.0,0.0,0.0,0.0,0.0,0.0,0.0,-2.8038,-2.8901,-2.9368,0.0,0.0,0.0,0.0,0.0,0.0,0.0,0.0,0.0,-3.081,-3.1157,-3.1634,0.0,0.0,-3.379,-3.4434,-3.5416,-3.6097,-3.6205,-3.6539,0.0,-3.6904,-3.6699,-3.6315,-3.5718,-3.5154,-3.475,-3.4769,-3.475,-3.475,-3.475,-3.475,-3.4404,-3.3545,-3.2282,-3.1537,-3.148,-3.1466,-3.1524,-3.1819,-3.2531,-3.3222,-3.1941,-3.1163,-2.9774,-2.9266,-2.9344,-2.8894,-2.9748,-3.1376,-3.0489,-3.1329,-3.3211,-3.2017,-3.2192,-3.3411,-3.3857,0.0,0.0,0.0,-3.2973,-3.2936,-3.3423,-3.3621,-3.3674,-3.4852,-3.5297,-3.5029,-3.4596,-3.4745,-3.5439,-3.5343,-3.4446,-3.2798,0.0,-3.3487,-3.3642,-3.2991,-3.3217,-3.4306,-3.478,-3.5573,-3.6743,-3.7566,-3.7841,-3.7474,-3.6042,-3.5183,-3.4986,-3.4055,-3.3275,-3.2684,-3.2729,-3.161,0.0,0.0,0.0,0.0,0.0,0.0,0.0,0.0,0.0,0.0,0.0,-1.9667,-2.0501,0.0,0.0,0.0,-2.689,-2.9195,-3.124,-3.1177,0.0,0.0,0.0,0.0,0.0,0.0,0.0,-2.9561,-3.012,-3.1073,-3.2624,-3.29,-3.3094,-3.3601,-3.4446,-3.5217,-3.5837,0.0,-3.6984,-3.7087,-3.7556,-3.7905,-3.8,-3.8007,-3.7815,-3.7315,-3.6834,-3.65,-3.6481,-3.6488,-3.6488,-3.6481,-3.65,-3.65,-3.6488,-3.5622,-3.468,-3.4064,-3.393,-3.4026,-3.4334,-3.4834,-3.529,-3.3457,-3.3215,-3.1079,-3.0404,-3.0725,-3.0725,-3.1003,-3.1464,-3.141,-3.1842,-3.257,-3.1758,-3.2736,-3.5087,-3.5962,0.0,-3.2956,-3.3704,-3.3534,-3.2706,-3.3438,-3.3847,-3.4,-3.4782,-3.4843,-3.4291,-3.3835,-3.3835,-3.4372,-3.4128,-3.4445,-3.5364,-3.5984,-3.5915,-3.5155,-3.3652,-3.3652,-3.5155,-3.5192,-3.5977,-3.7566,-3.8322,-3.8358,-3.7639,-3.7529,-3.678,-3.5279,-3.5133,-3.4399,-3.2894,-3.2923,-3.2238,-3.0646,0.0,0.0,0.0,0.0,0.0,0.0,0.0,0.0,0.0,0.0,0.0,0.0,0.0,0.0,-2.8322,-3.0528,0.0,-3.3893,-3.3455,0.0,0.0,0.0,-2.9214,-2.7724,-2.8896,-2.9831,-2.9962,0.0,0.0,-3.4276,-3.456,-3.4603,-3.4673,-3.6077,-3.7178,-3.743,-3.7566,-3.7752,-3.7939,-3.8063,-3.8162,-3.8365,-3.8334,-3.8334,-3.8277,-3.818,-3.82,-3.82,-3.82,-3.82,-3.82,-3.82,-3.82,-3.82,-3.8123,-3.7719,-3.6238,-3.5808,-3.5904,-3.6519,-3.6815,-3.713,-3.3914,-3.3376,-3.2794,-3.261,-3.27,-3.2717,-3.31,-3.3643,-3.3119,-3.3309,-3.3956,-3.3207,-3.3232,-3.3845,-3.4057,-3.4142,-3.4075,-3.3722,-3.379,-3.4181,-3.4359,-3.4529,-3.4706,-3.5745,-3.6151,-3.6003,-3.553,-3.5715,-3.64,-3.5736,-3.5935,-3.6863,-3.6503,-3.6461,-3.6717,-3.5762,-3.5743,-3.6735,-3.6768,-3.7274,-3.8377,-3.8597,-3.8615,-3.8432,-3.7823,-3.7327,-3.6909,-3.6321,-3.5514,-3.4509,-3.5087,-3.443,-3.2274,-3.1796,0.0,0.0,0.0,0.0,0.0,0.0,0.0,0.0,0.0,-2.4578,-2.6021,0.0,-2.9091,0.0,-3.1098,-3.1972,-3.2332,-3.2277,0.0,0.0,-3.188,-3.1269,-3.0895,-3.1142,-3.1818,-3.3049,-3.3457,-3.4277,-3.5931,-3.6675,-3.7047,-3.7054,-3.705,-3.7065,-3.7134,-3.7981,-3.8613,-3.8714,-3.932,-3.9885,-3.9835,-3.9892,-3.9881,-3.9919,-3.99,-3.99,-3.99,-3.9919,-3.9919,-3.99,-3.9919,-3.99,-3.9854,-3.9912,-3.9765,-3.9304,-3.8315,-3.745,-3.7661,-3.82,-3.8756,-3.5774,-3.5419,-3.5419,-3.5402,-3.5318,-3.3964,-3.3626,-3.3964,-3.3575,-3.3643,-3.4015,-3.3931,-3.3711,-3.3474,-3.4061,-3.4252,-3.4032,-3.4247,-3.4629,-3.5096,-3.5457,-3.5868,-3.6285,-3.6925,-3.7073,-3.6826,-3.6568,-3.6516,-3.6643,-3.6187,-3.6326,-3.7078,-3.6653,-3.6682,-3.7106,-3.624,-3.6222,-3.7069,-3.7544,-3.8089,-3.8655,-3.8707,-3.8707,-3.8707,-3.8267,-3.7845,-3.7529,-3.707,-3.6252,-3.5058,-3.5435,-3.4903,-3.3198,-3.2763,-3.1647,0.0,0.0,0.0,0.0,0.0,0.0,0.0,0.0,0.0,0.0,0.0,-3.1564,-3.2055,-3.2576,-3.286,-3.2871,-3.2901,-3.3111,-3.3538,-3.322,-3.297,-3.297,-3.3283,-3.3855,-3.4729,-3.5113,-3.5776,-3.7071,-3.7615,-3.8042,-3.8358,-3.8143,-3.7966,-3.8138,-3.8754,-3.9254,-3.9481,-3.9971,-4.0389,-4.0481,-4.0496,-4.0496,-4.0496,-4.0496,-4.0496,-4.0496,-4.0496,-4.0496,-4.0496,-4.0496,-4.0496,-4.0496,-4.0496,-4.0496,-4.0381,-3.9785,-3.9181,-3.9111,-3.9496,-3.9853,-3.7898,-3.7882,-3.7882,-3.7949,-3.7814,-3.5109,-3.3931,-3.3829,-3.3846,-3.3829,-3.3863,-3.4506,-3.4472,-3.4044,-3.5312,-3.5177,-3.41,-3.5312,-3.5887,-3.5921,-3.6603,-3.7316,-3.7986,-3.7986,-3.771,-3.7223,-3.7189,-3.6887,-3.6261,-3.6261,-3.6427,-3.6793,-3.6811,-3.6905,-3.7009,-3.6132,-3.6056,-3.6836,-3.7807,-3.8401,-3.858,-3.8627,-3.8643,-3.8658,-3.8658,-3.8328,-3.7664,-3.7609,-3.6868,-3.5316,-3.5188,-3.472,-3.3745,-3.3067,-3.2392,0.0,-3.1023,0.0,0.0,0.0,0.0,0.0,0.0,0.0,0.0,-3.2753,-3.4068,-3.4086,-3.4235,-3.4321,-3.4321,-3.4321,-3.4377,-3.4501,-3.4501,-3.4519,-3.455,-3.5213,-3.5696,-3.5789,-3.6439,-3.7151,-3.7931,-3.8042,-3.8339,-3.8915,-3.9003,-3.9043,-3.9345,-3.9414,-3.9599,-4.0052,-4.0158,-4.0286,-4.0476,-4.0612,-4.0727,-4.0708,-4.09,-4.0823,-4.0939,-4.092,-4.09,-4.09,-4.0958,-4.092,-4.0843,-4.0881,-4.0881,-4.0931,-4.0893,-4.0746,-4.0458,-4.0381,-4.0496,-3.7834,-3.7745,-3.7858,-3.8188,-3.8546,-3.7503,-3.6705,-3.6169,-3.6169,-3.6169,-3.6169,-3.6304,-3.6603,-3.7077,-3.7347,-3.7307,-3.7077,-3.7347,-3.7459,-3.7483,-3.7635,-3.777,-3.7895,-3.7912,-3.7868,-3.7733,-3.7773,-3.7689,-3.7553,-3.7553,-3.7659,-3.7883,-3.7883,-3.7708,-3.7339,0.0,0.0,0.0,-3.7524,-3.7826,-3.7982,-3.8238,-3.8421,-3.8449,-3.8465,0.0,-3.8245,-3.8227,-3.7791,-3.6848,-3.6695,0.0,-3.4359,0.0,0.0,0.0,0.0,0.0,0.0,0.0,0.0,0.0,-3.2021,-3.2028,-3.2293,-3.39,-3.47,-3.4102,-3.462,-3.5021,-3.5021,-3.5021,-3.5293,-3.6044,-3.6149,-3.6157,-3.624,-3.637,-3.6705,-3.7373,-3.7578,-3.7986,-3.8692,-3.8878,-3.8934,-3.9101,-3.9101,-3.9129,-3.9221,-3.9438,-3.9557,-3.9651,-4.0095,-4.0335,-4.0473,-4.1123,-4.1546,-4.1643,-4.2181,-4.2508,-4.2508,-4.2527,-4.2566,-4.2527,-4.2604,-4.2566,-4.2566,-4.2604,-4.2489,-4.2585,-4.2566,-4.2181,-4.0823,-4.0516,-4.0496,-3.879,-3.8773,-3.879,-3.9228,0.0,-3.9573,-3.9227,-3.8839,-3.8169,-3.8075,-3.843,-3.8437,-3.8616,-3.898,-3.8988,-3.8988,-3.898,-3.8988,-3.8988,-3.898,-3.8988,-3.8971,-3.8988,-3.8971,-3.8802,-3.8447,-3.8447,-3.8261,-3.7922,-3.7898,-3.7953,-3.8061,-3.8044,-3.7716,-3.7115,-3.6705,-3.6646,-3.696,-3.7152,-3.7415,-3.7791,-3.7966,-3.8152,-3.8382,-3.8399,0.0,0.0,0.0,0.0,0.0,0.0,0.0,0.0,-3.4875,-3.4307,-3.3785,-3.396,-3.4185,-3.4339,-3.4399,-3.4431,-3.4417,-3.4431,-3.4444,-3.4472,-3.5303,-3.5791,-3.5777,-3.5841,-3.5831,-3.585,-3.5877,-3.625,-3.7054,-3.7219,-3.7389,-3.7801,-3.7888,-3.8056,-3.8395,-3.8507,-3.8674,-3.9045,-3.9524,-3.9728,-3.977,-4.0104,-4.0308,-4.0304,-4.01,-4.0106,-4.077,-4.131,-4.1658,-4.18,-4.2085,-4.2431,-4.2527,-4.2816,-4.3047,-4.3085,-4.3085,-4.3085,-4.3085,-4.3085,-4.3085,-4.3085,-4.3085,-4.3085,-4.3085,-4.3085,-4.2874,-4.1912,-4.145,-4.1143,-4.0024,-4.021,-4.0007,-4.046,-4.1318,-4.1204,-4.1264,-4.1314,-3.9834,0.0,0.0,-4.029,-4.0358,-4.051,-4.0493,-4.0476,-4.0493,-4.0493,-4.0476,-4.0468,-4.0341,-4.0299,-4.0299,-4.0163,-3.9808,-3.9191,-3.9216,-3.887,-3.8311,-3.8294,-3.8294,-3.8278,-3.8294,-3.7905,-3.7185,-3.6282,-3.6124,-3.6692,-3.6751,-3.6999,-3.7524,-3.7596,-3.7791,-3.8135,-3.8135,-3.8152,-3.8152,-3.8152,-3.8101,-3.8035,-3.7453,-3.6886,-3.631,-3.52,-3.4518,-3.4451,-3.4582,-3.4878,-3.5281,-3.5884,-3.6203,-3.609,-3.6296,-3.6373,-3.6288,-3.647,-3.6881,-3.7525,-3.7145,-3.6878,-3.6878,-3.7082,-3.7382,-3.7933,-3.8169,-3.8563,-3.9171,-3.9263,-3.93,-3.9449,-3.9509,-3.9505,-3.9565,-4.0121,-4.0562,-4.0636,-4.1011,-4.1638,-4.1635,-4.1089,-4.0993,-4.1929,-4.2399,-4.2867,-4.3069,-4.322,-4.3278,-4.3316,-4.347,-4.3528,-4.3547,-4.3547,-4.3547,-4.3682,-4.3547,-4.3605,-4.3566,-4.3662,-4.3547,-4.3528,-4.3547,-4.3547,-4.347,-4.2854,-4.2258,-4.1037,-4.1405,-4.098,-4.15,-4.2517,-4.2114,-4.2307,-4.2728,-4.0805,-4.035,-4.1052,-4.1052,-4.139,-4.1982,-4.1982,-4.1982,-4.1982,-4.1982,-4.1982,-4.1948,-4.1339,-4.1052,-4.1018,-4.0417,-4.0045,-3.996,-3.996,-3.9893,-3.9808,-3.9783,-3.9791,-3.9808,-3.9808,-3.9419,-3.8633,-3.7313,-3.6672,-3.6775,-3.6397,-3.6308,-3.6495,-3.6779,-3.6995,-3.7095,-3.7132,-3.7113,-3.7114,-3.7132,-3.7113,-3.7094,-3.6929,-3.6498,-3.5712,-3.5547,-3.548,-3.5407,-3.5595,-3.6061,-3.6863,-3.647,-3.5881,-3.5394,-3.6214,-3.6661,-3.6347,-3.6942,-3.7379,-3.7544,-3.8058,-3.8389,-3.8444,-3.8974,-3.9166,-3.8803,-3.9316,-3.9788,-3.9956,-3.9971,-4.0193,-4.0806,-4.0994,-4.0938,-4.088,-4.1083,-4.1194,-4.1197,-4.1487,-4.1675,-4.2149,-4.1834,-4.1703,-4.2138,-4.2352,-4.2598,-4.3165,-4.372,-4.4058,-4.4143,-4.4701,-4.5056,-4.5037,-4.5037,-4.5037,-4.519,-4.5075,-4.5114,-4.5133,-4.5248,-4.5114,-4.5047,-4.5037,-4.5094,-4.5056,-4.4421,-4.3701,-4.1531,-4.176,-4.1366,-4.1805,-4.2748,-4.2974,-4.3322,-4.3625,-4.2772,-4.2611,-4.3014,-4.3047,-4.3217,-4.3521,-4.3565,-4.3548,-4.3504,-4.3098,-4.2895,-4.2844,-4.2151,-4.1796,-4.1762,-4.1467,-4.1297,-4.1271,-4.1271,-4.1297,-4.1297,-4.1297,-4.1297,-4.128,-4.0908,-4.0527,-4.0155,-3.9148,-3.8403,-3.7963,-3.6559,-3.5963,-3.6301,-3.6447,-3.6638,-3.688,-3.7266,-3.7494,-3.7494,-3.7877,-3.8105,-3.8085,-3.7722,-3.7253,-3.6672,-3.5941,-3.5492,-3.5446,-3.5553,-3.6098,-3.7121,-3.7952,-3.8205,-3.7718,-3.8592,-3.9002,-3.8553,-3.869,-3.8964,-3.9405,-3.9793,-3.9994,-4.0013,-4.0354,-4.0457,-4.0154,-4.048,-4.0714,-4.0726,-4.076,-4.0908,-4.1224,-4.1298,-4.1298,-4.1298,-4.1683,-4.196,-4.1997,-4.2292,-4.2772,-4.3141,-4.2963,-4.2905,-4.3262,-4.3454,-4.3699,-4.4074,-4.4422,-4.4777,-4.4908,-4.5308,-4.5575,-4.5594,-4.5594,-4.5594,-4.5594,-4.5594,-4.5594,-4.5594,-4.5594,-4.5594,-4.5594,-4.5594,-4.5594,-4.5518,-4.5267,-4.4594,-4.2172,-4.2323,-4.1938,-4.223,-4.3015,-4.3631,-4.3969,-4.4085,-4.4207,-4.4395,-4.4497,-4.457,-4.4598,-4.4598,-4.4598,-4.4598,-4.4513,-4.3961,-4.3646,-4.3606,-4.2895,-4.2557,-4.2523,-4.2388,-4.2303,-4.2303,-4.2303,-4.2303,-4.2303,-4.2303,-4.2303,-4.2236,-4.1728,-4.1457,-4.1441,-4.0696,-4.0079,-3.9394,-3.7601,-3.6633,-3.6663,-3.6646,-3.6801,-3.7134,-3.7659,-3.7972,-3.8007,-3.8542,-3.8834,-3.8799,-3.8332,-3.7951,-3.7668,-3.6606,-3.5949,-3.5901,-3.5928,-3.6359,-3.7314,-3.8958,-3.9825,-3.9585,-4.022,-4.0582,-4.0418,-4.0254,-4.0397,-4.0971,-4.0921,-4.0923,-4.1024,-4.1307,-4.1374,-4.1227,-4.1404,-4.1512,-4.1509,-4.1528,-4.162,-4.173,-4.1804,-4.1841,-4.1896,-4.232,-4.2689,-4.2818,-4.3314,-4.3701,-4.3738,-4.3738,-4.3832,-4.403,-4.4299,-4.4504,-4.4849,-4.4905,-4.5058,-4.5342,-4.5429,-4.5466,-4.5522,-4.5586,-4.5594,-4.5594,-4.5594,-4.5594,-4.5594,-4.5594,-4.5594,-4.5594,-4.5594,-4.5594,-4.5594,-4.5575,-4.5248,-4.3288,-4.3589,-4.3075,-4.3213,-4.3748,-4.3864,-4.3898,-4.3939,-4.4184,-4.431,-4.4338,-4.4497,-4.4598,-4.4598,-4.4598,-4.4598,-4.4598,-4.453,-4.4479,-4.4378,-4.3673,-4.3291,-4.325,-4.2658,-4.2303,-4.2337,-4.2371,-4.2439,-4.2422,-4.2388,-4.2337,-4.2286,-4.2245,-4.2219,-4.2117,-4.1491,-4.1085,-4.1001,-4.0146,-3.9046,-3.7835,-3.7773,-3.778,-3.7804,-3.7878,-3.7905,-3.7976,-3.7956,-3.8048,-3.799,-3.8003,-3.7959,-3.7948,-3.7742,-3.7674,-3.7723,-3.7681,-3.7812,-3.8083,-3.8401,-3.874,-3.8715,-3.9263,-3.9814,-4.0373,-4.072,-4.0942,-4.1063,-4.0739,-4.0777,-4.1064,-4.1756,-4.1902,-4.139,-4.1844,-4.2193,-4.2228,-4.2211,-4.2485,-4.3238,-4.3126,-4.3293,-4.3163,-4.3255,-4.333,-4.3292,-4.3402,-4.3566,-4.3549,-4.3549,-4.3566,-4.3666,-4.3952,-4.4318,-4.4559,-4.4631,-4.4757,-4.4996,-4.5107,-4.5243,-4.5419,-4.5559,-4.5594,-4.5594,-4.5594,-4.5594,-4.5594,-4.5594,-4.5594,-4.5594,-4.5594,-4.5594,-4.5594,-4.5594,-4.5402,-4.3841,-4.3993,-4.3681,-4.3581,-4.3717,-4.3734,-4.3734,-4.3763,-4.3969,-4.4056,-4.4097,-4.4327,-4.4468,-4.4598,-4.4598,-4.4598,-4.4598,-4.4598,-4.4598,-4.4581,-4.4276,-4.4113,-4.4062,-4.3836,-4.3639,-4.3684,-4.3667,-4.3667,-4.3667,-4.365,-4.3667,-4.3667,-4.3639,-4.3684,-4.3623,-4.3352,-4.298,-4.2496,-4.2219,-4.1542,-4.0493,-3.9208,-3.8345,-3.8007,-3.8311,-3.8548,-3.8599,-3.8954,-3.9191,-3.9157,-3.8785,-3.8572,-3.8587,-3.8166,-3.7912,-3.796,-3.8408,-3.871,-3.8795,-3.9514,-3.9934,-3.9846,-4.0478,-4.0923,-4.1047,-4.1194,-4.1413,-4.1676,-4.155,-4.1548,-4.1756,-4.2305,-4.2504,-4.2285,-4.2681,-4.2983,-4.3002,-4.3002,-4.3166,-4.3442,-4.3479,-4.3479,-4.3479,-4.3479,-4.3479,-4.3479,-4.3479,-4.3479,-4.3479,-4.3479,-4.3479,-4.3513,-4.3681,-4.3905,-4.4192,-4.4256,-4.4387,-4.4701,-4.4962,-4.518,-4.5292,-4.5495,-4.5594,-4.5586,-4.5586,-4.5586,-4.5594,-4.5594,-4.5594,-4.5594,-4.5594,-4.5594,-4.5594,-4.5594,-4.5594,-4.4097,-4.4068,-4.3956,-4.3793,-4.3598,-4.3615,-4.3615,-4.3628,-4.3839,-4.3881,-4.3927,-4.4155,-4.4338,-4.4514,-4.457,-4.4598,-4.4598,-4.4598,-4.4598,-4.4598,-4.4598,-4.4598,-4.4598,-4.4598,-4.4598,-4.4598,-4.4564,-4.4581,-4.4598,-4.4598,-4.4598,-4.4598,-4.4598,-4.4598,-4.4598,-4.4598,-4.4316,-4.3792,-4.3724,-4.3369,-4.2472,-4.1035,-3.9851,-3.9225,-3.9428,-3.9597,-3.9614,-3.9943,-4.0113,-4.0096,-3.9588,-3.9292,-3.9259,-3.8785,-3.8514,-3.8548,-3.9103,-3.944,-3.9523,-4.0384,-4.0819,-4.071,-4.1271,-4.1459,-4.1288,-4.122,-4.1361,-4.1635,-4.1756,-4.181,-4.2418,-4.2692,-4.292,-4.3068,-4.3339,-4.3479,-4.3461,-4.3479,-4.3461,-4.3479,-4.3479,-4.3479,-4.3479,-4.3479,-4.3479,-4.3479,-4.3479,-4.3479,-4.3479,-4.3479,-4.3479,-4.3479,-4.3496,-4.3617,-4.383,-4.3871,-4.405,-4.4308,-4.4637,-4.4818,-4.5052,-4.5312,-4.5522,-4.5485,-4.555,-4.5587,-4.5559,-4.5568,-4.5568,-4.5568,-4.5568,-4.5577,-4.5586,-4.5594,-4.5594,-4.4097,-4.4085,-4.3939,-4.3793,-4.3598,-4.3615,-4.3615,-4.3628,-4.3793,-4.3898,-4.3881,-4.4039,-4.4167,-4.431,-4.4514,-4.4598,-4.4598,-4.4598,-4.4598,-4.4598,-4.4598,-4.4598,-4.4598,-4.4598,-4.4598,-4.4598,-4.4598,-4.4598,-4.4598,-4.4598,-4.4598,-4.4598,-4.4598,-4.4598,-4.4598,-4.4598,-4.4581,-4.4479,-4.4462,-4.413,-4.347,-4.3234,-4.2726,-4.2016,-4.1424,-4.1052,-4.0967,-4.0451,-4.0113,-4.0113,-4.0028,-4.0028,-4.0028,-3.9977,-3.991,-3.9943,-3.9994,-4.0095,-4.0178,-4.0303,-4.0412,-4.0493,-4.0614,-4.0597,-4.0662,-4.0638,-4.0686,-4.0614,-4.083,-4.1356,-4.2458,-4.2673,-4.292,-4.3232,-4.341,-4.3427,-4.3462,-4.3427,-4.3479,-4.3479,-4.3479,-4.3479,-4.3479,-4.3479,-4.3479,-4.3479,-4.3479,-4.3479,-4.3479,-4.3479,-4.3479,-4.3479,-4.3479,-4.3496,-4.3532,-4.3597,-4.373,-4.3983,-4.4198,-4.429,-4.467,-4.5007,-4.5201,-4.5381,-4.541,-4.5457,-4.5485,-4.5504,-4.5485,-4.5485,-4.5504,-4.5513,-4.555,-4.5577,-4.5586,-4.5023,-4.4573,-4.411,-4.3793,-4.3598,-4.3615,-4.3615,-4.3598,-4.3687,-4.3687,-4.3734,-4.3898,-4.3998,-4.4039,-4.4298,-4.4468,-4.4598,-4.4598,-4.4598,-4.4598,-4.4598,-4.4598,-4.4598,-4.4598,-4.4598,-4.4598,-4.4598,-4.4598,-4.4598,-4.4598,-4.4598,-4.4598,-4.4598,-4.4598,-4.4598,-4.4598,-4.4598,-4.4598,-4.4598,-4.4462,-4.4164,-4.4164,-4.4012,-4.3735,-4.254,-4.1677,-4.1221,-4.095,-4.0578,-4.013,-4.0113,-4.0113,-4.0113,-4.0113,-4.0113,-4.0113,-4.0113,-4.0121,-4.0163,-4.0163,-4.0213,-4.0362,-4.0362,-4.0429,-4.0485,-4.051,-4.051,-4.051,-4.0517,-4.099,-4.1503,-4.1888,-4.2015,-4.2121,-4.2462,-4.2789,-4.2958,-4.3069,-4.3214,-4.3427,-4.3479,-4.3479,-4.3479,-4.3479,-4.3479,-4.3479,-4.3479,-4.3479,-4.3479,-4.3479,-4.3479,-4.3479,-4.3479,-4.3479,-4.3479,-4.3496,-4.3582,-4.373,-4.3902,-4.4095,-4.4406,-4.4631,-4.483,-4.5085,-4.5191,-4.5312,-4.5361,-4.5448,-4.5429,-4.5457,-4.5457,-4.5457,-4.5476,-4.5504,-4.5541,-4.5699,-4.5139,-4.4501,-4.4142,-4.3926,-4.3698,-4.3615,-4.3615,-4.3615,-4.3615,-4.3628,-4.3734,-4.3822,-4.3927,-4.4097,-4.427,-4.4429,-4.4542,-4.4598,-4.4598,-4.4598,-4.4598,-4.4598,-4.4598,-4.4598,-4.4598,-4.4598,-4.4598,-4.4598,-4.4598,-4.4598,-4.4598,-4.4598,-4.4598,-4.4598,-4.4598,-4.4598,-4.4598,-4.4598,-4.4598,-4.4598,-4.4598,-4.4598,-4.4462,-4.3599,-4.2675,-4.1948,-4.1474,-4.1001,-4.0493,-4.0248,-4.0113,-4.0113,-4.0113,-4.0113,-4.0113,-4.0113,-4.0113,-4.0113,-4.0113,-4.0138,-4.0213,-4.0255,-4.0288,-4.0345,-4.037,-4.037,-4.037,-4.0412,-4.0573,-4.0802,-4.1059,-4.1248,-4.1437,-4.1828,-4.2241,-4.2653,-4.2787,-4.305,-4.3392,-4.3479,-4.3479,-4.3479,-4.3479,-4.3479,-4.3479,-4.3479,-4.3479,-4.3479,-4.3479,-4.3479,-4.3479,-4.3479,-4.3479,-4.3479,-4.3479,-4.3479,-4.3614,-4.3697,-4.3886,-4.4084,-4.4285,-4.4519,-4.4763,-4.4973,-4.5126,-4.5251,-4.5341,-4.539,-4.54,-4.5429,-4.5429,-4.5448,-4.5457,-4.5467,-4.5953,-4.5761,-4.5155,-4.4776,-4.4506,-4.3946,-4.3648,-4.3615,-4.3615,-4.3615,-4.3598,-4.3645,-4.3717,-4.3868,-4.3927,-4.4015,-4.4172,-4.44,-4.4542,-4.4542,-4.4542,-4.4559,-4.4542,-4.4542,-4.4542,-4.457,-4.4598,-4.4598,-4.4598,-4.4598,-4.4598,-4.4598,-4.4598,-4.4598,-4.4598,-4.4598,-4.4598,-4.4598,-4.4598,-4.4598,-4.4598,-4.4598,-4.4598,-4.4598,-4.4479,-4.4045,-4.3341,-4.2066,-4.1322,-4.1085,-4.0493,-4.013,-4.0113,-4.0113,-4.0113,-4.0113,-4.0113,-4.0113,-4.0113,-4.0113,-4.0113,-4.0138,-4.0096,-4.0138,-4.0146,-4.0146,-4.0146,-4.0146,-4.0238,-4.0313,-4.0362,-4.0468,-4.0825,-4.1595,-4.166,-4.1913,-4.2382,-4.2655,-4.2883,-4.3322,-4.3444,-4.3479,-4.3479,-4.3479,-4.3479,-4.3479,-4.3479,-4.3479,-4.3479,-4.3479,-4.3479,-4.3479,-4.3479,-4.3479,-4.3479,-4.3479,-4.3479,-4.3513,-4.3548,-4.3647,-4.3825,-4.4026,-4.4227,-4.4493,-4.4957,-4.5124,-4.5269,-4.535,-4.5369,-4.5379,-4.5389,-4.5399,-4.54,-4.54,-4.5419,-4.6606,-4.646,-4.581,-4.5213,-4.4705,-4.444,-4.4092,-4.3615,-4.3615,-4.3615,-4.3615,-4.3615,-4.3611,-4.3734,-4.3839,-4.3927,-4.3985,-4.4172,-4.4258,-4.4241,-4.4241,-4.4241,-4.4286,-4.4241,-4.4281,-4.4412,-4.4542,-4.4598,-4.457,-4.457,-4.4598,-4.4598,-4.4598,-4.4598,-4.4598,-4.4598,-4.4598,-4.4598,-4.4598,-4.4598,-4.4598,-4.4598,-4.4598,-4.4598,-4.4598,-4.4462,-4.4198,-4.325,-4.2226,-4.1322,-4.0967,-4.0629,-4.0231,-4.0113,-4.0113,-4.0113,-4.0113,-4.0113,-4.0113,-4.0113,-4.0113,-4.0113,-4.0113,-4.0113,-4.0113,-4.0113,-4.0113,-4.0113,-4.0138,-4.0163,-4.0146,-4.0188,-4.0427,-4.0731,-4.0849,-4.1094,-4.1556,-4.2142,-4.2617,-4.292,-4.3232,-4.341,-4.348,-4.3479,-4.3479,-4.3479,-4.3479,-4.3479,-4.3479,-4.3479,-4.3479,-4.3479,-4.3479,-4.3479,-4.3479,-4.3479,-4.3479,-4.3479,-4.3496,-4.3496,-4.3649,-4.3763,-4.398,-4.4289,-4.4745,-4.5057,-4.5205,-4.5277,-4.5267,-4.5307,-4.5338,-4.5348,-4.5359,-4.536,-4.538,-4.7305,-4.7222,-4.651,-4.5947,-4.5483,-4.5235,-4.4688,-4.4075,-4.4026,-4.3847,-4.3648,-4.3615,-4.3615,-4.3645,-4.3734,-4.3793,-4.3776,-4.3864,-4.3923,-4.3952,-4.4068,-4.4097,-4.4097,-4.4097,-4.4126,-4.4224,-4.4372,-4.4429,-4.44,-4.4429,-4.4457,-4.4468,-4.4468,-4.4525,-4.457,-4.4598,-4.4598,-4.4598,-4.4598,-4.4598,-4.4598,-4.4598,-4.4598,-4.4598,-4.4598,-4.4598,-4.4564,-4.4096,-4.3301,-4.2151,-4.1542,-4.0941,-4.0476,-4.0231,-4.0087,-4.0037,-4.0087,-4.0113,-4.0113,-4.0113,-4.0113,-4.0113,-4.0113,-4.0113,-4.0113,-4.0113,-4.0113,-4.0113,-4.0113,-4.0113,-4.0096,-4.0113,-4.0146,-4.0213,-4.0337,-4.049,-4.0943,-4.1686,-4.2185,-4.2442,-4.2733,-4.3032,-4.3124,-4.3375,-4.3445,-4.3463,-4.348,-4.3479,-4.3479,-4.3479,-4.3479,-4.3479,-4.3479,-4.3479,-4.3479,-4.3479,-4.3479,-4.3479,-4.3479,-4.3496,-4.3565,-4.3599,-4.3712,-4.4045,-4.4462,-4.4707,-4.4875,-4.5004,-4.5057,-4.5143,-4.5256,-4.5307,-4.5328,-4.5338,-4.5329,-4.8001,-4.7901,-4.7255,-4.6891,-4.6709,-4.6129,-4.5367,-4.4705,-4.4638,-4.418,-4.3638,-4.3432,-4.3432,-4.3432,-4.3265,-4.3295,-4.3432,-4.3355,-4.3386,-4.3535,-4.3759,-4.3877,-4.401,-4.4039,-4.4068,-4.4068,-4.4126,-4.4126,-4.4155,-4.4155,-4.4155,-4.4281,-4.431,-4.4395,-4.4497,-4.457,-4.457,-4.4598,-4.4598,-4.4598,-4.457,-4.457,-4.4542,-4.4542,-4.4542,-4.4514,-4.4497,-4.4429,-4.4119,-4.3291,-4.2006,-4.1261,-4.1006,-4.0527,-4.0273,-4.0204,-4.0163,-4.018,-4.0172,-4.0096,-4.0087,-4.0113,-4.0113,-4.0113,-4.0113,-4.0231,-4.0316,-4.0316,-4.0367,-4.0383,-4.04,-4.0282,-4.0231,-4.0113,-4.0163,-4.0343,-4.0803,-4.1375,-4.1664,-4.1832,-4.2162,-4.2482,-4.2503,-4.2958,-4.3214,-4.3304,-4.3357,-4.3427,-4.3427,-4.341,-4.3462,-4.3444,-4.3427,-4.3463,-4.3463,-4.3479,-4.3479,-4.3479,-4.3479,-4.3479,-4.3531,-4.3565,-4.3649,-4.3939,-4.4151,-4.4374,-4.4546,-4.4714,-4.4903,-4.5057,-4.5154,-4.5246,-4.5307,-4.5307,-4.5288,-4.8001,-4.7984,-4.7785,-4.7404,-4.6924,-4.6659,-4.5864,-4.4771,-4.4705,-4.405,-4.3105,-4.2834,-4.2569,-4.2078,-4.2094,-4.2045,-4.2142,-4.2126,-4.2412,-4.2803,-4.2943,-4.3325,-4.3687,-4.3881,-4.3927,-4.3939,-4.3952,-4.4097,-4.4097,-4.4039,-4.4097,-4.4155,-4.4138,-4.4241,-4.4355,-4.4367,-4.4468,-4.457,-4.457,-4.4514,-4.4367,-4.4338,-4.4327,-4.4241,-4.4229,-4.4212,-4.4212,-4.4212,-4.3973,-4.3399,-4.2449,-4.1856,-4.1786,-4.1513,-4.1292,-4.1215,-4.0872,-4.0656,-4.0591,-4.0229,-3.9994,-4.0087,-4.0062,-4.0113,-4.013,-4.0612,-4.0849,-4.1018,-4.1356,-4.166,-4.1593,-4.117,-4.073,-4.0197,-4.013,-4.0154,-4.0385,-4.0737,-4.1076,-4.1178,-4.1613,-4.1871,-4.2041,-4.2384,-4.2751,-4.2827,-4.3032,-4.3286,-4.3286,-4.3322,-4.3322,-4.334,-4.3322,-4.3394,-4.3446,-4.348,-4.3479,-4.3479,-4.3479,-4.3479,-4.3582,-4.3682,-4.3795,-4.4002,-4.4057,-4.4227,-4.4355,-4.4493,-4.4701,-4.4887,-4.4934,-4.4976,-4.5213,-4.5297,-4.5256,-4.8001,-4.8001,-4.8001,-4.7752,-4.7388,-4.7371,-4.6516,-4.5256,-4.4846,-4.3926,-4.2752,-4.2238,-4.1884,-4.1525,-4.1525,-4.1492,-4.1492,-4.1492,-4.1933,-4.2522,-4.2648,-4.2834,-4.3143,-4.3312,-4.3372,-4.3372,-4.3416,-4.3625,-4.3759,-4.3625,-4.3671,-4.3969,-4.4027,-4.4097,-4.4212,-4.4241,-4.4253,-4.4355,-4.4355,-4.4196,-4.381,-4.3752,-4.3499,-4.3396,-4.3426,-4.3651,-4.3634,-4.3634,-4.361,-4.3474,-4.2942,-4.2467,-4.235,-4.2065,-4.1866,-4.1821,-4.1431,-4.108,-4.0517,-4.0057,-3.9794,-3.9663,-3.9771,-4.0131,-4.0468,-4.1107,-4.1572,-4.1623,-4.2074,-4.2252,-4.2168,-4.1644,-4.1052,-4.0646,-4.0299,-4.013,-4.0113,-4.0353,-4.0507,-4.0666,-4.0995,-4.1338,-4.1393,-4.1849,-4.22,-4.246,-4.2694,-4.2958,-4.316,-4.3178,-4.3196,-4.3214,-4.3251,-4.3323,-4.3376,-4.341,-4.3463,-4.3463,-4.3444,-4.3444,-4.3531,-4.3682,-4.3732,-4.3828,-4.3949,-4.4053,-4.4158,-4.4246,-4.4388,-4.4525,-4.4572,-4.4745,-4.4965,-4.5117,-4.5098,-4.8001,-4.8001,-4.8001,-4.8001,-4.7935,-4.7869,-4.693,-4.5745,-4.5012,-4.3839,-4.2471,-4.174,-4.1386,-4.1294,-4.1008,-4.1209,-4.1209,-4.106,-4.1591,-4.2013,-4.219,-4.2253,-4.2253,-4.2443,-4.2475,-4.2522,-4.2475,-4.2803,-4.3005,-4.271,-4.2974,-4.3402,-4.3598,-4.3747,-4.3743,-4.3802,-4.3831,-4.3743,-4.3697,-4.3426,-4.2968,-4.2845,-4.2629,-4.2284,-4.2583,-4.2784,-4.2814,-4.2862,-4.3043,-4.3756,-4.3227,-4.2709,-4.2535,-4.2086,-4.1846,-4.1642,-4.1514,-4.1045,-4.0169,-3.9907,-3.9572,-3.9253,-3.9572,-4.0034,-4.0607,-4.1342,-4.1927,-4.1927,-4.2328,-4.2578,-4.2395,-4.1786,-4.1339,-4.1035,-4.0536,-4.0163,-4.0113,-4.0113,-4.0113,-4.0121,-4.0524,-4.0676,-4.089,-4.1243,-4.1753,-4.1846,-4.22,-4.2635,-4.2864,-4.2995,-4.305,-4.3142,-4.3178,-4.3233,-4.3269,-4.334,-4.3375,-4.341,-4.341,-4.341,-4.3428,-4.3496,-4.3496,-4.358,-4.3728,-4.3825,-4.3873,-4.3999,-4.4106,-4.4236,-4.4332,-4.4525,-4.4695,-4.4758,-4.4782,-4.8001,-4.8001,-4.8001,-4.8001,-4.7902,-4.7321,-4.6525,-4.5658,-4.4934,-4.3481,-4.1969,-4.1473,-4.0819,-3.9915,-3.9985,-3.9844,-3.9985,-4.0041,-4.025,-4.0873,-4.0956,-4.0974,-4.1109,-4.1459,-4.1722,-4.1738,-4.1754,-4.1852,-4.1901,-4.1981,-4.211,-4.2694,-4.2506,-4.2412,-4.2956,-4.263,-4.2332,-4.241,-4.2489,-4.2363,-4.2077,-4.1981,-4.1869,-4.1592,-4.1771,-4.1836,-4.1836,-4.1836,-4.1901,-4.1981,-4.1981,-4.1884,-4.1914,-4.1771,-4.1659,-4.1548,-4.1116,-4.0733,-4.0399,-3.9936,-3.9586,-3.9511,-3.9586,-3.9863,-4.0037,-4.1235,-4.1864,-4.2175,-4.2982,-4.3221,-4.2925,-4.2426,-4.1811,-4.1236,-4.0569,-4.0087,-4.0113,-4.0113,-4.0113,-4.0121,-4.0196,-4.0271,-4.0279,-4.07,-4.1082,-4.1248,-4.1674,-4.2218,-4.248,-4.2713,-4.2826,-4.2882,-4.3068,-4.3123,-4.3196,-4.3251,-4.3304,-4.334,-4.334,-4.334,-4.3358,-4.3393,-4.3428,-4.3444,-4.3513,-4.3599,-4.3699,-4.3682,-4.3761,-4.3936,-4.4106,-4.425,-4.4355,-4.4425,-4.4479,-4.7236,-4.6929,-4.6913,-4.6913,-4.6844,-4.6464,-4.5853,-4.508,-4.4407,-4.3107,-4.1599,-4.111,-4.0356,-3.9439,-3.9388,-3.9424,-3.9481,-3.9788,-4.0146,-4.0478,-4.0547,-4.0512,-4.0409,-4.0497,-4.0634,-4.094,-4.1042,-4.1176,-4.136,-4.1227,-4.1393,-4.2013,-4.1656,-4.1804,-4.2126,-4.1755,-4.1723,-4.1788,-4.1755,-4.1592,-4.1196,-4.1129,-4.1095,-4.1026,-4.1042,-4.1026,-4.1026,-4.1042,-4.0839,-4.0634,-4.0634,-4.0977,-4.1494,-4.1558,-4.1634,-4.184,-4.1649,-4.1011,-4.0631,-4.0202,-3.9727,-3.9237,-3.9449,-3.9814,-4.0228,-4.1198,-4.1703,-4.1988,-4.2523,-4.3032,-4.3036,-4.2478,-4.1927,-4.1466,-4.0549,-3.9986,-4.0011,-4.0062,-4.0113,-4.0113,-4.0121,-4.0121,-4.0221,-4.0427,-4.0652,-4.0943,-4.1059,-4.1565,-4.1994,-4.22,-4.2438,-4.2595,-4.2862,-4.3012,-4.3105,-4.316,-4.3214,-4.3251,-4.3251,-4.3251,-4.3269,-4.3322,-4.3375,-4.341,-4.3428,-4.3462,-4.3531,-4.3496,-4.3496,-4.3647,-4.3809,-4.3934,-4.4057,-4.4162,-4.4206,-4.6269,-4.5697,-4.5697,-4.5697,-4.566,-4.5588,-4.5169,-4.4516,-4.3775,-4.2742,-4.1483,-4.0771,-4.0276,-3.9559,-3.9388,-3.9388,-3.9553,-3.9879,-4.0181,-4.0165,-4.0216,-4.0216,-4.0111,-3.9879,-3.9809,-4.032,-4.0355,-4.06,-4.0771,-4.0718,-4.0703,-4.1194,-4.116,-4.116,-4.126,-4.1194,-4.1026,-4.0992,-4.0992,-4.0823,-4.0443,-4.0339,-4.0339,-4.0355,-4.032,-4.0305,-4.0305,-4.0285,-4.0137,-3.958,-3.9559,-4.0254,-4.1084,-4.1413,-4.163,-4.2188,-4.1941,-4.1469,-4.0793,-4.0381,-3.9741,-3.8732,-3.9115,-3.9692,-4.0297,-4.087,-4.1302,-4.1562,-4.1885,-4.23,-4.267,-4.2088,-4.1738,-4.1432,-4.0451,-3.9889,-3.9901,-4.0011,-4.0062,-4.0113,-4.0113,-4.0113,-4.0113,-4.0221,-4.0427,-4.0621,-4.0724,-4.0919,-4.1343,-4.1721,-4.1973,-4.2218,-4.2458,-4.2843,-4.2975,-4.3012,-4.3068,-4.3087,-4.3105,-4.316,-4.316,-4.316,-4.3214,-4.3323,-4.3376,-4.3393,-4.3428,-4.3445,-4.3463,-4.3462,-4.3565,-4.3712,-4.3828,-4.3892,-4.3923,-4.5789,-4.5697,-4.5697,-4.5697,-4.5572,-4.4999,-4.4624,-4.4396,-4.3674,-4.2617,-4.1497,-4.125,-4.0502,-3.9672,-3.9388,-3.9388,-3.946,-3.9646,-3.9681,-3.9681,-3.9681,-3.9681,-3.9646,-3.9553,-3.9517,-3.9532,-3.9661,-3.9788,-3.9844,-3.9696,-4.0041,-4.0409,-4.0146,-4.0126,-4.0374,-4.0111,-3.995,-4.0021,-3.9985,-3.9859,-3.9753,-3.9696,-3.9696,-3.9696,-3.9717,-3.9727,-3.9706,-3.967,-3.9757,-4.0157,-4.0217,-4.0701,-4.1206,-4.1052,-4.1173,-4.1513,-4.1377,-4.1219,-4.1157,-4.0278,-3.9959,-3.9835,-3.9664,-3.9429,-3.9778,-4.0235,-4.0668,-4.0891,-4.1295,-4.1788,-4.1869,-4.1316,-4.1058,-4.0769,-4.0237,-3.9711,-3.9849,-3.9884,-3.9961,-4.0062,-4.0087,-4.0113,-4.0113,-4.0113,-4.0221,-4.0402,-4.0524,-4.0628,-4.0855,-4.1253,-4.1547,-4.1782,-4.2015,-4.2458,-4.2844,-4.2863,-4.2901,-4.2882,-4.292,-4.2994,-4.2994,-4.2957,-4.3013,-4.316,-4.3251,-4.3251,-4.3304,-4.334,-4.3411,-4.3429,-4.3463,-4.3513,-4.3615,-4.3716,-4.3666,-4.4812,-4.4488,-4.4434,-4.445,-4.4396,-4.4082,-4.3888,-4.3795,-4.3457,-4.2806,-4.2051,-4.1542,-4.0861,-4.0038,-3.9493,-3.9388,-3.9388,-3.9388,-3.9388,-3.9388,-3.9388,-3.9388,-3.9388,-3.9388,-3.9388,-3.9424,-3.9388,-3.9388,-3.9388,-3.9424,-3.9625,-3.9753,-3.9517,-3.961,-3.9773,-3.9661,-3.9424,-3.9388,-3.9388,-3.9388,-3.9388,-3.9388,-3.9388,-3.9388,-3.9433,-3.9589,-3.9888,-3.9918,-4.0247,-4.0756,-4.0905,-4.128,-4.1579,-4.1707,-4.1572,-4.1758,-4.1564,-4.1489,-4.1752,-4.0965,-4.0516,-4.0277,-3.9798,-3.9433,-3.946,-3.9717,-4.0026,-4.0141,-4.06,-4.1078,-4.1064,-4.0499,-4.0319,-4.0333,-3.968,-3.9311,-3.9547,-3.9668,-3.9824,-3.9961,-4.0037,-4.0045,-4.0113,-4.0113,-4.0113,-4.0196,-4.0345,-4.0427,-4.0483,-4.0761,-4.1139,-4.1366,-4.1587,-4.1909,-4.234,-4.2478,-4.2537,-4.2557,-4.2711,-4.2787,-4.2881,-4.2863,-4.2901,-4.3013,-4.3068,-4.3142,-4.3214,-4.3269,-4.3323,-4.3394,-4.3429,-4.3463,-4.3497,-4.3496,-4.3479,-4.3888,-4.3305,-4.3305,-4.3305,-4.3305,-4.3305,-4.3344,-4.3305,-4.3305,-4.2955,-4.2366,-4.1841,-4.116,-4.0382,-3.9768,-3.9388,-3.9388,-3.9388,-3.9388,-3.9388,-3.9388,-3.9388,-3.9388,-3.9388,-3.9388,-3.9388,-3.9388,-3.9388,-3.9388,-3.9388,-3.9388,-3.946,-3.9424,-3.9388,-3.9424,-3.946,-3.9388,-3.9388,-3.9388,-3.9388,-3.9388,-3.9388,-3.9388,-3.9448,-3.9544,-3.9903,-4.0262,-4.0516,-4.092,-4.1369,-4.1662,-4.1916,-4.244,-4.259,-4.259,-4.2575,-4.25,-4.241,-4.2186,-4.1512,-4.0726,-4.0412,-3.9783,-3.9538,-3.9738,-3.991,-3.9991,-3.9892,-4.0137,-4.0546,-4.0497,-3.9707,-3.9535,-3.9555,-3.9059,-3.8562,-3.9088,-3.9415,-3.9642,-3.9807,-3.9935,-4.002,-4.0062,-4.0113,-4.0113,-4.0113,-4.0221,-4.0221,-4.0303,-4.041,-4.0707,-4.0902,-4.1139,-4.137,-4.17,-4.1973,-4.2015,-4.2056,-4.234,-4.2557,-4.2692,-4.2806,-4.2863,-4.2901,-4.2975,-4.3031,-4.3105,-4.3178,-4.3233,-4.3305,-4.3359,-4.3411,-4.348,-4.3479,-4.3479,-4.3369,-4.3305,-4.3305,-4.3305,-4.3305,-4.3305,-4.3305,-4.3305,-4.3305,-4.2955,-4.247,-4.2261,-4.1557,-4.0487,-3.9768,-3.9448,-3.9388,-3.9388,-3.9388,-3.9388,-3.9388,-3.9388,-3.9388,-3.9388,-3.9388,-3.9388,-3.9388,-3.9388,-3.9388,-3.9388,-3.9388,-3.9388,-3.9388,-3.9388,-3.9388,-3.9388,-3.9388,-3.9388,-3.9388,-3.9388,-3.9388,-3.9388,-3.9388,-3.9582,-3.9933,-4.0367,-4.0651,-4.1055,-4.1617,-4.2186,-4.2276,-4.2566,-4.309,-4.3185,-4.3185,-4.3045,-4.2746,-4.2381,-4.2231,-4.1512,-4.0771,-4.0502,-3.9948,-3.9843,-4.0187,-4.0696,-4.092,-4.1115,-4.0776,-4.0407,-4.0226,-3.928,-3.882,-3.867,-3.8547,-3.8402,-3.8727,-3.9034,-3.9292,-3.9642,-3.9755,-3.991,-4.0011,-4.0062,-4.0113,-4.0113,-4.0113,-4.0087,-4.0096,-4.0221,-4.0328,-4.0531,-4.0683,-4.0926,-4.1116,-4.1388,-4.1525,-4.1569,-4.1931,-4.2279,-4.236,-4.2478,-4.2768,-4.2825,-4.29,-4.2938,-4.2994,-4.3068,-4.3142,-4.3215,-4.3287,-4.3376,-4.348,-4.3479,-4.348,-4.3305,-4.3305,-4.3305,-4.3305,-4.3305,-4.3305,-4.3305,-4.3305,-4.329,-4.314,-4.2865,-4.253,-4.1677,-4.0546,-4.0053,-3.9768,-3.9463,-3.9388,-3.9388,-3.9388,-3.9388,-3.9388,-3.9388,-3.9388,-3.9388,-3.9388,-3.9388,-3.9388,-3.9388,-3.9388,-3.9388,-3.9388,-3.9388,-3.9388,-3.9388,-3.9388,-3.9388,-3.9388,-3.9388,-3.9388,-3.9388,-3.9418,-3.9604,-3.9963,-4.0262,-4.0771,-4.1384,-4.1767,-4.2252,-4.2776,-4.291,-4.3015,-4.323,-4.329,-4.329,-4.326,-4.309,-4.2761,-4.2396,-4.1773,-4.1339,-4.0995,-4.0681,-4.0726,-4.098,-4.122,-4.1467,-4.1392,-4.0771,-4.0472,-4.0217,-3.9149,-3.893,-3.8664,-3.8279,-3.8497,-3.8608,-3.86,-3.8865,-3.9222,-3.9623,-3.9871,-4.0034,-3.9993,-3.9985,-3.991,-3.991,-3.9884,-3.991,-3.9986,-4.007,-4.0171,-4.0303,-4.0434,-4.0635,-4.0832,-4.1019,-4.1139,-4.1481,-4.1785,-4.1909,-4.2077,-4.236,-4.2634,-4.2711,-4.2787,-4.2844,-4.2957,-4.305,-4.3123,-4.3196,-4.3287,-4.3358,-4.3446,-4.3446,-4.3305,-4.3305,-4.3305,-4.3305,-4.3305,-4.3305,-4.3305,-4.3305,-4.3305,-4.329,-4.3125,-4.2641,-4.1752,-4.0801,-4.0427,-3.9993,-3.9403,-3.9388,-3.9388,-3.9388,-3.9388,-3.9388,-3.9388,-3.9388,-3.9388,-3.9388,-3.9388,-3.9388,-3.9388,-3.9388,-3.9388,-3.9388,-3.9388,-3.9388,-3.9388,-3.9388,-3.9388,-3.9388,-3.9388,-3.9388,-3.9418,-3.9634,-3.9948,-4.0337,-4.0771,-4.1377,-4.2231,-4.2566,-4.291,-4.311,-4.323,-4.3245,-4.321,-4.321,-4.313,-4.313,-4.3001,-4.2718,-4.241,-4.21,-4.1983,-4.1707,-4.1617,-4.1587,-4.1639,-4.1698,-4.1878,-4.2043,-4.1452,-4.0995,-4.0412,-3.949,-3.8923,-3.8652,-3.8304,-3.8576,-3.8815,-3.894,-3.9198,-3.9734,-4.0067,-4.0067,-4.0131,-3.9974,-3.9859,-3.9754,-3.9703,-3.9703,-3.9729,-3.9781,-3.9858,-3.9961,-3.9995,-4.0096,-4.0179,-4.0336,-4.0507,-4.0731,-4.1071,-4.1281,-4.1388,-4.1652,-4.1952,-4.2218,-4.24,-4.234,-4.2239,-4.2595,-4.2938,-4.3068,-4.3142,-4.316,-4.3214,-4.3323,-4.3394,-4.3305,-4.3305,-4.3305,-4.3305,-4.3305,-4.3305,-4.3305,-4.3305,-4.3305,-4.3305,-4.3215,-4.2641,-4.1991,-4.128,-4.0606,-4.0038,-3.9388,-3.9388,-3.9388,-3.9388,-3.9388,-3.9373,-3.9388,-3.9388,-3.9388,-3.9388,-3.9388,-3.9388,-3.9388,-3.9388,-3.9388,-3.9388,-3.9388,-3.9388,-3.9388,-3.9388,-3.9388,-3.9418,-3.9514,-3.9544,-3.9709,-3.9993,-4.0427,-4.0726,-4.1572,-4.2321,-4.2425,-4.2826,-4.3086,-4.325,-4.321,-4.317,-4.305,-4.3036,-4.297,-4.289,-4.2864,-4.2524,-4.212,-4.2183,-4.2087,-4.1841,-4.1931,-4.2321,-4.2297,-4.2851,-4.305,-4.291,-4.2207,-4.1752,-4.1055,-4.0239,-3.9337,-3.8792,-3.8546,-3.8567,-3.8936,-3.9432,-3.973,-4.0294,-4.0393,-4.0172,-4.0139,-3.9974,-3.9748,-3.9594,-3.959,-3.959,-3.9625,-3.9668,-3.9703,-3.9755,-3.9755,-3.9781,-3.9764,-3.9944,-4.0129,-4.0303,-4.0563,-4.0737,-4.0855,-4.118,-4.1543,-4.1635,-4.1764,-4.1678,-4.1721,-4.2139,-4.2537,-4.2918,-4.3086,-4.3105,-4.316,-4.3251,-4.3341,-4.3305,-4.3305,-4.3305,-4.3305,-4.3305,-4.3305,-4.3305,-4.3305,-4.3305,-4.3305,-4.3245,-4.2656,-4.2036,-4.1377,-4.0696,-4.0038,-3.9448,-3.9388,-3.9388,-3.9388,-3.9388,-3.9337,-3.9301,-3.9301,-3.9352,-3.9265,-3.9301,-3.9388,-3.9388,-3.9352,-3.9388,-3.9388,-3.9388,-3.9388,-3.9388,-3.9433,-3.9433,-3.9589,-3.9813,-4.0008,-4.0157,-4.0666,-4.119,-4.1737,-4.1724,-4.2464,-4.2847,-4.2887,-4.3006,-4.3076,-4.2996,-4.2915,-4.285,-4.285,-4.2769,-4.2673,-4.2633,-4.2279,-4.1941,-4.2199,-4.2491,-4.2574,-4.2742,-4.2901,-4.2841,-4.317,-4.3275,-4.308,-4.2746,-4.2049,-4.1354,-4.0546,-3.9805,-3.9152,-3.8822,-3.8743,-3.8985,-3.9531,-3.9803,-4.0131,-4.0076,-3.9905,-3.9927,-3.9928,-3.9704,-3.9475,-3.9472,-3.9458,-3.9511,-3.9537,-3.9563,-3.9616,-3.9616,-3.9625,-3.9651,-3.9729,-3.9824,-3.9961,-4.0121,-4.0279,-4.0458,-4.0778,-4.1071,-4.1139,-4.1236,-4.1326,-4.1503,-4.1785,-4.2098,-4.2456,-4.2786,-4.3012,-4.3105,-4.3142,-4.3215,-4.3305,-4.3305,-4.3305,-4.3305,-4.3305,-4.3305,-4.3305,-4.3305,-4.3305,-4.3305,-4.323,-4.2641,-4.2036,-4.1392,-4.0696,-4.0038,-3.9523,-3.9352,-3.9316,-3.9265,-3.9213,-3.9126,-3.909,-3.9104,-3.9104,-3.9053,-3.9104,-3.9192,-3.9192,-3.9213,-3.9177,-3.9177,-3.9286,-3.9301,-3.9469,-3.9634,-3.9672,-3.9873,-4.0307,-4.0666,-4.0771,-4.1339,-4.1735,-4.2219,-4.2272,-4.252,-4.2887,-4.286,-4.2795,-4.2835,-4.2795,-4.2703,-4.2622,-4.2581,-4.2581,-4.2482,-4.2306,-4.2012,-4.185,-4.2029,-4.2537,-4.2723,-4.2892,-4.3046,-4.3145,-4.313,-4.305,-4.3031,-4.2535,-4.1933,-4.1277,-4.0562,-3.9913,-3.9233,-3.9035,-3.8993,-3.9195,-3.9603,-3.9718,-3.9889,-3.9975,-4.0293,-3.9855,-3.9893,-3.9596,-3.9385,-3.9375,-3.9379,-3.9379,-3.9405,-3.9432,-3.9458,-3.9484,-3.9537,-3.9573,-3.9599,-3.9668,-3.972,-3.9858,-3.9961,-4.0171,-4.0434,-4.0587,-4.0611,-4.0761,-4.1001,-4.1122,-4.119,-4.1525,-4.1909,-4.2218,-4.2496,-4.271,-4.2749,-4.2975,-4.3305,-4.3305,-4.3305,-4.3305,-4.3305,-4.3305,-4.3305,-4.3305,-4.3305,-4.3305,-4.32,-4.2611,-4.2006,-4.1309,-4.0584,-3.986,-3.942,-3.9177,-3.9104,-3.9068,-3.898,-3.8855,-3.8819,-3.8833,-3.8907,-3.8819,-3.8855,-3.8907,-3.887,-3.8892,-3.8907,-3.8943,-3.9053,-3.9273,-3.9448,-4.0046,-4.0367,-4.0487,-4.104,-4.1257,-4.1428,-4.1921,-4.2216,-4.2292,-4.25,-4.2731,-4.2765,-4.2662,-4.2622,-4.2648,-4.2622,-4.2555,-4.2433,-4.2392,-4.2281,-4.207,-4.1535,-4.1273,-4.12,-4.1521,-4.193,-4.2482,-4.2662,-4.2809,-4.2769,-4.2729,-4.2769,-4.2805,-4.2218,-4.1543,-4.0947,-4.041,-3.978,-3.9371,-3.9196,-3.9206,-3.9385,-3.9551,-3.9669,-3.9683,-4.0553,-4.1098,-4.0357,-3.9823,-3.9491,-3.9325,-3.9307,-3.9315,-3.9315,-3.9315,-3.9352,-3.9352,-3.9422,-3.9405,-3.9458,-3.9484,-3.9511,-3.9537,-3.9616,-3.9746,-3.9849,-4.002,-4.0121,-4.0146,-4.0254,-4.0441,-4.049,-4.0514,-4.0902,-4.1253,-4.1565,-4.1825,-4.2095,-4.2318,-4.2478,-4.3305,-4.3305,-4.3305,-4.3305,-4.3305,-4.3305,-4.3305,-4.3305,-4.3305,-4.3305,-4.3065,-4.2237,-4.1677,-4.11,-4.0181,-3.9452,-3.9252,-3.8995,-3.8907,-3.8907,-3.8782,-3.8723,-3.8649,-3.8671,-3.8708,-3.8686,-3.8671,-3.8782,-3.8819,-3.8819,-3.8811,-3.8819,-3.8988,-3.9357,-3.9928,-4.0442,-4.0639,-4.091,-4.1294,-4.1616,-4.1675,-4.2233,-4.2534,-4.244,-4.2585,-4.2648,-4.2622,-4.2474,-4.2392,-4.2474,-4.2433,-4.2325,-4.2201,-4.2201,-4.193,-4.1613,-4.1134,-4.112,-4.0945,-4.0989,-4.1036,-4.1682,-4.2346,-4.2633,-4.2688,-4.2688,-4.2688,-4.2486,-4.1945,-4.1366,-4.0893,-4.0244,-3.9646,-3.9297,-3.9139,-3.9241,-3.9376,-3.9484,-3.9586,-3.9541,-4.003,-4.018,-3.98,-3.9503,-3.9244,-3.9072,-3.9028,-3.9214,-3.9272,-3.9299,-3.9325,-3.9342,-3.9342,-3.9342,-3.9358,-3.9561,-3.9531,-3.9484,-3.9537,-3.9616,-3.9694,-3.9772,-3.9807,-3.9893,-3.9884,-3.9884,-4.007,-4.0229,-4.0328,-4.0563,-4.0955,-4.1321,-4.1652,-4.176,-4.1803,-4.3305,-4.3305,-4.3305,-4.3305,-4.3305,-4.3305,-4.3305,-4.3305,-4.3305,-4.3305,-4.3021,-4.1906,-4.127,-4.0845,-3.9802,-3.8995,-3.8995,-3.8797,-3.8686,-3.8686,-3.8612,-3.8501,-3.8464,-3.8501,-3.8464,-3.8478,-3.8545,-3.8648,-3.8933,-3.8942,-3.8994,-3.9046,-3.8987,-3.9615,-4.0216,-4.0689,-4.0899,-4.1296,-4.1765,-4.2094,-4.2197,-4.2408,-4.2659,-4.2552,-4.25,-4.2433,-4.2392,-4.2269,-4.2119,-4.2201,-4.2175,-4.2051,-4.1995,-4.1701,-4.1583,-4.1403,-4.0663,-4.038,-3.98,-3.9412,-3.9634,-4.0682,-4.1779,-4.2415,-4.25,-4.2433,-4.2474,-4.2239,-4.1653,-4.1135,-4.0549,-3.9903,-3.9334,-3.8922,-3.898,-3.9104,-3.9228,-3.9322,-3.9358,-3.9322,-3.9349,-3.937,-3.9329,-3.911,-3.8905,-3.882,-3.8752,-3.8967,-3.9236,-3.9373,-3.9532,-3.9632,-3.9775,-3.9967,-3.9945,-3.9829,-3.9717,-3.9455,-3.9508,-3.9584,-3.9563,-3.9642,-3.9651,-3.9677,-3.9729,-3.9807,-3.9901,-4.0037,-4.0171,-4.0303,-4.0556,-4.0879,-4.1208,-4.1276,-4.1276,-4.3305,-4.3305,-4.3305,-4.329,-4.329,-4.3265,-4.325,-4.3305,-4.3265,-4.3265,-4.3145,-4.1698,-4.1169,-4.0863,-3.9535,-3.8929,-3.8907,-3.8707,-3.8559,-3.8478,-3.8389,-3.8277,-3.824,-3.8277,-3.8379,-3.8327,-3.8466,-3.8891,-3.9213,-3.9334,-3.9396,-3.9332,-3.9206,-3.968,-4.0215,-4.0592,-4.1018,-4.1636,-4.189,-4.2085,-4.2144,-4.2254,-4.2104,-4.2038,-4.2059,-4.205,-4.2041,-4.2061,-4.198,-4.1995,-4.1953,-4.1912,-4.166,-4.1071,-4.1339,-4.1037,-3.9754,-3.8788,-3.8417,-3.8103,-3.8588,-3.9859,-4.0997,-4.1742,-4.1897,-4.1744,-4.1604,-4.1396,-4.09,-4.0514,-4.0056,-3.9328,-3.8647,-3.8612,-3.8708,-3.887,-3.9017,-3.909,-3.909,-3.9126,-3.9213,-3.9238,-3.9137,-3.8962,-3.8592,-3.8529,-3.8485,-3.8624,-3.8991,-3.966,-3.9869,-4.0209,-4.0441,-4.0817,-4.0729,-4.0404,-4.0094,-3.9883,-3.9667,-3.9677,-3.9598,-3.9518,-3.9511,-3.9547,-3.9651,-3.9729,-3.9772,-3.9901,-4.0062,-4.0221,-4.0303,-4.0434,-4.0737,-4.0802,-4.0832,-4.3305,-4.3305,-4.3305,-4.321,-4.3076,-4.2915,-4.2985,-4.3076,-4.293,-4.289,-4.2761,-4.1503,-4.1109,-4.1342,-3.998,-3.939,-3.9188,-3.9016,-3.8664,-3.8524,-3.8458,-3.8275,-3.826,-3.8347,-3.8522,-3.8783,-3.9,-3.9218,-3.9712,-3.9842,-3.9567,-3.9324,-3.9286,-3.9523,-3.978,-4.011,-4.1061,-4.1701,-4.1781,-4.1737,-4.1507,-4.1288,-4.1091,-4.0982,-4.1276,-4.1242,-4.1247,-4.1608,-4.1502,-4.1071,-4.1043,-4.0831,-3.997,-3.9711,-3.9759,-3.9195,-3.8129,-3.7359,-3.796,-3.8048,-3.8331,-3.8953,-3.9773,-4.0347,-4.0575,-4.0631,-4.0503,-4.0407,-4.0087,-3.9665,-3.9524,-3.9035,-3.8518,-3.8464,-3.8575,-3.8649,-3.8797,-3.887,-3.887,-3.8943,-3.9053,-3.9,-3.8932,-3.8587,-3.8273,-3.8207,-3.8228,-3.8371,-3.8824,-3.9521,-4.0033,-4.0388,-4.0856,-4.116,-4.125,-4.1026,-4.0635,-4.0326,-4.016,-3.9912,-3.9707,-3.9628,-3.9462,-3.9432,-3.9537,-3.9563,-3.959,-3.9746,-3.9977,-4.0028,-4.0096,-4.0171,-4.0254,-4.0377,-4.0427,-4.3305,-4.329,-4.321,-4.3076,-4.2875,-4.2648,-4.2648,-4.2729,-4.2729,-4.2585,-4.2187,-4.1151,-4.0876,-4.094,-3.9964,-3.9469,-3.9731,-3.9601,-3.9402,-3.9228,-3.8884,-3.903,-3.8986,-3.8928,-3.9233,-3.9465,-3.9654,-3.9871,-4.0336,-4.0466,-4.0249,-4.0017,-3.961,-3.9421,-3.9678,-4.0095,-4.0706,-4.1255,-4.1459,-4.1189,-4.0815,-4.0398,-4.0047,-3.9722,-4.0098,-4.0063,-3.9849,-4.0318,-4.0041,-3.9756,-3.9769,-3.9648,-3.9132,-3.9227,-3.8572,-3.8034,-3.7404,-3.713,-3.7403,-3.7197,-3.774,-3.8206,-3.832,-3.863,-3.921,-3.9431,-3.9651,-3.9792,-3.9271,-3.8855,-3.8856,-3.8842,-3.86,-3.8366,-3.8441,-3.8478,-3.859,-3.8649,-3.8723,-3.8797,-3.8797,-3.8782,-3.859,-3.8212,-3.8053,-3.8222,-3.8213,-3.8184,-3.8784,-3.9645,-4.0051,-4.0395,-4.0929,-4.1385,-4.1425,-4.1428,-4.1079,-4.0819,-4.0845,-4.0564,-4.01,-3.9862,-3.9823,-3.9644,-3.9448,-3.9558,-3.9734,-3.9718,-3.9849,-3.9934,-4.0002,-4.002,-4.0121,-4.0196,-4.0196,-4.325,-4.3225,-4.3036,-4.285,-4.2662,-4.2474,-4.2392,-4.2392,-4.2541,-4.2313,-4.1699,-4.0822,-4.0607,-4.0787,-3.9945,-3.9809,-4.007,-4.0191,-4.0046,-4.0075,-3.9828,-3.9799,-3.9842,-4.006,-3.9944,-4.006,-4.0278,-4.0525,-4.0963,-4.0917,-4.0737,-4.0926,-3.9664,-3.9093,-3.9242,-3.9539,-3.9969,-4.0326,-4.0549,-4.0502,-4.0593,-4.0206,-3.951,-3.8837,-3.8624,-3.8434,-3.7896,-3.7725,-3.7762,-3.81,-3.8271,-3.8431,-3.846,-3.8488,-3.769,-3.7159,-3.6569,-3.6447,-3.6346,-3.6064,-3.6405,-3.6726,-3.6802,-3.6934,-3.737,-3.8132,-3.8482,-3.8789,-3.8337,-3.8436,-3.8521,-3.8232,-3.7968,-3.8127,-3.8329,-3.8366,-3.8441,-3.8464,-3.8501,-3.8538,-3.8523,-3.8523,-3.8502,-3.8216,-3.8244,-3.8368,-3.8409,-3.8245,-3.8672,-3.9588,-3.9992,-4.0305,-4.0944,-4.1405,-4.1481,-4.1454,-4.1357,-4.1272,-4.1259,-4.1045,-4.0475,-4.0303,-4.0243,-4.0188,-4.0132,-3.9954,-3.9974,-4.005,-4.0062,-4.004,-4.0085,-3.9986,-3.9986,-4.0054,-4.0087,-4.2996,-4.2809,-4.2622,-4.2514,-4.2433,-4.2242,-4.2175,-4.2175,-4.2201,-4.2155,-4.182,-4.0906,-4.072,-4.1186,-4.0332,-4.0205,-4.0612,-4.0771,-4.0525,-4.0321,-4.022,-4.0394,-4.0191,-4.0365,-4.0466,-4.0728,-4.096,-4.1013,-4.1324,-4.1037,-4.0434,-3.9983,-3.9032,-3.863,-3.838,-3.8672,-3.9075,-3.9354,-3.9243,-3.9588,-3.9952,-3.8631,-3.7504,-3.7304,-3.7217,-3.7058,-3.6862,-3.7229,-3.6967,-3.6864,-3.669,-3.658,-3.6391,-3.6442,-3.6253,-3.5859,-3.5722,-3.5665,-3.5473,-3.5272,-3.5489,-3.5368,-3.5385,-3.531,-3.5682,-3.6547,-3.7154,-3.7447,-3.7704,-3.7888,-3.7964,-3.7597,-3.7453,-3.781,-3.8165,-3.8202,-3.824,-3.8329,-3.8329,-3.8315,-3.8315,-3.8323,-3.8331,-3.8435,-3.8413,-3.8532,-3.8649,-3.8677,-3.8794,-3.9384,-3.971,-4.0112,-4.0898,-4.1354,-4.1388,-4.1358,-4.1214,-4.1256,-4.1229,-4.104,-4.0785,-4.0832,-4.0814,-4.0988,-4.0989,-4.0702,-4.0508,-4.054,-4.0504,-4.0451,-4.0163,-4.01,-3.9976,-4.0019,-4.0045,-4.309,-4.293,-4.2662,-4.2433,-4.2242,-4.2133,-4.2092,-4.2092,-4.2092,-4.2092,-4.1961,-4.1105,-4.0844,-4.1381,-4.067,-4.0369,-4.0818,-4.1323,-4.1076,-4.0757,-4.0665,-4.1033,-4.0974,-4.0767,-4.1207,-4.1456,-4.1031,-4.1024,-4.1226,-4.0504,-3.9694,-3.9331,-3.8635,-3.8063,-3.7709,-3.8093,-3.8269,-3.8358,-3.8009,-3.8322,-3.8926,-3.7585,-3.6441,-3.628,-3.5844,-3.567,-3.5516,-3.5828,-3.5878,-3.5935,-3.6206,-3.6255,-3.6223,-3.618,-3.6049,-3.5927,-3.5726,-3.5341,-3.5094,-3.4956,-3.4868,-3.4768,-3.468,-3.4967,-3.4967,-3.5712,-3.5796,-3.6045,-3.6223,-3.6427,-3.6533,-3.632,-3.6761,-3.7208,-3.7491,-3.7606,-3.7962,-3.824,-3.824,-3.824,-3.824,-3.824,-3.8364,-3.8766,-3.8862,-3.9381,-3.9387,-3.9383,-3.9496,-3.9158,-3.948,-3.9711,-4.0359,-4.0842,-4.0917,-4.0955,-4.0993,-4.1067,-4.1055,-4.0975,-4.0825,-4.1181,-4.1406,-4.1242,-4.1222,-4.1293,-4.1166,-4.11,-4.1117,-4.1127,-4.0692,-4.0227,-4.0105,-3.9999,-3.9917,-4.317,-4.309,-4.2743,-4.2433,-4.2092,-4.1912,-4.1856,-4.1856,-4.1731,-4.1647,-4.1506,-4.0947,-4.0493,-4.0452,-4.0452,-4.0307,-4.0386,-4.0843,-4.1009,-4.1126,-4.1191,-4.0884,-4.0983,-4.1378,-4.121,-4.0971,-4.0604,-4.0419,-4.0389,-3.9536,-3.8979,-3.8911,-3.8495,-3.8,-3.8088,-3.8058,-3.786,-3.7719,-3.7475,-3.729,-3.708,-3.668,-3.5967,-3.5281,-3.4738,-3.4324,-3.4123,-3.4218,-3.4695,-3.5135,-3.5819,-3.5952,-3.6094,-3.6038,-3.5978,-3.5915,-3.5756,-3.5456,-3.5278,-3.5078,-3.4936,-3.4818,-3.4731,-3.4693,-3.4693,-3.4763,-3.4801,-3.4812,-3.4981,-3.5165,-3.5279,-3.5432,-3.598,-3.661,-3.6844,-3.7116,-3.7606,-3.8089,-3.8165,-3.8202,-3.8202,-3.8202,-3.8463,-3.8841,-3.9417,-3.994,-4.0251,-4.03,-4.0183,-3.9566,-3.932,-3.9239,-3.94,-3.9834,-4.0185,-4.0328,-4.0336,-4.0545,-4.0549,-4.0676,-4.0862,-4.126,-4.1346,-4.1083,-4.1086,-4.1553,-4.17,-4.1659,-4.169,-4.1692,-4.091,-4.0332,-4.0277,-4.0141,-3.9843,-4.2622,-4.2325,-4.2242,-4.216,-4.1953,-4.124,-4.0873,-4.0745,-4.01,-3.9738,-3.9842,-3.9773,-3.9587,-3.9812,-3.9249,-3.9178,-3.9629,-4.018,-4.0534,-4.0689,-4.0305,-3.9972,-3.997,-4.0331,-3.9883,-3.9738,-3.9694,-3.9519,-3.9329,-3.8599,-3.8069,-3.803,-3.7217,-3.689,-3.6844,-3.6878,-3.6939,-3.6882,-3.6831,-3.6592,-3.6393,-3.6033,-3.5522,-3.5055,-3.4829,-3.4686,-3.4562,-3.4562,-3.4688,-3.4964,-3.5395,-3.5662,-3.584,-3.5993,-3.5899,-3.568,-3.5533,-3.5211,-3.4984,-3.4856,-3.4678,-3.4665,-3.459,-3.459,-3.4635,-3.4635,-3.4542,-3.4154,-3.4354,-3.465,-3.4743,-3.4617,-3.4991,-3.5816,-3.6281,-3.6727,-3.7169,-3.7734,-3.8089,-3.8127,-3.8202,-3.826,-3.8405,-3.8899,-3.9538,-4.0002,-4.0404,-4.0454,-4.0431,-3.9857,-3.9282,-3.9029,-3.8818,-3.876,-3.9096,-3.9349,-3.9463,-3.9728,-4.0065,-4.0266,-4.0678,-4.1302,-4.1325,-4.0976,-4.1516,-4.2145,-4.2195,-4.1936,-4.2065,-4.1901,-4.1001,-4.0417,-4.0407,-4.0067,-3.9594]},{"header":{"parameterUnit":"m.s-1","parameterCategory":1,"la1":31.0,"la2":29.5877,"lo1":-88.7671,"lo2":-86.6584,"dx":0.0162,"dy":0.0185,"nx":115,"ny":88,"refTime":"2022-12-03T18:00:00:Z","depth":0,"parameterNumber":3,"parameterNumberName":"V-component_of_WINDS"},"data":[0.0,0.0,0.0,0.0,0.0,0.0,0.0,0.0,0.0,0.0,0.0,0.0,0.0,0.0,0.0,0.0,0.0,0.0,0.0,0.0,0.0,0.0,0.0,0.0,0.0,0.0,0.0,0.0,0.0,0.0,0.0,0.0,0.0,0.0,0.0,0.0,0.0,0.0,0.0,0.0,0.0,0.0,0.0,0.0,0.0,0.0,0.0,0.0,0.0,0.0,0.0,0.0,0.0,0.0,0.0,0.0,0.0,0.0,0.0,0.0,0.0,0.0,0.0,0.0,0.0,0.0,0.0,0.0,0.0,0.0,0.0,0.0,0.0,0.0,0.0,0.0,0.0,0.0,0.0,0.0,0.0,0.0,0.0,0.0,0.0,0.0,0.0,0.0,0.0,0.0,0.0,0.0,0.0,0.0,0.0,0.0,0.0,0.0,0.0,0.0,0.0,0.0,0.0,0.0,0.0,0.0,0.0,0.0,0.0,0.0,0.0,0.0,0.0,0.0,0.0,0.0,0.0,0.0,0.0,0.0,0.0,0.0,0.0,0.0,0.0,0.0,0.0,0.0,0.0,0.0,0.0,0.0,0.0,0.0,0.0,0.0,0.0,0.0,0.0,0.0,0.0,0.0,0.0,0.0,0.0,0.0,0.0,0.0,0.0,0.0,0.0,0.0,0.0,0.0,0.0,0.0,0.0,0.0,0.0,0.0,0.0,0.0,0.0,0.0,0.0,0.0,0.0,0.0,0.0,0.0,0.0,0.0,0.0,0.0,0.0,0.0,0.0,0.0,0.0,0.0,0.0,0.0,0.0,0.0,0.0,0.0,0.0,0.0,0.0,0.0,0.0,0.0,0.0,0.0,0.0,0.0,0.0,0.0,0.0,0.0,0.0,0.0,0.0,0.0,0.0,0.0,0.0,0.0,0.0,0.0,0.0,0.0,0.0,0.0,0.0,0.0,0.0,0.0,0.0,0.0,0.0,0.0,0.0,0.0,0.0,0.0,0.0,0.0,0.0,0.0,0.0,0.0,0.0,0.0,0.0,0.0,0.0,0.0,0.0,0.0,0.0,0.0,0.0,0.0,0.0,0.0,0.0,0.0,0.0,0.0,0.0,0.0,0.0,0.0,0.0,0.0,0.0,0.0,0.0,0.0,0.0,0.0,0.0,0.0,0.0,0.0,0.0,0.0,0.0,0.0,0.0,0.0,0.0,0.0,0.0,0.0,0.0,0.0,0.0,0.0,0.0,0.0,0.0,0.0,0.0,0.0,0.0,0.0,0.0,0.0,0.0,0.0,0.0,0.0,0.0,0.0,0.0,0.0,0.0,0.0,0.0,0.0,0.0,0.0,0.0,0.0,0.0,0.0,0.0,0.0,0.0,0.0,0.0,0.0,0.0,0.0,0.0,0.0,0.0,0.0,0.0,0.0,0.0,0.0,0.0,0.0,0.0,0.0,0.0,0.0,0.0,0.0,0.0,0.0,0.0,0.0,0.0,0.0,0.0,0.0,0.0,0.0,0.0,0.0,0.0,0.0,0.0,0.0,0.0,0.0,0.0,0.0,0.0,0.0,0.0,0.0,0.0,0.0,0.0,0.0,0.0,0.0,0.0,0.0,0.0,0.0,0.0,0.0,0.0,0.0,0.0,0.0,0.0,0.0,0.0,0.0,0.0,0.0,0.0,0.0,0.0,0.0,0.0,0.0,0.0,0.0,0.0,0.0,0.0,0.0,0.0,0.0,0.0,0.0,0.0,0.0,0.0,0.0,0.0,0.0,0.0,0.0,0.0,0.0,0.0,0.0,0.0,0.0,0.0,0.0,0.0,0.0,0.0,0.0,0.0,0.0,0.0,0.0,0.0,0.0,0.0,0.0,0.0,0.0,0.0,0.0,0.0,0.0,0.0,0.0,0.0,0.0,0.0,0.0,0.0,0.0,0.0,0.0,0.0,0.0,0.0,0.0,0.0,0.0,0.0,0.0,0.0,0.0,0.0,0.0,0.0,0.0,0.0,0.0,0.0,0.0,0.0,0.0,0.0,0.0,0.0,0.0,0.0,0.0,0.0,0.0,0.0,0.0,0.0,0.0,0.0,0.0,0.0,0.0,0.0,0.0,0.0,0.0,0.0,0.0,0.0,0.0,0.0,0.0,0.0,0.0,0.0,0.0,0.0,0.0,0.0,0.0,0.0,0.0,0.0,0.0,0.0,0.0,0.0,0.0,0.0,0.0,0.0,0.0,0.0,0.0,0.0,0.0,0.0,0.0,0.0,0.0,0.0,0.0,0.0,0.0,0.0,0.0,0.0,0.0,0.0,0.0,0.0,0.0,0.0,0.0,0.0,0.0,0.0,0.0,0.0,0.0,0.0,0.0,0.0,0.0,0.0,0.0,0.0,0.0,0.0,0.0,0.0,0.0,0.0,0.0,0.0,0.0,0.0,0.0,0.0,0.0,0.0,0.0,0.0,0.0,0.0,0.0,0.0,0.0,0.0,0.0,0.0,0.0,0.0,0.0,0.0,0.0,0.0,0.0,0.0,0.0,0.0,0.0,0.0,0.0,0.0,0.0,0.0,0.0,0.0,0.0,0.0,0.0,0.0,0.0,0.0,0.0,0.0,0.0,0.0,0.0,0.0,0.0,0.0,0.0,0.0,0.0,0.0,0.0,0.0,0.0,0.0,0.0,0.0,0.0,0.0,0.0,0.0,0.0,0.0,0.0,0.0,0.0,0.0,0.0,0.0,0.0,0.0,0.0,0.0,0.0,0.0,0.0,0.0,0.0,0.0,0.0,0.0,0.0,0.0,0.0,0.0,0.0,0.0,0.0,0.0,0.0,0.0,0.0,0.0,0.0,0.0,0.0,0.0,0.0,0.0,0.0,0.0,0.0,0.0,0.0,0.0,0.0,0.0,0.0,0.0,0.0,0.0,0.0,0.0,0.0,0.0,0.0,0.0,0.0,0.0,0.0,0.0,0.0,0.0,0.0,0.0,0.0,0.0,0.0,0.0,0.0,0.0,0.0,0.0,0.0,0.0,0.0,0.0,0.0,0.0,0.0,0.0,0.0,0.0,0.0,0.0,0.0,0.0,0.0,0.0,0.0,0.0,0.0,0.0,0.0,0.0,0.0,0.0,0.0,0.0,0.0,0.0,0.0,0.0,0.0,0.0,0.0,0.0,0.0,0.0,0.0,0.0,0.0,0.0,0.0,0.0,0.0,0.0,0.0,0.0,0.0,0.0,0.0,0.0,0.0,0.0,0.0,0.0,0.0,0.0,0.0,0.0,0.0,0.0,0.0,0.0,0.0,0.0,0.0,0.0,0.0,0.0,0.0,0.0,0.0,0.0,0.0,0.0,0.0,0.0,0.0,0.0,0.0,0.0,0.0,0.0,0.0,0.0,0.0,0.0,0.0,0.0,0.0,0.0,0.0,0.0,0.0,0.0,0.0,0.0,0.0,0.0,0.0,0.0,0.0,0.0,0.0,0.0,0.0,0.0,0.0,0.0,0.0,0.0,0.0,0.0,0.0,0.0,0.0,0.0,0.0,0.0,0.0,0.0,0.0,0.0,0.0,0.0,0.0,0.0,0.0,0.0,0.0,0.0,0.0,0.0,0.0,0.0,0.0,0.0,0.0,0.0,0.0,0.0,0.0,0.0,0.0,0.0,0.0,0.0,0.0,0.0,0.0,0.0,0.0,0.0,0.0,0.0,0.0,0.0,0.0,0.0,0.0,0.0,0.0,0.0,0.0,0.0,0.0,0.0,0.0,0.0,0.0,0.0,0.0,0.0,0.0,0.0,0.0,0.0,0.0,0.0,0.0,0.0,0.0,0.0,0.0,0.0,0.0,0.0,0.0,0.0,0.0,0.0,0.0,0.0,0.0,0.0,0.0,0.0,0.0,0.0,0.0,0.0,0.0,0.0,0.0,0.0,0.0,0.0,0.0,0.0,0.0,0.0,0.0,0.0,0.0,0.0,0.0,0.0,0.0,0.0,0.0,0.0,0.0,0.0,0.0,0.0,0.0,0.0,0.0,0.0,0.0,0.0,0.0,0.0,0.0,0.0,0.0,0.0,0.0,0.0,0.0,0.0,0.0,0.0,0.0,0.0,0.0,0.0,0.0,0.0,0.0,0.0,0.0,0.0,0.0,0.0,0.0,0.0,0.0,0.0,0.0,0.0,0.0,0.0,0.0,0.0,0.0,0.0,0.0,0.0,0.0,0.0,0.0,0.0,0.0,0.0,0.0,0.0,0.0,0.0,0.0,0.0,0.0,0.0,0.0,0.0,0.0,0.0,0.0,0.0,0.0,0.0,0.0,0.0,0.0,0.0,0.0,0.0,0.0,0.0,0.0,0.0,0.0,0.0,0.0,0.0,0.0,0.0,0.0,0.0,0.0,0.0,0.0,0.0,0.0,0.0,0.0,0.0,0.0,0.0,0.0,0.0,0.0,0.0,0.0,0.0,0.0,0.0,0.0,0.0,0.0,0.0,0.0,0.0,0.0,0.0,0.0,0.0,0.0,0.0,0.0,0.0,0.0,0.0,0.0,0.0,0.0,0.0,0.0,0.0,0.0,0.0,0.0,0.0,0.0,0.0,0.0,0.0,0.0,0.0,0.0,0.0,0.0,0.0,0.0,0.0,0.0,0.0,0.0,0.0,0.0,0.0,0.0,0.0,0.0,0.0,0.0,0.0,0.0,0.0,0.0,0.0,0.0,0.0,0.0,0.0,0.0,0.0,0.0,0.0,0.0,0.0,0.0,0.0,0.0,0.0,0.0,0.0,0.0,0.0,0.0,0.0,0.0,0.0,0.0,0.0,0.0,0.0,0.0,0.0,0.0,0.0,0.0,0.0,0.0,0.0,0.0,0.0,0.0,0.0,0.0,0.0,0.0,0.0,0.0,0.0,0.0,0.0,0.0,0.0,0.0,0.0,0.0,0.0,0.0,0.0,0.0,0.0,0.0,0.0,0.0,0.0,0.0,0.0,0.0,0.0,0.0,0.0,0.0,0.0,0.0,0.0,0.0,0.0,0.0,0.0,0.0,0.0,0.0,0.0,0.0,0.0,0.0,0.0,0.0,0.0,0.0,0.0,0.0,0.0,0.0,0.0,0.0,0.0,0.0,0.0,0.0,0.0,0.0,0.0,0.0,0.0,0.0,0.0,0.0,0.0,0.0,0.0,0.0,0.0,0.0,0.0,0.0,0.0,0.0,0.0,0.0,0.0,0.0,0.0,0.0,0.0,0.0,0.0,0.0,0.0,0.0,0.0,0.0,0.0,0.0,0.0,0.0,0.0,0.0,0.0082,0.0039,0.0019,0.0,0.0,0.0,0.0,0.0,0.0,0.0,0.0,0.0,0.0,0.0,0.0,0.0,0.0,0.0,0.0,0.0,0.0,0.0,0.0,0.0,0.0,0.0,0.0,0.0,0.0,0.0,0.0,0.0,0.0,0.0,0.0,0.0,0.0,0.0,0.0,0.0,0.0,0.0,0.0,0.0,0.0,0.0,0.0,0.0,0.0,0.0,0.0,0.0,0.0,0.0,0.0,0.0,0.0,0.0,0.0,0.0,0.0,0.0,0.0,0.0,0.0,0.0,0.0,0.0,0.0,0.0,0.0,0.0,0.0,0.0,0.0,0.0,0.0,0.0,0.0,0.0,0.0,0.0,0.0,0.0,0.0,0.0,0.0,0.0,0.0,0.0,0.0,0.0,0.0,0.0,0.0,0.0,0.0,0.0,0.0,0.0,0.0,0.0,0.0,0.0,0.0,0.0,0.0,0.0,0.0,0.0,0.0,0.0,0.0,0.036,0.0359,0.0309,0.0,0.0103,0.0,0.0,0.0,0.0,0.0,0.0,0.0,0.0,0.0,0.0,0.0,0.0,0.0,0.0,0.0,0.0,0.0,0.0,0.0,0.0,0.0,0.0,0.0,0.0,0.0,0.0,0.0,0.0,0.0,0.0,0.0,0.0,0.0,0.0,0.0,0.0,0.0,0.0,0.0,0.0,0.0,0.0,0.0,0.0,0.0,0.0,0.0,0.0,0.0,0.0,0.0,0.0,0.0,0.0,0.0,0.0,0.0,0.0,0.0,0.0,0.0,0.0,0.0,0.0,0.0,0.0,0.0,0.0,0.0,0.0,0.0,0.0,0.0,0.0,0.0,0.0,0.0,0.0,0.0,0.0,0.0,0.0,0.0,0.0,0.0,0.0,0.0,0.0,0.0,0.0,0.0,0.0,0.0,0.0,0.0,0.0,0.0,0.0,0.0,0.0,0.0,0.0,0.0,0.0,0.0,0.0,0.0,0.0,0.0,0.0,0.0405,0.0405,0.033,0.0262,0.0,0.0,0.0,0.0,0.0,0.0,0.0,0.0,0.0,0.0,0.0,0.0,0.0,0.0,0.0,0.0,0.0,0.0,0.0,0.0,0.0,0.0,0.0,0.0,0.0,0.0,0.0,0.0,0.0,0.0,0.0,0.0,0.0,0.0,0.0,0.0,0.0,0.0,0.0,0.0,0.0,0.0,0.0,0.0,0.0,0.0,0.0,0.0,0.0,0.0,0.0,0.0,0.0,0.0,0.0,0.0,0.0,0.0,0.0,0.0,0.0,0.0,0.0,0.0,0.0,0.0,0.0,0.0,0.0,0.0,0.0,0.0,0.0,0.0,0.0,0.0,0.0,0.0,0.0,0.0,0.0,0.0,0.0,0.0,0.0,0.0,0.0,0.0,0.0,0.0,0.0,0.0,0.0,0.0,0.0,0.0,0.0,0.0,0.0,0.0,0.0,0.0,0.0,0.0,0.0,0.0,0.0,0.0,0.0,0.0,0.0494,0.0559,0.0551,0.0492,0.0415,0.0379,0.0,0.0,0.0,0.0,0.0,0.0,0.0,0.0,0.0,0.0,0.0,0.0,0.0,0.0,0.0,0.0,0.0,0.0,0.0,0.0,0.0,0.0,0.0,0.0,0.0,0.0,0.0,0.0,0.0,0.0,0.0,0.0,0.0,0.0,0.0,0.0,0.0,0.0,0.0,0.0,0.0,0.0,0.0,0.0,0.0,0.0,0.0,0.0,0.0,0.0,0.0,0.0,0.0,0.0,0.0,0.0,0.0,0.0,0.0,0.0,0.0,0.0,0.0,0.0,0.0,0.0,0.0,0.0,0.0,0.0,0.0,0.0,0.0,0.0,0.0,0.0,0.0,0.0,0.0,0.0,0.0,0.0,0.0,0.0,0.0,0.0,0.0,0.0,0.0,0.0,0.0,0.0,0.0,0.0,0.0,0.0,0.0,0.0,0.0,0.0,0.0,0.0,0.0,0.0,0.0,0.0,0.0,0.0,0.0494,0.0742,0.0905,0.0953,0.0867,0.071,0.0,0.0,0.0,0.0,0.0,0.0,0.0,0.0,0.0,0.0,0.0,0.0,0.0,0.0,0.0,0.0,0.0,0.0,0.0,0.0,0.0,0.0,0.0,0.0,0.0,0.0,0.0,0.0,0.0,0.0,0.0,0.0,0.0,0.0,0.0,0.0,0.0,0.0,0.0,0.0,0.0,0.0,0.0,0.0,0.0,0.0,0.0,0.0,0.0,0.0,0.0,0.0,0.0,0.0,0.0,0.0,0.0,0.0,0.0,0.0,0.0,0.0,0.0,0.0,0.0,0.0,0.0,0.0,0.0,0.0,0.0,0.0,0.0,0.0,0.0,0.0,0.0,0.0,0.0,0.0,0.0,0.0,0.0,0.0,0.0,0.0,0.0,0.0,0.0,0.0,0.0,0.0,0.0,0.0,0.0,0.0,0.0,0.0,0.0,0.0,0.0,0.0,0.0,0.0,0.0,0.0,0.0,0.0,0.0,0.0742,0.101,0.1143,0.1135,0.1026,0.0903,0.0,0.0,0.0,0.0,0.0,0.0,0.0,0.0,0.0,0.0,0.0,0.0,0.0,0.0,0.0,0.0,0.0,0.0,0.0,0.0,0.0,0.0,0.0,0.0,0.0,0.0,0.0,0.0,0.0,0.0,0.0,0.0,0.0,0.0,0.0,0.0,0.0,0.0,0.0,0.0,0.0,0.0,0.0,0.0,0.0,0.0,0.0,0.0,0.0,0.0,0.0,0.0,0.0,0.0,0.0,0.0,0.0,0.0,0.0,0.0,0.0,0.0,0.0,0.0,0.0,0.0,0.0,0.0,0.0,0.0,0.0,0.0,0.0,0.0,0.0,0.0,0.0,0.0,0.0,0.0,0.0,0.0,0.0,0.0,0.0,0.0,0.0,0.0,0.0,0.0,0.0,0.0,0.0,0.0,0.0,0.0,0.0,0.0,0.0,0.0,0.0,0.0,0.0,0.0,0.0,0.0,0.0,0.0,0.0,0.1056,0.1278,0.1392,0.1395,0.1316,0.1179,0.0,0.0,0.0,0.0,0.0,0.0,0.0,0.0,0.0,0.0,0.0,0.0,0.0,0.0,0.0,0.0,0.0,0.0,0.0,0.0,0.0,0.0,0.0,0.0,0.0,0.0,0.0,0.0,0.0,0.0,0.0,0.0,0.0,0.0,0.0,0.0,0.0,0.0,0.0,0.0,0.0,0.0,0.0,0.0,0.0,0.0,0.0,0.0,0.0,0.0,0.0,0.0,0.0,0.0,0.0,0.0,0.0,0.0,0.0,0.0,0.0,0.0,0.0,0.0,0.0,0.0,0.0,0.0,0.0,0.0,0.0,0.0,0.0,0.0,0.0,0.0,0.0,0.0,0.0,0.0,0.0,0.0,0.0,0.0,0.0,0.0,0.0,0.0,0.0,0.0,0.0,0.0,0.0,0.0,0.0,0.0,0.0,0.0,0.0,0.0,0.0,0.0,0.0,0.0,0.0,0.0,0.0,0.0,0.1079,0.1414,0.1549,0.1689,0.1817,0.1678,0.1502,0.0,0.0,0.0,0.0,0.0,0.0,0.0,0.0,0.0,0.0,0.0,0.0,0.0,0.0,0.0,0.0,0.0,0.0,0.0,0.0,0.0,0.0,0.0,0.0,0.0,0.0,0.0,0.0,0.0,0.0,0.0,0.0,0.0,0.0,0.0,0.0,0.0,0.0,0.0,0.0,0.0,0.0,0.0,0.0,0.0,0.0,0.0,0.0,0.0,0.0,0.0,0.0,0.0,0.0,0.0,0.0,0.0,0.0,0.0,0.0,0.0,0.0,0.0,0.0,0.0,0.0,0.0,0.0,0.0,0.0,0.0,0.0,0.0,0.0,0.0,0.0,0.0,0.0,0.0,0.0,0.0,0.0,0.0,0.0,0.0,0.0,0.0,0.0,0.0,0.0,0.0,0.0,0.0,0.0,0.0,0.0,0.0,0.0,0.0,0.0,0.0,0.0,0.0,0.0,0.0,0.0,0.0,0.0,0.0,0.2009,0.2159,0.2287,0.2404,0.2164,0.1893,0.0,0.0,0.0,0.0,0.0,0.0,0.0,0.0,0.0,0.0,0.0,0.0,0.0,0.0,0.0,0.0,0.0,0.0,0.0,0.0,0.0,0.0,0.0,0.0,0.0,0.0,0.0,0.0,0.0,0.0,0.0,0.0,0.0,0.0,0.0,0.0,0.0,0.0,0.0,0.0,0.0,0.0,0.0,0.0,0.0,0.0,0.0,0.0,0.0,0.0,0.0,0.0,0.0,0.0,0.0,0.0,0.0,0.0,0.0,0.0,0.0,0.0,0.0,0.0,0.0,0.0,0.0,0.0,0.0,0.0,0.0,0.0,0.0,0.0,0.0,0.0,0.0,0.0,0.0,0.0,0.0,0.0,0.0,0.0,0.0,0.0,0.0,0.0,0.0,0.0,0.0,0.0,0.0,0.0,0.0,0.0,0.0,0.0,0.0,0.0,0.0,0.0,0.0,0.0,0.0,0.0,0.0,0.0,0.0,0.2684,0.2685,0.2706,0.2775,0.2607,0.2362,0.2047,0.0,0.0,0.0,0.0,0.0,0.0,0.0,0.0,0.0,0.0,0.0,0.0,0.0,0.0,0.0,0.0,0.0,0.0,0.0,0.0,0.0,0.0,0.0,0.0,0.0,0.0,0.0,0.0,0.0,0.0,0.0,0.0,0.0,0.0,0.0,0.0,0.0,0.0,0.0,0.0,0.0,0.0,0.0,0.0,0.0,0.0,0.0,0.0,0.0,0.0,0.0,0.0,0.0,0.0,0.0,0.0,0.0,0.0,0.0,0.0,0.0,0.0,0.0,0.0,0.0,0.0,0.0,0.0,0.0,0.0,0.0,0.0,0.0,0.0,0.0,0.0,0.0,0.0,0.0,0.0,0.0,0.0,0.0,0.0,0.0,0.0,0.0,0.0,0.0,0.0,0.0,0.0,0.0,0.0,0.0,0.0,0.0,0.0,0.0,0.0,0.0,0.0,0.0,0.0,0.0,0.0,0.0,0.0,0.3396,0.3162,0.3018,0.2973,0.2992,0.286,0.0,0.0,0.0,0.0,0.0,0.0,0.0,0.0,0.0,0.0,0.0,0.0,0.0,0.0,0.0,0.0,0.0,0.0,0.0,0.0,0.0,0.0,0.0,0.0,0.0,0.0,0.0,0.0,0.0,0.0,0.0,0.0,0.0,0.0,0.0,0.0,0.0,0.0,0.0,0.0,0.0,0.0,0.0,0.0,0.0,0.0,0.0,0.0,0.0,0.0,0.0,0.0,0.0,0.0,0.0,0.0,0.0,0.0,0.0,0.0,0.0,0.0,0.0,0.0,0.0,0.0,0.0,0.0,0.0,0.0,0.0,0.0,0.0,0.0,0.0,0.0,0.0,0.0,0.0,0.0,0.0,0.0,0.0,0.0,0.0,0.0,0.0,0.0,0.0,0.0,0.0,0.0,0.0,0.0,0.0,0.0,0.0,0.0,0.0,0.0,0.0,0.0,0.0,0.0,0.0,0.0,0.0,0.0,0.0,0.3482,0.3705,0.3751,0.3635,0.3414,0.3165,0.0,0.0,0.0,0.0,0.0,0.0,0.0,0.0,0.0,0.0,0.0,0.0,0.0,0.0,0.0,0.0,0.0,0.0,0.0,0.0,0.0,0.0,0.0,0.0,0.0,0.0,0.0,0.0,0.0,0.0,0.0,0.0,0.0,0.0,0.0,0.0,0.0,0.0,0.0,0.0,0.0,0.0,0.0,0.0,0.0,0.0,0.0,0.0,0.0,0.0,0.0,0.0,0.0,0.0,0.0,0.0,0.0,0.0,0.0,0.0,0.0,0.0,0.0,0.0,0.0,0.0,0.0,0.0,0.0,0.0,0.0,0.0,0.0,0.0,0.0,0.0,0.0,0.0,0.0,0.0,0.0,0.0,0.0,0.0,0.0,0.0,0.0,0.0,0.0,0.0,0.0,0.0,0.0,0.0,0.0,0.0,0.0,0.0,0.0,0.0,0.0,0.0,0.0,0.0,0.0,0.0,0.0,0.0,0.3621,0.3757,0.4125,0.4256,0.4059,0.3767,0.3482,0.0,0.0,0.0,0.0,0.0,0.0,0.0,0.0,0.0,0.0,0.0,0.0,0.0,0.0,0.0,0.0,0.0,0.0,0.0,0.0,0.0,0.0,0.0,0.0,0.0,0.0,0.0,0.0,0.0,0.0,0.0,0.0,0.0,0.0,0.0,0.0,0.0,0.0,0.0,0.0,0.0,0.0,0.0,0.0,0.0,0.0,0.0,0.0,0.0,0.0,0.0,0.0,0.0,0.0,0.0,0.0,0.0,0.0,0.0,0.0,0.0,0.0,0.0,0.0,0.0,0.0,0.0,0.0,0.0,0.0,0.0,0.0,0.0,0.0,0.0,0.0,0.0,0.0,0.0,0.0,0.0,0.0,0.0,0.0,0.0,0.0,0.0,0.0,0.0,0.0,0.0,0.0,0.0,0.0,0.0,0.0,0.0,0.0,0.0,0.0,0.0,0.0,0.0,0.0,0.0,0.0,0.0,0.0,0.3942,0.4113,0.4429,0.4498,0.4295,0.4046,0.3762,0.0,0.0,0.0,0.0,0.0,0.0,0.0,0.0,0.0,0.0,0.0,0.0,0.0,0.0,0.0,0.0,0.0,0.0,0.0,0.0,0.0,0.0,0.0,0.0,0.0,0.0,0.0,0.0,0.0,0.0,0.0,0.0,0.0,0.0,0.0,0.0,0.0,0.0,0.0,0.0,0.0,0.0,0.0,0.0,0.0,0.0,0.0,0.0,0.0,0.0,0.0,0.0,0.0,0.0,0.0,0.0,0.0,0.0,0.0,0.0,0.0,0.0,0.0,0.0,0.0,0.0,0.0,0.0,0.0,0.0,0.0,0.0,0.0,0.0,0.0,0.0,0.0,0.0,0.0,0.0,0.0,0.0,0.0,0.0,0.0,0.0,0.0,0.0,0.0,0.0,0.0,0.0,0.0,0.0,0.0,0.0,0.0,0.0,0.0,0.0,0.0,0.0,0.0,0.0,0.0,0.0,0.0,0.0,0.4304,0.4345,0.4495,0.4498,0.4298,0.4156,0.3952,0.0,0.0,0.0,0.0,0.0,0.0,0.0,0.0,0.0,0.0,0.0,0.0,0.0,0.0,0.0,0.0,0.0,0.0,0.0,0.0,0.0,0.0,0.0,0.0,0.0,0.0,0.0,0.0,0.0,0.0,0.0,0.0,0.0,0.0,0.0,0.0,0.0,0.0,0.0,0.0,0.0,0.0,0.0,0.0,0.0,0.0,0.0,0.0,0.1605,0.0,0.0,0.0,0.0,0.0,0.0,0.0,0.0,0.0,0.0,0.0,0.0,0.0,0.0,0.0,0.0,0.0,0.0,0.0,0.0,0.0,0.0,0.0,0.0,0.0,0.0,0.0,0.0,0.0,0.0,0.0,0.0,0.0,0.0,0.0,0.0,0.0,0.0,0.0,0.0,0.0,0.0,0.0,0.0,0.0,0.0,0.0,0.0,0.0,0.0,0.0,0.0,0.0,0.0,0.0,0.0,0.0,0.0,0.0,0.4647,0.474,0.4821,0.4788,0.4676,0.4615,0.4307,0.0,0.0,0.0,0.0,0.0,0.0,0.0,0.0,0.0,0.0,0.0,0.0,0.0,0.0,0.0,0.0,0.0,0.0,0.0,0.0,0.0,0.0,0.0,0.0,0.0,0.0,0.0,0.0,0.0,0.0,0.0,0.0,0.0,0.0,0.0,0.0,0.0,0.0,0.0,0.0,0.0,0.0,0.0,0.0,0.0,0.0,0.0,0.0,0.0,0.0,0.0,0.0,0.0,0.0,0.0,0.0,0.0,0.0,0.0,0.0,0.0,0.0,0.0,0.0,0.0,0.0,0.0,0.0,0.0,0.0,0.0,0.0,0.0,0.0,0.0,0.0,0.0,0.0,0.0,0.0,0.0,0.0,0.0,0.0,0.0,0.0,0.0,0.0,0.0,0.0,0.0,0.0,0.0,0.0,0.0,0.0,0.0,0.0,0.0,0.0,0.0,0.0,0.0,0.0,0.0,0.0,0.0,0.492,0.5279,0.5477,0.5326,0.5255,0.5293,0.5164,0.4716,0.3918,0.0,0.0,0.0,0.0,0.0,0.0,0.0,0.0,0.0,0.0,0.0,0.0,0.0,0.0,0.0,0.0,0.0,0.0,0.0,0.0,0.0,0.0,0.0,0.0,0.0,0.0,0.0,0.0,0.0,0.0,0.0,0.0,0.0,0.0,0.0,0.0,0.0,0.0,0.1372,0.1818,0.0,0.0,0.0,0.0,0.0,0.0,0.0,0.0,0.2872,0.0,0.0,0.0,0.0,0.0,0.0,0.0,0.0,0.0,0.0,0.0,0.0,0.0,0.0,0.0,0.0,0.0,0.0,0.0,0.0,0.0,0.0,0.0,0.0,0.0,0.0,0.0,0.0,0.0,0.0,0.0,0.0,0.0,0.0,0.0,0.0,0.0,0.0,0.0,0.0,0.0,0.0,0.0,0.0,0.0,0.0,0.0,0.0,0.0,0.0,0.0,0.0,0.0,0.0,0.0,0.0,0.569,0.6176,0.6673,0.7183,0.6356,0.5989,0.607,0.5406,0.4797,0.4321,0.0,0.0,0.0,0.0,0.0,0.0,0.0,0.0,0.0,0.0,0.0,0.0,0.0,0.0,0.0,0.0,0.0,0.0,0.0,0.0,0.0,0.0,0.0,0.0,0.0,0.0,0.0,0.0,0.0,0.0,0.0,0.0,0.0,0.0,0.0,0.0,0.0,0.0,0.0,0.2404,0.2559,0.0,0.0,0.0,0.0,0.0,0.0,0.0,0.0,0.3318,0.0,0.0,0.0,0.0,0.0,0.0,0.0,0.0,0.0,0.0,0.0,0.0,0.0,0.0,0.0,0.0,0.0,0.0,0.0,0.0,0.0,0.0,0.0,0.0,0.0,0.0,0.0,0.0,0.0,0.0,0.0,0.0,0.0,0.0,0.0,0.0,0.0,0.0,0.0,0.0,0.0,0.0,0.0,0.0,0.0,0.0,0.0,0.0,0.0,0.0,0.0,0.0,0.0,0.0,0.0,0.6129,0.6879,0.7475,0.7822,0.7145,0.6931,0.7211,0.6414,0.5701,0.0,0.0,0.0,0.0,0.0,0.0,0.0,0.0,0.0,0.0,0.0,0.0,0.0,0.0,0.0,0.0,0.0,0.0,0.0,0.0,0.0,0.0,0.0,0.0,0.0,0.0,0.0,0.0,0.0,0.0,0.0,0.0,0.0,0.0,0.0,0.0,0.0,0.0,0.0,0.0,0.2904,0.3134,0.3431,0.0,0.0,0.0,0.0,0.0,0.0,0.3892,0.3667,0.0,0.0,0.0,0.0,0.0,0.0,0.0,0.0,0.0,0.0,0.0,0.0,0.0,0.0,0.0,0.0,0.0,0.0,0.0,0.0,0.0,0.0,0.0,0.0,0.0,0.0,0.0,0.0,0.0,0.0,0.0,0.0,0.0,0.0,0.0,0.0,0.0,0.0,0.0,0.0,0.0,0.0,0.0,0.0,0.0,0.0,0.0,0.0,0.0,0.0,0.0,0.0,0.0,0.0,0.0,0.6571,0.7641,0.8319,0.8504,0.802,0.7976,0.8308,0.7428,0.6622,0.0,0.0,0.0,0.0,0.0,0.0,0.0,0.0,0.0,0.0,0.0,0.0,0.0,0.0,0.0,0.0,0.0,0.0,0.0,0.0,0.0,0.0,0.0,0.0,0.0,0.0,0.0,0.0,0.0,0.0,0.0,0.0,0.0,0.0,0.0,0.0,0.0,0.0,0.0,0.0,0.0,0.3591,0.3943,0.4159,0.0,0.0,0.0,0.0,0.4661,0.4317,0.0,0.0,0.0,0.0,0.0,0.0,0.0,0.0,0.0,0.0,0.0,0.0,0.0,0.0,0.0,0.0,0.0,0.0,0.0,0.0,0.0,0.0,0.0,0.0,0.0,0.0,0.0,0.0,0.0,0.0,0.0,0.0,0.0,0.0,0.0,0.0,0.0,0.0,0.0,0.0,0.0,0.0,0.0,0.0,0.0,0.0,0.0,0.0,0.0,0.0,0.0,0.0,0.0,0.0,0.0,0.0,0.7814,0.8958,0.9713,1.0008,0.9401,0.9123,0.9136,0.7936,0.6909,0.0,0.0,0.0,0.0,0.0,0.0,0.0,0.0,0.0,0.0,0.0,0.0,0.0,0.0,0.0,0.0,0.0,0.0,0.0,0.0,0.0,0.0,0.0,0.0,0.0,0.0,0.0,0.0,0.0,0.0,0.0,0.0,0.0,0.0,0.0,0.0,0.0,0.0,0.0,0.0,0.0,0.3811,0.3967,0.4264,0.4463,0.0,0.0,0.4797,0.4718,0.4732,0.0,0.0,0.0,0.0,0.0,0.0,0.0,0.0,0.0,0.0,0.0,0.0,0.0,0.0,0.0,0.0,0.0,0.0,0.0,0.0,0.0,0.0,0.0,0.0,0.0,0.0,0.0,0.0,0.0,0.0,0.0,0.0,0.0,0.0,0.0,0.0,0.0,0.0,0.0,0.0,0.0,0.0,0.0,0.0,0.0,0.0,0.0,0.0,0.0,0.0,0.0,0.0,0.0,0.0,0.0,0.7538,0.8022,0.9536,1.0307,1.0298,1.0014,0.9875,0.9875,0.8798,0.7802,0.0,0.0,0.0,0.0,0.0,0.0,0.0,0.0,0.0,0.0,0.0,0.0,0.0,0.0,0.0,0.0,0.0,0.0,0.0,0.0,0.0,0.0,0.0,0.0,0.0,0.0,0.0,0.0,0.0,0.0,0.0,0.0,0.0,0.0,0.0,0.0,0.0,0.0,0.0,0.0,0.0,0.0,0.429,0.4624,0.0,0.0,0.0,0.5046,0.5098,0.0,0.0,0.0,0.0,0.0,0.0,0.0,0.0,0.0,0.0,0.0,0.0,0.0,0.0,0.0,0.0,0.0,0.0,0.0,0.0,0.0,0.0,0.0,0.0,0.0,0.0,0.0,0.0,0.0,0.0,0.0,0.0,0.0,0.0,0.0,0.0,0.0,0.0,0.0,0.0,0.0,0.0,0.0,0.0,0.0,0.0,0.0,0.0,0.0,0.0,0.0,0.0,0.0,0.0,0.0,0.0,0.0,0.8313,0.9968,1.0689,1.0532,1.0526,1.0454,1.0388,0.9645,0.0,0.0,0.0,0.0,0.0,0.0,0.0,0.0,0.0,0.0,0.0,0.0,0.0,0.0,0.0,0.0,0.0,0.0,0.0,0.0,0.0,0.0,0.0,0.0,0.0,0.0,0.0,0.2148,0.0,0.0,0.0,0.0,0.0,0.0,0.0,0.0,0.0,0.0,0.0,0.0,0.0,0.0,0.4335,0.4643,0.4974,0.5262,0.0,0.0,0.5245,0.5291,0.5152,0.4931,0.0,0.0,0.0,0.0,0.0,0.0,0.0,0.0,0.0,0.0,0.0,0.0,0.0,0.0,0.0,0.0,0.0,0.0,0.0,0.0,0.0,0.0,0.0,0.0,0.0,0.0,0.0,0.0,0.0,0.0,0.0,0.0,0.0,0.0,0.0,0.0,0.0,0.0,0.0,0.0,0.0,0.0,0.0,0.0,0.0,0.0,0.0,0.0,0.0,0.0,0.0,0.0,0.0,0.0,0.8477,0.9153,1.039,1.1069,1.102,1.1057,1.0906,1.0671,1.0288,0.9427,0.0,0.0,0.0,0.0,0.0,0.0,0.0,0.0,0.0,0.0,0.0,0.0,0.0,0.0,0.0,0.0,0.0,0.0,0.0,0.0,0.0,0.0,0.0,0.0,0.0,0.0,0.0,0.0,0.0,0.0,0.0,0.0,0.0,0.0,0.0,0.0,0.0,0.0,0.0,0.0,0.0,0.47,0.4864,0.5254,0.5507,0.0,0.551,0.5454,0.5169,0.5254,0.5201,0.4761,0.0,0.0,0.0,0.0,0.0,0.0,0.0,0.0,0.0,0.0,0.0,0.0,0.0,0.0,0.0,0.0,0.0,0.0,0.0,0.0,0.0,0.0,0.0,0.0,0.0,0.0,0.0,0.0,0.0,0.0,0.0,0.0,0.0,0.0,0.0,0.0,0.0,0.0,0.0,0.0,0.0,0.0,0.0,0.0,0.0,0.0,0.0,0.0,0.0,0.0,0.0,0.0,0.0,0.8528,0.898,1.0378,1.0996,1.0888,1.1021,1.1057,1.0924,1.0438,0.9628,0.0,0.0,0.0,0.0,0.0,0.0,0.0,0.0,0.0,0.0,0.0,0.0,0.0,0.0,0.0,0.0,0.0,0.0,0.0,0.0,0.0,0.0,0.0,0.0,0.0,0.0,0.0,0.0,0.3155,0.321,0.3257,0.0,0.0,0.0,0.0,0.0,0.0,0.0,0.0,0.0,0.0,0.5706,0.5866,0.609,0.0,0.0,0.5964,0.5545,0.5423,0.5416,0.5291,0.4986,0.4848,0.0,0.0,0.0,0.0,0.0,0.0,0.0,0.0,0.0,0.0,0.0,0.0,0.0,0.0,0.0,0.0,0.0,0.0,0.0,0.0,0.0,0.0,0.0,0.0,0.0,0.0,0.6599,0.6725,0.0,0.0,0.0,0.0,0.0,0.0,0.0,0.0,0.0,0.0,0.0,0.0,0.0,0.0,0.0,0.0,0.0,0.0,0.0,0.0,0.0,0.0,0.0,0.0,0.8715,0.9077,1.0402,1.1026,1.093,1.1057,1.1148,1.122,1.0659,0.9995,0.9223,0.0,0.0,0.0,0.0,0.0,0.0,0.0,0.0,0.0,0.0,0.0,0.0,0.0,0.0,0.0,0.0,0.0,0.0,0.0,0.0,0.0,0.0,0.0,0.0,0.0,0.0,0.0,0.3536,0.355,0.3466,0.0,0.0,0.0,0.0,0.0,0.0,0.0,0.0,0.0,0.0,0.6651,0.6695,0.682,0.6863,0.6849,0.6239,0.5762,0.5627,0.5498,0.5358,0.5216,0.0,0.0,0.0,0.0,0.0,0.0,0.0,0.0,0.0,0.0,0.0,0.0,0.0,0.0,0.0,0.0,0.0,0.0,0.0,0.0,0.0,0.0,0.0,0.0,0.0,0.0,0.0,0.7524,0.0,0.0,0.8211,0.0,0.0,0.0,0.0,0.0,0.0,0.0,0.0,0.0,0.0,0.0,0.0,0.0,0.0,0.0,0.0,0.0,0.0,0.0,0.0,0.0,0.0,0.9163,0.9673,1.0635,1.1238,1.1486,1.125,1.125,1.1498,1.1144,1.0687,1.0083,0.0,0.0,0.0,0.0,0.0,0.0,0.0,0.0,0.0,0.0,0.0,0.0,0.0,0.0,0.0,0.0,0.0,0.0,0.0,0.0,0.0,0.0,0.0,0.0,0.0,0.0,0.4053,0.4017,0.3887,0.0,0.0,0.0,0.0,0.0,0.0,0.0,0.0,0.0,0.656,0.7182,0.7485,0.7239,0.742,0.7296,0.6559,0.6289,0.6046,0.5672,0.5504,0.5392,0.0,0.0,0.0,0.0,0.0,0.0,0.0,0.0,0.0,0.0,0.0,0.0,0.0,0.0,0.0,0.0,0.0,0.0,0.0,0.0,0.0,0.0,0.0,0.0,0.0,0.0,0.0,1.0203,1.1227,0.0,0.0,0.0,0.0,0.0,0.0,0.0,0.0,0.0,0.0,0.0,1.1038,1.0385,0.0,0.0,0.0,0.0,0.0,0.0,0.0,0.0,0.0,0.0,0.0,0.0,0.9739,0.9949,1.0964,1.1659,1.1946,1.1865,1.1953,1.2215,1.1797,1.1213,1.0512,0.0,0.0,0.0,0.0,0.0,0.0,0.0,0.0,0.0,0.0,0.0,0.0,0.0,0.0,0.0,0.0,0.0,0.0,0.0,0.0,0.0,0.0,0.0,0.0,0.0,0.4599,0.0,0.0,0.0,0.0,0.0,0.0,0.0,0.0,0.0,0.0,0.6444,0.6995,0.7214,0.7724,0.8054,0.8061,0.7943,0.7746,0.0,0.0,0.0,0.0,0.0,0.0,0.0,0.0,0.0,0.0,0.0,0.0,0.0,0.4546,0.4329,0.395,0.3836,0.3726,0.3589,0.0,0.0,0.0,0.0,0.0,0.0,0.0,0.0,0.0,0.0,0.0,0.0,0.0,0.0,1.2712,1.3753,1.3283,0.0,0.0,0.0,0.0,0.0,0.0,0.0,0.0,1.3382,1.3186,1.2757,1.2374,1.1956,1.1528,1.095,1.0341,0.0,0.0,0.0,0.0,0.0,0.0,0.0,0.0,1.0177,1.0341,1.123,1.1853,1.2184,1.2292,1.2477,1.2732,1.228,1.1752,1.1121,1.0479,0.9925,0.0,0.0,0.0,0.0,0.0,0.0,0.0,0.0,0.0,0.0,0.0,0.0,0.0,0.0,0.0,0.0,0.0,0.0,0.0,0.0,0.0,0.0,0.0,0.5709,0.0,0.0,0.0,0.0,0.0,0.0,0.0,0.0,0.0,0.6773,0.7411,0.7909,0.7936,0.8351,0.8604,0.8532,0.0,0.0,0.0,0.0,0.0,0.0,0.0,0.5769,0.5681,0.5661,0.563,0.5566,0.543,0.5299,0.5208,0.0,0.0,0.4497,0.4336,0.4276,0.419,0.4203,0.4216,0.4081,0.4193,0.4296,0.0,0.0,0.0,0.0,1.2204,0.0,0.0,0.0,1.4193,1.456,0.0,1.4754,0.0,0.0,0.0,0.0,1.4287,1.4928,0.0,0.0,1.5753,1.5703,1.4519,1.4635,1.4564,1.4143,1.2761,1.2552,1.3251,1.1243,1.0042,0.0,0.0,0.0,0.0,0.0,1.0537,1.0959,1.1488,1.1909,1.2248,1.2483,1.2751,1.2994,1.2667,1.2291,1.1937,1.1585,1.1278,1.1002,0.9667,0.0,0.0,0.0,0.0,0.0,0.0,0.0,0.0,0.0,0.0,0.0,0.0,0.0,0.0,0.0,0.0,0.0,0.0,0.0,0.0,0.6948,0.0,0.0,0.0,0.0,0.0,0.0,0.0,0.0,0.0,0.8404,0.785,0.8388,0.8816,0.8851,0.0,0.0,0.0,0.0,0.7868,0.7265,0.6866,0.6473,0.6095,0.5935,0.5837,0.583,0.0,0.0,0.5813,0.5813,0.581,0.5813,0.58,0.5633,0.5046,0.4852,0.474,0.4737,0.4655,0.459,0.4718,0.4865,0.4959,1.5033,0.0,0.0,0.0,0.0,1.3391,1.4484,1.6321,1.5688,1.6184,1.7451,1.6575,0.0,0.0,0.0,0.0,0.0,0.0,1.5859,1.6263,1.6227,1.6054,1.5779,1.4965,1.4517,1.4374,1.3153,1.2836,1.3247,1.2612,1.2025,1.1417,0.0,0.0,0.0,0.0,1.141,1.1768,1.2239,1.2612,1.2929,1.3166,1.3351,1.343,1.2743,1.2421,1.2529,1.2055,1.1653,1.1426,1.0915,0.0,0.0,0.0,0.0,0.0,0.0,0.0,0.0,0.0,0.0,0.0,0.0,0.0,0.0,0.0,0.0,0.0,0.0,0.0,0.7941,0.8117,0.8041,0.0,0.0,0.0,0.0,0.0,0.0,0.0,0.0,0.0,0.9383,0.9451,0.9558,0.0,0.0,0.8817,0.8665,0.8176,0.7631,0.7202,0.702,0.0,0.6549,0.6471,0.6403,0.6298,0.6238,0.6166,0.617,0.6166,0.6166,0.6166,0.6166,0.6105,0.5915,0.5656,0.549,0.548,0.5442,0.5452,0.5467,0.559,0.5485,1.7388,1.6483,1.5089,1.4751,1.5113,1.4921,1.5859,1.7482,1.6988,1.7366,1.8362,1.7656,1.7252,1.707,1.6881,0.0,0.0,0.0,1.6982,1.7559,1.726,1.7131,1.7158,1.6577,1.6132,1.5871,1.4819,1.457,1.5134,1.4504,1.3961,1.3502,0.0,1.1982,1.1955,1.1804,1.1926,1.2359,1.2659,1.2991,1.3373,1.3626,1.3726,1.3593,1.3074,1.2806,1.2777,1.2479,1.2111,1.1735,1.155,1.0962,0.0,0.0,0.0,0.0,0.0,0.0,0.0,0.0,0.0,0.0,0.0,0.5385,0.5517,0.0,0.0,0.0,0.7902,0.8648,0.9514,0.9383,0.0,0.0,0.0,0.0,0.0,0.0,0.0,0.8511,0.9101,0.9723,1.0325,1.0294,1.0197,1.0273,0.9755,0.9231,0.8852,0.0,0.7777,0.7167,0.7003,0.694,0.6743,0.6702,0.6668,0.658,0.6495,0.6477,0.6474,0.6434,0.6434,0.6474,0.6477,0.6477,0.6434,0.6281,0.6115,0.6006,0.5983,0.6,0.6054,0.6142,0.6024,1.9316,1.9032,1.6308,1.5743,1.6639,1.6639,1.7229,1.812,1.8135,1.8245,1.8427,1.8197,1.8333,1.8755,1.8771,0.0,1.7893,1.811,1.8302,1.8504,1.8678,1.8665,1.8508,1.8787,1.8673,1.8089,1.7054,1.7054,1.7893,1.6507,1.5788,1.5745,1.422,1.325,1.2882,1.2331,1.2331,1.2882,1.2896,1.3139,1.3626,1.3948,1.3961,1.3653,1.3613,1.3387,1.2884,1.2831,1.2563,1.2013,1.182,1.1416,1.0702,0.0,0.0,0.0,0.0,0.0,0.0,0.0,0.0,0.0,0.0,0.0,0.0,0.0,0.0,0.8964,0.9699,0.0,1.0972,1.0548,0.0,0.0,0.0,0.8515,0.8114,0.8559,0.8907,0.8946,0.0,0.0,1.0931,1.0938,1.0869,1.0642,1.0515,1.0136,0.9246,0.8759,0.8111,0.7289,0.7054,0.6944,0.6808,0.6759,0.6759,0.6749,0.6732,0.6736,0.6736,0.6736,0.6736,0.6736,0.6736,0.6736,0.6736,0.6722,0.6651,0.639,0.6354,0.6371,0.648,0.6491,0.6505,1.958,1.9221,1.8507,1.8356,1.8595,1.8605,1.8918,1.9424,1.9121,1.9182,1.9506,1.9124,1.9042,1.9149,1.9171,1.9219,1.9377,1.9128,1.9166,1.9388,1.939,1.9288,1.9089,1.8806,1.8619,1.8394,1.7329,1.7035,1.746,1.6902,1.6566,1.6461,1.5872,1.4917,1.3728,1.3326,1.3319,1.3735,1.3701,1.3797,1.3968,1.4048,1.4055,1.3988,1.372,1.354,1.3434,1.322,1.2926,1.2603,1.2727,1.2362,1.1429,1.1259,0.0,0.0,0.0,0.0,0.0,0.0,0.0,0.0,0.0,0.772,0.808,0.0,0.9382,0.0,1.003,1.0311,1.0466,1.0254,0.0,0.0,0.9823,0.9485,0.9372,0.9633,0.9956,1.0341,1.0669,1.1055,1.1588,1.1828,1.1948,1.1861,1.1151,1.0541,1.0298,0.9294,0.8472,0.8185,0.7554,0.7078,0.7024,0.7034,0.6987,0.6994,0.6991,0.6991,0.6991,0.6994,0.6994,0.6991,0.6994,0.6991,0.7027,0.7037,0.6967,0.6886,0.6756,0.6603,0.6641,0.6736,0.6616,2.0654,2.0449,2.0449,2.0439,2.0391,1.9609,1.9414,1.9609,1.9385,1.9424,1.9639,1.959,1.9463,1.9326,1.9715,1.9775,1.9648,1.9822,1.9943,2.011,2.0265,2.0293,2.0269,1.9997,1.9764,1.9478,1.8834,1.8506,1.847,1.829,1.8013,1.7536,1.7384,1.6765,1.5655,1.4734,1.436,1.4555,1.4412,1.4241,1.4117,1.4088,1.4088,1.4088,1.3928,1.3774,1.3613,1.3447,1.3239,1.2977,1.3029,1.2833,1.2206,1.2087,1.1558,0.0,0.0,0.0,0.0,0.0,0.0,0.0,0.0,0.0,0.0,0.0,1.0676,1.0686,1.0663,1.0677,1.0641,1.0611,1.0599,1.0736,1.0514,1.0395,1.0395,1.0574,1.0837,1.1117,1.1324,1.1624,1.2,1.2222,1.2361,1.2463,1.1981,1.1427,1.0981,1.0293,0.9515,0.8708,0.8087,0.7577,0.7183,0.7095,0.7095,0.7095,0.7095,0.7095,0.7095,0.7095,0.7095,0.7095,0.7095,0.7095,0.7095,0.7095,0.7095,0.7075,0.697,0.6909,0.6852,0.692,0.6803,2.1936,2.1926,2.1926,2.1965,2.1887,2.0321,1.959,1.9531,1.9541,1.9531,1.9551,1.9922,1.9902,1.9705,2.0439,2.0361,1.9687,2.0439,2.0772,2.0791,2.1133,2.1382,2.1546,2.1546,2.1281,2.0793,2.0774,2.0552,2.0152,2.0152,1.9727,1.895,1.8959,1.8602,1.7951,1.6514,1.5724,1.5541,1.5131,1.4741,1.4377,1.425,1.4208,1.4166,1.4166,1.4045,1.3755,1.3735,1.3601,1.3292,1.3244,1.3154,1.308,1.2776,1.2353,0.0,1.1445,0.0,0.0,0.0,0.0,0.0,0.0,0.0,0.0,1.1598,1.1981,1.1571,1.1372,1.1234,1.1234,1.1234,1.1253,1.1252,1.1252,1.1258,1.1226,1.1399,1.1555,1.1585,1.1796,1.2071,1.2324,1.2361,1.2457,1.2644,1.2626,1.231,1.1655,1.1348,1.0611,0.9017,0.8627,0.8105,0.7319,0.7115,0.7136,0.7132,0.7166,0.7152,0.7173,0.7169,0.7166,0.7166,0.7176,0.7169,0.7156,0.7162,0.7162,0.7217,0.721,0.7139,0.7088,0.7075,0.7095,2.2009,2.2122,2.1967,2.2215,2.2648,2.1762,2.1191,2.083,2.083,2.083,2.083,2.0908,2.1133,2.1406,2.1562,2.1593,2.1406,2.1562,2.1681,2.1641,2.1728,2.1807,2.1824,2.1834,2.1753,2.1675,2.1644,2.1595,2.1518,2.1518,2.1252,2.0729,2.0729,2.0314,1.9593,0.0,0.0,0.0,1.6365,1.5959,1.5636,1.5159,1.4797,1.4615,1.4573,0.0,1.449,1.4483,1.4365,1.4099,1.4224,0.0,1.3969,0.0,0.0,0.0,0.0,0.0,0.0,0.0,0.0,0.0,1.1615,1.1539,1.1435,1.2046,1.2245,1.1825,1.1879,1.1973,1.1973,1.1973,1.2023,1.206,1.2052,1.1967,1.1775,1.1817,1.1926,1.2143,1.221,1.2343,1.2572,1.2632,1.265,1.2705,1.2705,1.2619,1.246,1.1823,1.1203,1.0717,0.9441,0.816,0.7228,0.7251,0.7326,0.7343,0.7438,0.7495,0.7495,0.7499,0.7506,0.7499,0.7512,0.7506,0.7506,0.7512,0.7492,0.7509,0.7506,0.7438,0.7152,0.7098,0.7095,2.2849,2.2839,2.2849,2.3107,0.0,2.3136,2.2876,2.265,2.2092,2.1982,2.2187,2.2136,2.2295,2.2562,2.251,2.251,2.2562,2.251,2.251,2.2562,2.251,2.25,2.251,2.25,2.2402,2.2197,2.2197,2.209,2.1894,2.1936,2.1802,2.1534,2.1524,2.123,2.0626,2.0398,1.9485,1.7827,1.7423,1.6805,1.6041,1.5726,1.5269,1.4734,1.4692,0.0,0.0,0.0,0.0,0.0,0.0,0.0,0.0,1.4357,1.3992,1.4081,1.3548,1.308,1.2668,1.2563,1.2532,1.2569,1.2532,1.2494,1.2419,1.2588,1.2674,1.2538,1.2472,1.2381,1.2388,1.231,1.2305,1.2488,1.2363,1.2284,1.2282,1.2265,1.2319,1.2475,1.2512,1.2566,1.2687,1.2794,1.2861,1.2922,1.3031,1.3097,1.3047,1.2595,1.1975,1.1068,0.93,0.7909,0.7464,0.7421,0.7482,0.7499,0.755,0.759,0.7597,0.7597,0.7597,0.7597,0.7597,0.7597,0.7597,0.7597,0.7597,0.7597,0.7597,0.756,0.739,0.7309,0.7255,2.3871,2.3863,2.3861,2.4131,2.4521,2.4331,2.4306,2.4336,2.3114,0.0,0.0,2.3262,2.3301,2.3389,2.3379,2.3369,2.3379,2.3379,2.3369,2.3423,2.3291,2.3208,2.3208,2.313,2.2925,2.2627,2.2584,2.2441,2.2119,2.2109,2.2109,2.21,2.2109,2.1885,2.1414,2.0947,2.0076,1.8847,1.8474,1.7747,1.6609,1.6494,1.6041,1.5311,1.5311,1.5269,1.5269,1.5269,1.5394,1.5609,1.5227,1.5373,1.6214,1.5488,1.5098,1.5203,1.4902,1.4402,1.3764,1.3775,1.3761,1.3673,1.3571,1.3419,1.3253,1.3094,1.3106,1.3335,1.3063,1.2879,1.2879,1.2768,1.2735,1.2876,1.2725,1.2716,1.2869,1.29,1.2912,1.2961,1.3028,1.2979,1.3046,1.323,1.3326,1.3351,1.3524,1.368,1.3628,1.335,1.2484,1.0892,0.9351,0.8139,0.7691,0.7621,0.7631,0.7638,0.7665,0.7675,0.7678,0.7678,0.7678,0.7702,0.7678,0.7689,0.7682,0.7699,0.7678,0.7675,0.7678,0.7678,0.7665,0.7556,0.7451,2.4536,2.5249,2.4441,2.4751,2.5863,2.5055,2.4921,2.5169,2.3737,2.3355,2.3701,2.3701,2.3896,2.4238,2.4238,2.4238,2.4238,2.4238,2.4238,2.4219,2.3867,2.3701,2.3682,2.3276,2.3062,2.3013,2.3013,2.2974,2.2925,2.2969,2.2916,2.2925,2.2925,2.2701,2.2305,2.1543,2.1013,2.0753,1.9865,1.9204,1.8847,1.8287,1.7844,1.7545,1.7513,1.7553,1.7504,1.7513,1.7553,1.7594,1.7713,1.7752,1.7757,1.7385,1.7209,1.7269,1.6788,1.6481,1.6412,1.6238,1.5928,1.5436,1.4954,1.4257,1.3319,1.34,1.3512,1.3572,1.3758,1.3878,1.3898,1.4041,1.3966,1.3646,1.3778,1.3846,1.366,1.3617,1.3692,1.3951,1.4065,1.4046,1.3976,1.4046,1.4084,1.4135,1.4133,1.4248,1.4308,1.3896,1.27,1.1094,1.0412,0.9444,0.8244,0.7709,0.7818,0.7784,0.7882,0.7894,0.7891,0.7891,0.7891,0.7917,0.7897,0.7904,0.7907,0.7928,0.7904,0.7943,0.7891,0.7901,0.7894,0.7783,0.7706,2.5078,2.5341,2.5163,2.5493,2.6196,2.6013,2.5966,2.5954,2.5132,2.4788,2.4834,2.4853,2.4951,2.5127,2.5089,2.5079,2.5117,2.4883,2.4766,2.4736,2.4336,2.4131,2.4111,2.3881,2.3783,2.3828,2.3828,2.3783,2.3783,2.3783,2.3783,2.3773,2.3559,2.3398,2.3184,2.2545,2.2116,2.1863,2.0737,1.9883,1.9301,1.9024,1.8567,1.8037,1.8226,1.8338,1.8338,1.8576,1.8688,1.873,1.8449,1.8473,1.8887,1.8214,1.789,1.811,1.7726,1.7412,1.726,1.6798,1.6612,1.6892,1.569,1.4972,1.4944,1.4418,1.4182,1.4342,1.4532,1.4606,1.4613,1.4588,1.4476,1.4219,1.4235,1.4218,1.4123,1.4085,1.4136,1.4295,1.4321,1.4321,1.4321,1.4404,1.4499,1.4512,1.4614,1.478,1.4907,1.4584,1.3889,1.2456,1.1694,1.0744,0.9368,0.9038,0.8754,0.8273,0.804,0.7985,0.7988,0.7988,0.7988,0.7988,0.7988,0.7988,0.7988,0.7988,0.7988,0.7988,0.7988,0.7988,0.7975,0.7931,0.7813,2.5528,2.5619,2.5762,2.6069,2.636,2.6737,2.6747,2.6554,2.6235,2.5955,2.582,2.5732,2.5684,2.5684,2.5684,2.5684,2.5635,2.5381,2.5262,2.5176,2.4766,2.457,2.4551,2.4473,2.4424,2.4424,2.4424,2.4424,2.4424,2.4424,2.4424,2.4385,2.4092,2.3935,2.3926,2.3496,2.3081,2.2744,2.1709,2.0726,1.9906,1.9897,1.9567,1.8972,1.9188,1.9348,1.9365,1.9691,1.9894,1.9876,1.9373,1.9389,1.9976,1.931,1.8964,1.9139,1.9003,1.8726,1.8351,1.7754,1.7731,1.8354,1.6917,1.6293,1.6949,1.606,1.5205,1.5064,1.5198,1.525,1.5033,1.4882,1.4753,1.4701,1.4611,1.4598,1.4546,1.4553,1.4585,1.4624,1.465,1.4663,1.4682,1.4831,1.496,1.5005,1.5126,1.5261,1.5274,1.5274,1.4879,1.4094,1.3017,1.1925,1.0974,1.0574,0.9989,0.9019,0.8676,0.8478,0.8283,0.8038,0.7988,0.7988,0.7988,0.7988,0.7988,0.7988,0.7988,0.7988,0.7988,0.7988,0.7988,0.7985,0.7928,2.5946,2.6581,2.6074,2.6222,2.6809,2.688,2.69,2.6794,2.6352,2.61,2.6052,2.582,2.5684,2.5684,2.5684,2.5684,2.5684,2.5645,2.5615,2.5557,2.5215,2.5057,2.4971,2.4629,2.4424,2.4443,2.4463,2.4502,2.4492,2.4473,2.4443,2.4414,2.4329,2.4375,2.4316,2.3955,2.3721,2.3672,2.312,2.2487,2.1734,2.1644,2.1593,2.1552,2.154,2.161,2.1486,2.1639,2.1636,2.1658,2.1556,2.1476,2.1416,2.1462,2.1424,2.118,2.1373,2.1339,2.0893,2.0634,2.0328,2.0208,1.9256,1.8831,1.9203,1.8503,1.7063,1.5763,1.5842,1.596,1.5149,1.5249,1.5303,1.5167,1.5178,1.5305,1.5265,1.5311,1.5358,1.5631,1.5537,1.5651,1.555,1.5583,1.5664,1.5597,1.5636,1.5642,1.5689,1.5689,1.5642,1.5302,1.4334,1.3022,1.2096,1.175,1.1263,1.044,0.9948,0.941,0.8726,0.8187,0.7988,0.7988,0.7988,0.7988,0.7988,0.7988,0.7988,0.7988,0.7988,0.7988,0.7988,0.7988,0.7955,2.6277,2.663,2.6506,2.6707,2.7119,2.7129,2.7129,2.7081,2.6747,2.6602,2.6496,2.611,2.5868,2.5684,2.5684,2.5684,2.5684,2.5684,2.5684,2.5674,2.5499,2.5469,2.5439,2.5245,2.5195,2.5157,2.5148,2.5148,2.5148,2.5138,2.5148,2.5148,2.5195,2.5157,2.5185,2.5029,2.4814,2.4597,2.4375,2.3984,2.3379,2.2637,2.2139,2.1943,2.2119,2.2256,2.2285,2.249,2.2627,2.2607,2.2393,2.2214,2.211,2.198,2.1834,2.1751,2.1952,2.2013,2.1782,2.1287,2.1122,2.141,2.0016,1.941,1.9964,1.9704,1.8818,1.7637,1.7583,1.7636,1.7242,1.6824,1.6476,1.6338,1.5958,1.5645,1.5651,1.5651,1.5658,1.5812,1.5825,1.5825,1.5825,1.5825,1.5825,1.5825,1.5825,1.5825,1.5825,1.5825,1.5825,1.573,1.5201,1.4478,1.3511,1.3162,1.2571,1.156,1.0587,0.9706,0.9266,0.8432,0.7988,0.8038,0.8038,0.8038,0.7988,0.7988,0.7988,0.7988,0.7988,0.7988,0.7988,0.7988,0.7988,2.6496,2.6544,2.6805,2.7034,2.7309,2.732,2.732,2.7262,2.6996,2.689,2.6853,2.64,2.6052,2.583,2.5732,2.5684,2.5684,2.5684,2.5684,2.5684,2.5684,2.5684,2.5684,2.5684,2.5684,2.5684,2.5664,2.5674,2.5684,2.5684,2.5684,2.5684,2.5684,2.5684,2.5684,2.5684,2.5586,2.5283,2.5244,2.5039,2.4521,2.3691,2.3008,2.2646,2.2764,2.2861,2.2871,2.3003,2.3101,2.3091,2.2799,2.2685,2.2666,2.2393,2.2236,2.2256,2.2349,2.2428,2.2361,2.1813,2.1704,2.1989,2.0746,2.0277,2.0754,2.0889,2.0565,1.9914,1.9749,1.9497,1.8334,1.7738,1.7232,1.6911,1.6204,1.5825,1.5818,1.5825,1.5818,1.5825,1.5825,1.5825,1.5825,1.5825,1.5825,1.5825,1.5825,1.5825,1.5825,1.5825,1.5825,1.5825,1.5778,1.5499,1.4825,1.4519,1.3836,1.2915,1.1804,1.1019,1.0194,0.9167,0.8283,0.8482,0.8237,0.8141,0.8187,0.8137,0.8137,0.8137,0.8137,0.8088,0.8038,0.7988,0.7988,2.6496,2.6554,2.6794,2.7034,2.7309,2.732,2.732,2.7262,2.7034,2.69,2.689,2.6592,2.6342,2.61,2.583,2.5684,2.5684,2.5684,2.5684,2.5684,2.5684,2.5684,2.5684,2.5684,2.5684,2.5684,2.5684,2.5684,2.5684,2.5684,2.5684,2.5684,2.5684,2.5684,2.5684,2.5684,2.5674,2.5615,2.5606,2.5478,2.5098,2.4961,2.4668,2.4258,2.3916,2.3701,2.3652,2.3296,2.3101,2.3101,2.3052,2.3052,2.3052,2.3023,2.2984,2.3003,2.3033,2.2974,2.279,2.2687,2.2574,2.2388,2.2167,2.2157,2.2078,2.2122,2.2033,2.2167,2.1767,2.0619,1.8241,1.7785,1.7232,1.6433,1.6015,1.5967,1.5872,1.5967,1.5825,1.5825,1.5825,1.5825,1.5825,1.5825,1.5825,1.5825,1.5825,1.5825,1.5825,1.5825,1.5825,1.5825,1.5825,1.5778,1.5737,1.5439,1.5057,1.4238,1.3355,1.2909,1.1604,1.0391,0.9608,0.8924,0.8775,0.863,0.8482,0.8382,0.8379,0.8379,0.8382,0.8333,0.8237,0.8088,0.8038,2.7455,2.7181,2.6965,2.7034,2.7309,2.732,2.732,2.7309,2.7167,2.7167,2.7129,2.69,2.6699,2.6592,2.6159,2.5868,2.5684,2.5684,2.5684,2.5684,2.5684,2.5684,2.5684,2.5684,2.5684,2.5684,2.5684,2.5684,2.5684,2.5684,2.5684,2.5684,2.5684,2.5684,2.5684,2.5684,2.5684,2.5684,2.5684,2.5606,2.5498,2.5498,2.541,2.5187,2.456,2.4062,2.3799,2.3643,2.3428,2.311,2.3101,2.3101,2.3101,2.3101,2.3101,2.3101,2.3101,2.3047,2.3013,2.3013,2.2925,2.2662,2.2662,2.2583,2.2441,2.2397,2.2397,2.2397,2.2344,2.1338,2.0187,1.9422,1.9147,1.8864,1.8133,1.7451,1.7084,1.6857,1.6534,1.5967,1.5825,1.5825,1.5825,1.5825,1.5825,1.5825,1.5825,1.5825,1.5825,1.5825,1.5825,1.5825,1.5825,1.5825,1.5825,1.5778,1.554,1.5057,1.4424,1.3692,1.2576,1.175,1.097,1.0047,0.9657,0.9167,0.9023,0.868,0.8676,0.863,0.863,0.863,0.8531,0.8382,0.8287,2.8073,2.7865,2.7337,2.7249,2.7448,2.7372,2.732,2.732,2.732,2.732,2.7262,2.7129,2.6986,2.6853,2.6496,2.6207,2.5975,2.5781,2.5684,2.5684,2.5684,2.5684,2.5684,2.5684,2.5684,2.5684,2.5684,2.5684,2.5684,2.5684,2.5684,2.5684,2.5684,2.5684,2.5684,2.5684,2.5684,2.5684,2.5684,2.5684,2.5684,2.5684,2.5684,2.5606,2.5109,2.4639,2.4219,2.3945,2.3672,2.3379,2.3179,2.3101,2.3101,2.3101,2.3101,2.3101,2.3101,2.3101,2.3101,2.3101,2.3057,2.2925,2.2891,2.2794,2.2652,2.2608,2.2608,2.2608,2.2574,2.2201,2.1695,2.1204,2.0791,2.0322,1.9505,1.8642,1.7831,1.7559,1.6904,1.6062,1.5825,1.5825,1.5825,1.5825,1.5825,1.5825,1.5825,1.5825,1.5825,1.5825,1.5825,1.5825,1.5825,1.5825,1.5825,1.5825,1.5825,1.5391,1.5153,1.4472,1.3794,1.3065,1.2242,1.1317,1.0538,0.9953,0.9464,0.9122,0.8977,0.8928,0.8882,0.8882,0.8783,0.863,0.8581,2.8367,2.8456,2.7875,2.7708,2.781,2.7527,2.734,2.732,2.732,2.732,2.7309,2.7272,2.7119,2.6948,2.6853,2.6709,2.641,2.6024,2.5781,2.5781,2.5781,2.5791,2.5781,2.5781,2.5781,2.5732,2.5684,2.5684,2.5684,2.5684,2.5684,2.5684,2.5684,2.5684,2.5684,2.5684,2.5684,2.5684,2.5684,2.5684,2.5684,2.5684,2.5684,2.5684,2.5615,2.543,2.5086,2.4287,2.3857,2.3721,2.3379,2.311,2.3101,2.3101,2.3101,2.3101,2.3101,2.3101,2.3101,2.3101,2.3101,2.3057,2.3091,2.3057,2.3003,2.3003,2.3003,2.3003,2.2882,2.275,2.2662,2.2432,2.165,1.9951,1.9815,1.9322,1.8319,1.7777,1.7271,1.6251,1.592,1.5825,1.5825,1.5825,1.5825,1.5825,1.5825,1.5825,1.5825,1.5825,1.5825,1.5825,1.5825,1.5825,1.5825,1.5825,1.5825,1.573,1.5635,1.5296,1.4717,1.404,1.3258,1.2339,1.069,1.0055,0.9571,0.9278,0.9282,0.9232,0.9183,0.9133,0.9031,0.8928,0.8829,2.8982,2.9032,2.8487,2.8115,2.7935,2.7769,2.7552,2.732,2.732,2.732,2.732,2.732,2.7251,2.7129,2.6996,2.6853,2.6757,2.641,2.6265,2.6255,2.6255,2.6255,2.6217,2.6255,2.6149,2.5965,2.5781,2.5684,2.5732,2.5732,2.5684,2.5684,2.5684,2.5684,2.5684,2.5684,2.5684,2.5684,2.5684,2.5684,2.5684,2.5684,2.5684,2.5684,2.5684,2.5606,2.5518,2.4971,2.4441,2.3857,2.3652,2.3457,2.3169,2.3101,2.3101,2.3101,2.3101,2.3101,2.3101,2.3101,2.3101,2.3101,2.3101,2.3101,2.3101,2.3101,2.3101,2.3101,2.3057,2.3013,2.3003,2.2969,2.2467,2.1828,2.1606,2.1051,1.9988,1.8818,1.7816,1.7178,1.6487,1.6069,1.5879,1.5825,1.5825,1.5825,1.5825,1.5825,1.5825,1.5825,1.5825,1.5825,1.5825,1.5825,1.5825,1.5825,1.5825,1.5825,1.5778,1.5778,1.535,1.4962,1.4184,1.3119,1.1468,1.035,0.9867,0.9624,0.9673,0.9579,0.943,0.9381,0.9331,0.9229,0.913,2.9559,2.9508,2.9063,2.8711,2.8421,2.8266,2.7924,2.7541,2.751,2.7465,2.734,2.732,2.732,2.7272,2.7129,2.7034,2.7023,2.688,2.6784,2.6736,2.6544,2.6496,2.6496,2.6496,2.6448,2.6245,2.6072,2.5975,2.6024,2.5975,2.5927,2.5868,2.5868,2.5771,2.5732,2.5684,2.5684,2.5684,2.5684,2.5684,2.5684,2.5684,2.5684,2.5684,2.5684,2.5684,2.5664,2.5459,2.5,2.4336,2.3984,2.3697,2.3487,2.3286,2.3144,2.3232,2.3144,2.3101,2.3101,2.3101,2.3101,2.3101,2.3101,2.3101,2.3101,2.3101,2.3101,2.3101,2.3101,2.3101,2.3091,2.3101,2.3003,2.2925,2.2706,2.2271,2.1257,1.9716,1.8672,1.818,1.7537,1.6897,1.6662,1.6109,1.5974,1.5927,1.5879,1.5825,1.5825,1.5825,1.5825,1.5825,1.5825,1.5825,1.5825,1.5825,1.5825,1.5825,1.5825,1.5778,1.5588,1.5493,1.5051,1.4046,1.2592,1.1614,1.1033,1.0493,1.035,1.006,0.9723,0.9579,0.948,0.943,0.9377,2.9994,2.9932,2.9528,2.9301,2.9187,2.8825,2.8349,2.7935,2.7893,2.7741,2.7467,2.7536,2.7536,2.7536,2.7762,2.7715,2.7536,2.762,2.7573,2.7336,2.7013,2.6822,2.664,2.6592,2.6544,2.6544,2.6448,2.6448,2.64,2.64,2.64,2.6149,2.61,2.5955,2.582,2.5732,2.5732,2.5684,2.5684,2.5684,2.5732,2.5732,2.5781,2.5781,2.5781,2.583,2.582,2.5781,2.5536,2.5057,2.4313,2.4002,2.3974,2.3516,2.3486,2.3682,2.3364,2.3257,2.3193,2.3208,2.3144,2.3101,2.3101,2.3101,2.3101,2.3169,2.3218,2.3218,2.3247,2.3257,2.3266,2.3198,2.3169,2.3101,2.3013,2.2536,2.1525,2.0404,1.9761,1.9451,1.8772,1.8087,1.7987,1.7084,1.6534,1.6353,1.6157,1.5967,1.5967,1.6015,1.5872,1.592,1.5967,1.5927,1.5927,1.5825,1.5825,1.5825,1.5825,1.5825,1.5683,1.5588,1.535,1.4436,1.3709,1.2829,1.2145,1.1512,1.0832,1.035,1.001,0.9772,0.9579,0.9579,0.9575,2.9994,2.9984,2.986,2.9622,2.9321,2.9156,2.8659,2.7976,2.7935,2.813,2.8261,2.8351,2.8713,2.9395,2.9406,2.9441,2.9303,2.936,2.8945,2.8398,2.8222,2.7668,2.7167,2.689,2.6853,2.6794,2.6736,2.6496,2.6496,2.6592,2.6496,2.64,2.639,2.6255,2.6062,2.6004,2.5868,2.5732,2.5732,2.583,2.6004,2.6052,2.611,2.6255,2.6314,2.6304,2.6304,2.6304,2.5902,2.5183,2.4756,2.4532,2.4614,2.4575,2.4566,2.4581,2.4316,2.4068,2.391,2.3638,2.3382,2.3144,2.3305,2.3101,2.311,2.3447,2.3584,2.3682,2.3877,2.4053,2.4014,2.3769,2.3516,2.3149,2.311,2.295,2.2501,2.1774,2.1042,2.0755,1.996,1.9413,1.8993,1.8265,1.7544,1.7358,1.6897,1.6346,1.6346,1.6305,1.6251,1.6258,1.6305,1.617,1.6028,1.5879,1.5825,1.5825,1.5825,1.5825,1.554,1.5255,1.4867,1.4244,1.3944,1.3258,1.2823,1.2339,1.156,1.0984,1.0788,1.0694,0.992,0.9628,0.9723,2.9994,2.9994,2.9994,2.9839,2.9611,2.9601,2.942,2.918,2.8915,2.9143,2.952,2.9438,2.9669,3.017,3.017,3.0215,3.0215,3.0215,2.9635,2.8817,2.8631,2.8351,2.7951,2.7726,2.7631,2.7631,2.7526,2.7194,2.7013,2.7194,2.7156,2.6747,2.6651,2.6496,2.6304,2.6255,2.6197,2.6062,2.6062,2.6294,2.6781,2.6877,2.7247,2.7447,2.74,2.7078,2.7067,2.7067,2.6659,2.5864,2.5421,2.5265,2.5384,2.5213,2.528,2.5315,2.5017,2.4805,2.4829,2.4607,2.4625,2.4724,2.4551,2.4412,2.4496,2.4456,2.4244,2.4274,2.4352,2.4394,2.4346,2.4043,2.3701,2.3467,2.3208,2.311,2.3101,2.2599,2.228,2.1908,2.1284,2.061,2.0413,1.9459,1.8734,1.8187,1.763,1.7084,1.6676,1.6683,1.6636,1.6588,1.6494,1.6359,1.6218,1.6069,1.5927,1.5927,1.592,1.592,1.5683,1.5255,1.5112,1.4771,1.428,1.389,1.3553,1.3264,1.278,1.2296,1.2047,1.1468,1.0743,1.0261,1.0256,2.9994,2.9994,2.9994,2.9994,3.0026,3.013,3.0404,3.071,3.0504,3.0625,3.0928,3.0605,3.0624,3.0486,3.0902,3.0633,3.0633,3.08,3.0079,2.9486,2.9268,2.9176,2.9176,2.8899,2.8852,2.8817,2.8852,2.8398,2.8128,2.8538,2.8175,2.7584,2.7309,2.7071,2.7003,2.6907,2.686,2.7003,2.704,2.74,2.797,2.8157,2.8484,2.8993,2.8588,2.8251,2.8204,2.8168,2.7819,2.6945,2.6425,2.6558,2.6579,2.6043,2.6022,2.6274,2.6257,2.6086,2.6148,2.6227,2.6379,2.6852,2.6379,2.6247,2.637,2.5834,2.5254,2.5254,2.4809,2.4768,2.4538,2.4186,2.3867,2.3691,2.3344,2.313,2.3101,2.3101,2.3101,2.3047,2.229,2.1971,2.157,2.0844,1.9803,1.9513,1.8734,1.7824,1.7318,1.7044,1.6958,1.6777,1.6683,1.6541,1.6447,1.6312,1.6163,1.6069,1.6069,1.6069,1.6021,1.5778,1.5778,1.5486,1.5003,1.4717,1.4573,1.419,1.3854,1.3366,1.2974,1.2296,1.1663,1.1419,1.1321,2.9994,2.9994,2.9994,2.9994,3.0151,3.0877,3.116,3.1014,3.1683,3.2028,3.2059,3.1967,3.2107,3.2394,3.2307,3.2481,3.2307,3.2208,3.1945,3.108,3.1003,3.0946,3.0767,3.026,2.9897,2.9909,2.9852,2.9715,2.9612,2.9532,2.9349,2.8527,2.8806,2.8945,2.8096,2.8552,2.8958,2.8808,2.8727,2.8912,2.9258,2.9396,2.959,3.0011,2.9795,2.9704,2.9704,2.9704,2.9612,2.9396,2.9123,2.8921,2.8807,2.8843,2.8833,2.8823,2.8656,2.8455,2.8353,2.8094,2.7912,2.8053,2.7912,2.7654,2.771,2.7228,2.6799,2.6675,2.6339,2.5906,2.5411,2.468,2.4261,2.3928,2.3482,2.3144,2.3101,2.3101,2.3101,2.3047,2.2916,2.2784,2.2731,2.1926,2.1159,2.0791,1.9877,1.8742,1.8141,1.7638,1.7412,1.7326,1.6965,1.6824,1.669,1.6548,1.6353,1.6258,1.6258,1.6258,1.6211,1.6116,1.6021,1.592,1.573,1.5493,1.5207,1.5255,1.4908,1.4382,1.3854,1.3318,1.2823,1.2581,1.2387,3.1043,3.1505,3.1494,3.1494,3.1597,3.2083,3.2481,3.2753,3.301,3.3302,3.3387,3.3216,3.312,3.3093,3.3124,3.3081,3.2982,3.2581,3.2077,3.1625,3.1536,3.1581,3.1713,3.1569,3.1392,3.0991,3.0857,3.0678,3.0396,3.0576,3.0351,2.9486,2.9988,2.9749,2.9292,2.9784,2.9829,2.9738,2.9784,3.0011,3.0553,3.0643,3.0687,3.0845,3.0857,3.0845,3.0845,3.0857,3.1125,3.1392,3.1392,3.0878,3.0147,3.0125,3.0319,3.0468,3.0399,3.0277,3.0134,3.0089,3.0005,2.9972,2.966,2.9596,2.9429,2.8982,2.8528,2.8388,2.8079,2.7547,2.6697,2.5398,2.4758,2.4425,2.3826,2.3436,2.3276,2.3188,2.3101,2.3101,2.3047,2.3047,2.2872,2.2467,2.2015,2.1427,2.1204,2.0104,1.9193,1.8734,1.8288,1.7971,1.7426,1.7106,1.6925,1.6784,1.6588,1.6494,1.6494,1.6494,1.6447,1.6305,1.6163,1.6069,1.6021,1.5872,1.5683,1.5778,1.5778,1.5296,1.4765,1.4328,1.3944,1.3607,1.3463,3.2398,3.3201,3.3201,3.3201,3.325,3.335,3.3883,3.4546,3.451,3.4458,3.4577,3.4211,3.3646,3.3194,3.3124,3.3124,3.2896,3.2438,3.2033,3.2021,3.1989,3.1989,3.212,3.2438,3.2525,3.1857,3.1813,3.1436,3.1214,3.1315,3.1303,3.0621,3.0666,3.0666,3.0531,3.0621,3.0845,3.089,3.089,3.1113,3.1669,3.1801,3.1801,3.1813,3.1857,3.1845,3.1845,3.1901,3.2213,3.3138,3.3194,3.2379,3.1383,3.0784,3.1016,3.1575,3.1676,3.1748,3.2014,3.1906,3.1895,3.2356,3.1675,3.1361,3.1412,3.0728,3.0145,2.9852,2.9533,2.8936,2.8175,2.6556,2.564,2.5204,2.4486,2.3791,2.3503,2.3276,2.3188,2.3101,2.3101,2.3101,2.3101,2.2872,2.2467,2.2113,2.1882,2.1472,2.0557,1.9733,1.9239,1.8742,1.8241,1.7473,1.72,1.7106,1.6911,1.6864,1.6817,1.673,1.673,1.673,1.6588,1.6359,1.6218,1.6116,1.6021,1.5974,1.5927,1.5872,1.5588,1.5051,1.4771,1.458,1.4484,3.3039,3.3201,3.3201,3.3201,3.3338,3.4141,3.4629,3.4921,3.5604,3.5444,3.4743,3.4613,3.3985,3.3363,3.3124,3.3124,3.3038,3.2754,3.2711,3.2711,3.2711,3.2711,3.2754,3.2896,3.2939,3.2952,3.2766,3.2581,3.2481,3.2723,3.2208,3.1713,3.2077,3.2133,3.1757,3.212,3.2351,3.2264,3.2307,3.2494,3.2624,3.2723,3.2723,3.2723,3.2667,3.2748,3.2804,3.2847,3.3139,3.3696,3.3746,3.3776,3.3592,3.3318,3.3416,3.3617,3.3506,3.3453,3.3776,3.3276,3.3233,3.3351,3.2915,3.2648,3.25,3.1933,3.1347,3.1024,3.0418,2.967,2.9454,2.7672,2.6536,2.5973,2.5021,2.3861,2.359,2.3493,2.3363,2.3188,2.3144,2.3101,2.3101,2.3101,2.2872,2.2511,2.229,2.2059,2.1552,2.0737,2.0096,1.965,1.9147,1.8241,1.7419,1.7372,1.7279,1.7326,1.7232,1.7099,1.7099,1.7192,1.7052,1.673,1.6548,1.6494,1.6353,1.6258,1.6123,1.6076,1.5927,1.573,1.5445,1.5159,1.5302,3.4385,3.4836,3.4872,3.4884,3.4921,3.5379,3.5619,3.5702,3.6143,3.5918,3.5207,3.4781,3.4286,3.3596,3.3212,3.3124,3.3124,3.3124,3.3124,3.3124,3.3124,3.3124,3.3124,3.3124,3.3124,3.3081,3.3124,3.3124,3.3124,3.3081,3.281,3.2624,3.2939,3.2797,3.2568,3.2766,3.3081,3.3124,3.3124,3.3124,3.3124,3.3124,3.3124,3.3124,3.3162,3.3219,3.347,3.3495,3.3771,3.4198,3.4324,3.4638,3.4889,3.4919,3.4806,3.5039,3.4876,3.4813,3.4956,3.4374,3.3997,3.3796,3.3395,3.3162,3.3038,3.2667,3.2412,3.2145,3.1436,3.0744,3.0664,2.8821,2.7646,2.6822,2.5646,2.4624,2.4057,2.3894,2.3634,2.3363,2.3232,2.3178,2.3101,2.3101,2.3101,2.2916,2.2652,2.2467,2.2325,2.173,2.0962,2.0512,2.0059,1.9376,1.8465,1.8195,1.8056,1.801,1.7692,1.7559,1.738,1.7372,1.7279,1.7052,1.6911,1.6777,1.6588,1.6447,1.6359,1.6224,1.6076,1.5927,1.5832,1.5778,1.5825,3.5619,3.6417,3.6417,3.6417,3.6417,3.6417,3.637,3.6417,3.6417,3.6044,3.547,3.5031,3.4537,3.3884,3.337,3.3124,3.3124,3.3124,3.3124,3.3124,3.3124,3.3124,3.3124,3.3124,3.3124,3.3124,3.3124,3.3124,3.3124,3.3124,3.3124,3.3038,3.3081,3.3124,3.3081,3.3038,3.3124,3.3124,3.3124,3.3124,3.3124,3.3124,3.3124,3.3174,3.3181,3.3483,3.3784,3.3997,3.4336,3.4713,3.4881,3.5094,3.5533,3.5658,3.5658,3.5646,3.5583,3.5508,3.532,3.4756,3.4173,3.3909,3.3382,3.325,3.3345,3.3414,3.3408,3.3252,3.2648,3.2107,3.1854,3.0194,2.8856,2.789,2.672,2.5463,2.4722,2.4272,2.3937,2.3624,2.3406,2.3222,2.3188,2.3101,2.3101,2.3101,2.2872,2.2872,2.2687,2.2457,2.1872,2.1463,2.0962,2.0458,1.9778,1.9239,1.9147,1.9055,1.8465,1.801,1.7738,1.7512,1.7372,1.7279,1.7145,1.7005,1.6817,1.6683,1.6595,1.6461,1.6319,1.6123,1.5879,1.5825,1.5825,3.631,3.6417,3.6417,3.6417,3.6417,3.6417,3.6417,3.6417,3.6417,3.6044,3.5558,3.5382,3.4793,3.3972,3.337,3.3174,3.3124,3.3124,3.3124,3.3124,3.3124,3.3124,3.3124,3.3124,3.3124,3.3124,3.3124,3.3124,3.3124,3.3124,3.3124,3.3124,3.3124,3.3124,3.3124,3.3124,3.3124,3.3124,3.3124,3.3124,3.3124,3.3124,3.3124,3.3287,3.3508,3.3872,3.411,3.4449,3.4843,3.532,3.5395,3.5717,3.6157,3.6317,3.6317,3.6119,3.5868,3.5483,3.5357,3.4756,3.4211,3.3985,3.352,3.3432,3.3721,3.4148,3.4336,3.45,3.3838,3.3457,3.294,3.1314,3.0193,2.8942,2.7622,2.6331,2.5391,2.4807,2.4433,2.3937,2.3711,2.345,2.3276,2.3188,2.3101,2.3101,2.3101,2.3144,2.3091,2.2872,2.2643,2.2236,2.1917,2.1418,2.1006,2.0466,2.0141,2.0051,1.933,1.8603,1.8419,1.8195,1.7606,1.7466,1.7333,1.7239,1.7099,1.6965,1.6831,1.6697,1.6508,1.6218,1.5879,1.5825,1.5879,3.6417,3.6417,3.6417,3.6417,3.6417,3.6417,3.6417,3.6417,3.6405,3.6279,3.5968,3.5608,3.4893,3.4022,3.3608,3.337,3.3187,3.3124,3.3124,3.3124,3.3124,3.3124,3.3124,3.3124,3.3124,3.3124,3.3124,3.3124,3.3124,3.3124,3.3124,3.3124,3.3124,3.3124,3.3124,3.3124,3.3124,3.3124,3.3124,3.3124,3.3124,3.3149,3.3232,3.3533,3.3784,3.4211,3.4726,3.4969,3.5454,3.5893,3.6006,3.6094,3.6355,3.6405,3.6405,3.638,3.6157,3.5881,3.5495,3.5052,3.4688,3.4399,3.4135,3.4173,3.4387,3.4587,3.4718,3.4655,3.4211,3.396,3.3746,3.2343,3.1314,3.014,2.8714,2.7523,2.6411,2.5549,2.4999,2.4509,2.4044,2.3898,2.37,2.3616,2.3553,2.345,2.345,2.3493,2.345,2.3319,2.3135,2.296,2.2687,2.2413,2.2006,2.1596,2.1239,2.0962,2.0232,1.9596,1.9376,1.901,1.8419,1.7878,1.7692,1.7559,1.7419,1.7192,1.7012,1.6878,1.6744,1.6454,1.6211,1.6028,1.6028,3.6417,3.6417,3.6417,3.6417,3.6417,3.6417,3.6417,3.6417,3.6417,3.6405,3.6267,3.578,3.4956,3.4236,3.3922,3.3558,3.3136,3.3124,3.3124,3.3124,3.3124,3.3124,3.3124,3.3124,3.3124,3.3124,3.3124,3.3124,3.3124,3.3124,3.3124,3.3124,3.3124,3.3124,3.3124,3.3124,3.3124,3.3124,3.3124,3.3124,3.3149,3.3257,3.352,3.3847,3.4211,3.4643,3.5357,3.5717,3.6006,3.6254,3.6355,3.6367,3.6499,3.6499,3.6593,3.6593,3.6564,3.6324,3.5903,3.5483,3.5228,3.4919,3.4843,3.4818,3.4939,3.4989,3.514,3.5278,3.4705,3.4399,3.3909,3.3063,3.2157,3.116,3.0061,2.8871,2.775,2.6825,2.613,2.5742,2.522,2.4553,2.4412,2.4257,2.4068,2.3827,2.3797,2.3797,2.3754,2.3667,2.3537,2.3363,2.3266,2.3091,2.2906,2.2589,2.228,2.1828,2.1096,2.0638,2.0466,1.9923,1.9285,1.8742,1.8326,1.8465,1.8696,1.7971,1.7239,1.7019,1.6831,1.6784,1.6588,1.6414,1.6224,3.6417,3.6417,3.6417,3.6417,3.6417,3.6417,3.6417,3.6417,3.6417,3.6417,3.6342,3.578,3.5157,3.4638,3.4073,3.3596,3.3124,3.3124,3.3124,3.3124,3.3124,3.3111,3.3124,3.3124,3.3124,3.3124,3.3124,3.3124,3.3124,3.3124,3.3124,3.3124,3.3124,3.3124,3.3124,3.3124,3.3124,3.3149,3.3156,3.3181,3.3319,3.3558,3.3922,3.4173,3.4806,3.5433,3.552,3.6015,3.6314,3.6452,3.6499,3.6546,3.6687,3.6675,3.6781,3.6875,3.6934,3.6641,3.6213,3.5869,3.5316,3.5031,3.5107,3.5433,3.5491,3.5956,3.6204,3.6006,3.5416,3.4956,3.4449,3.369,3.2789,3.1978,3.1075,3.02,2.9075,2.8062,2.7433,2.6987,2.6483,2.5964,2.5326,2.5222,2.4477,2.4204,2.4024,2.4024,2.3927,2.3894,2.3797,2.3711,2.3711,2.3667,2.3657,2.3353,2.2994,2.2687,2.2138,2.1774,2.1552,2.0926,2.015,1.9914,1.9642,1.9824,1.9733,1.8872,1.8056,1.734,1.6972,1.6925,1.6784,1.6548,1.6366,3.6417,3.6417,3.6417,3.6417,3.6417,3.6417,3.6417,3.6417,3.6417,3.6417,3.6367,3.5793,3.5194,3.4643,3.4148,3.3596,3.3174,3.3124,3.3124,3.3124,3.3124,3.3154,3.3197,3.3197,3.3167,3.324,3.3197,3.3124,3.3124,3.3167,3.3124,3.3124,3.3124,3.3124,3.3124,3.3162,3.3162,3.3219,3.3407,3.3571,3.3696,3.4123,3.4562,3.4944,3.5322,3.5869,3.6112,3.6548,3.6649,3.6628,3.6722,3.6815,3.6922,3.6922,3.7015,3.7095,3.7142,3.6834,3.6539,3.6361,3.629,3.6042,3.6024,3.6078,3.6028,3.6304,3.6392,3.6229,3.5868,3.5361,3.47,3.4022,3.3326,3.2707,3.2003,3.1234,3.0458,2.9452,2.8786,2.8428,2.7997,2.749,2.6868,2.6302,2.5355,2.4547,2.4366,2.4239,2.4153,2.411,2.4067,2.398,2.398,2.3927,2.3884,2.3754,2.3634,2.3363,2.3047,2.2731,2.2369,2.1739,2.1096,2.0962,2.0728,2.0548,2.0187,1.9596,1.8964,1.8295,1.7613,1.7106,1.6925,1.6831,1.6643,3.6417,3.6417,3.6417,3.6417,3.6417,3.6417,3.6417,3.6417,3.6417,3.6417,3.6355,3.578,3.5194,3.4655,3.4148,3.3596,3.3237,3.3167,3.321,3.324,3.327,3.3343,3.3386,3.3398,3.3398,3.3428,3.3398,3.3326,3.3326,3.327,3.3313,3.3313,3.3185,3.3197,3.3119,3.3257,3.3363,3.3458,3.3822,3.4123,3.4211,3.4688,3.5097,3.5584,3.5945,3.6316,3.6548,3.6849,3.6956,3.6909,3.6956,3.7121,3.7214,3.7261,3.7261,3.7256,3.7101,3.6843,3.6702,3.6616,3.6895,3.665,3.6633,3.6602,3.6606,3.6593,3.6687,3.659,3.6088,3.5499,3.4944,3.4338,3.3714,3.3066,3.2754,3.2072,3.1669,3.0872,3.034,2.9855,2.9378,2.8807,2.7972,2.7162,2.5775,2.491,2.4485,2.4368,2.4368,2.4325,2.4282,2.4239,2.4196,2.411,2.4013,2.397,2.3894,2.3807,2.3537,2.3363,2.296,2.2413,2.2094,2.205,2.173,2.123,2.0953,2.0818,2.0141,1.9376,1.8742,1.8203,1.7746,1.7652,1.72,3.6417,3.6417,3.6417,3.6417,3.6417,3.6417,3.6417,3.6417,3.6417,3.6417,3.6329,3.5755,3.5169,3.4663,3.413,3.3595,3.3298,3.3313,3.3398,3.3441,3.3513,3.3628,3.367,3.3683,3.3598,3.367,3.3628,3.3598,3.3641,3.3586,3.3598,3.3556,3.3428,3.3321,3.3174,3.3677,3.3872,3.3972,3.4437,3.4695,3.4916,3.5332,3.5739,3.6041,3.6459,3.682,3.693,3.7168,3.7214,3.7155,3.7214,3.732,3.7459,3.7505,3.7572,3.7632,3.7234,3.7,3.6934,3.6574,3.661,3.6929,3.6841,3.6968,3.7015,3.7062,3.7015,3.6883,3.6458,3.5954,3.536,3.4666,3.4051,3.3477,3.3109,3.2825,3.2394,3.2099,3.1484,3.1214,3.0629,2.9928,2.9053,2.7949,2.6325,2.5295,2.4741,2.4507,2.4507,2.4507,2.4411,2.4411,2.4335,2.4325,2.4239,2.4196,2.4153,2.411,2.398,2.3764,2.359,2.3222,2.3047,2.3003,2.2775,2.2359,2.2271,2.2227,2.1463,2.0737,2.0104,1.9559,1.9018,1.8565,1.8195,3.6417,3.6417,3.6417,3.6417,3.6417,3.6417,3.6417,3.6417,3.6417,3.6417,3.6216,3.5441,3.4893,3.4487,3.3941,3.3472,3.3376,3.3526,3.3598,3.3598,3.3713,3.381,3.3894,3.3839,3.3797,3.3852,3.3839,3.3713,3.367,3.3819,3.3738,3.367,3.3743,3.3614,3.3877,3.4388,3.4939,3.4863,3.5346,3.578,3.5831,3.623,3.6569,3.6649,3.7019,3.7155,3.7214,3.7413,3.7505,3.7413,3.7459,3.7611,3.7749,3.7749,3.7671,3.7469,3.7037,3.7024,3.6867,3.6584,3.6385,3.6716,3.7055,3.7142,3.7108,3.7108,3.7108,3.7014,3.6623,3.6039,3.5392,3.4829,3.4237,3.3563,3.3207,3.3147,3.2895,3.2766,3.2488,3.2451,3.2127,3.1181,3.0265,2.9031,2.7415,2.6107,2.5466,2.4742,2.454,2.4497,2.4454,2.4464,2.4464,2.4464,2.4475,2.4481,2.4344,2.4196,2.411,2.398,2.3851,2.3721,2.3624,2.344,2.3493,2.3493,2.3135,2.2818,2.2643,2.2138,2.132,2.0602,1.9923,1.9695,1.9604,3.6417,3.6417,3.6417,3.6417,3.6417,3.6417,3.6417,3.6417,3.6417,3.6417,3.6179,3.5319,3.4861,3.4578,3.3994,3.3526,3.3526,3.3725,3.3852,3.3852,3.3937,3.4063,3.4105,3.4063,3.4105,3.4118,3.4102,3.4043,3.437,3.4301,3.4272,3.4242,3.4191,3.4361,3.4652,3.506,3.5475,3.5583,3.6146,3.6511,3.6601,3.6865,3.7083,3.7235,3.7353,3.7459,3.7505,3.7644,3.7841,3.7749,3.7808,3.7946,3.7979,3.8128,3.7938,3.7526,3.7179,3.7083,3.679,3.7319,3.7284,3.736,3.7371,3.7361,3.7353,3.7459,3.7413,3.7206,3.669,3.6154,3.5639,3.5071,3.4268,3.3611,3.3513,3.3398,3.3283,3.3142,3.3099,3.3142,3.3018,3.2167,3.1284,3.001,2.8592,2.7372,2.62,2.5487,2.4816,2.4783,2.4823,2.4885,2.4914,2.4974,2.49,2.4828,2.4638,2.4356,2.427,2.4257,2.4067,2.3937,2.3884,2.3841,2.3754,2.3624,2.3503,2.3232,2.296,2.2687,2.2192,2.1507,2.0827,2.0692,2.0692,3.6417,3.6417,3.6417,3.6405,3.6405,3.6465,3.6452,3.6417,3.6465,3.6465,3.6364,3.5535,3.5161,3.4978,3.4216,3.3841,3.3896,3.4095,3.4115,3.4118,3.4189,3.4314,3.4356,3.4314,3.4405,3.4434,3.4483,3.4712,3.523,3.5184,3.5085,3.4951,3.4916,3.5029,3.519,3.5441,3.5814,3.6353,3.6656,3.6908,3.6959,3.6893,3.7005,3.711,3.7292,3.7449,3.7606,3.7789,3.7965,3.7979,3.8024,3.807,3.8258,3.8805,3.8549,3.8184,3.7725,3.7294,3.7424,3.8187,3.8503,3.8491,3.8314,3.8082,3.8057,3.8167,3.8291,3.7766,3.7151,3.6559,3.5987,3.5102,3.4192,3.3937,3.3797,3.3641,3.3471,3.3386,3.3386,3.3343,3.327,3.2634,3.1834,3.0646,2.9881,2.8771,2.7641,2.6732,2.6053,2.5388,2.546,2.5616,2.5578,2.5568,2.5451,2.5308,2.4993,2.4741,2.4607,2.4553,2.4385,2.4217,2.4153,2.4057,2.3884,2.3754,2.3721,2.3503,2.3188,2.2872,2.2687,2.2413,2.1774,2.1695,2.1596,3.6417,3.6417,3.6417,3.6499,3.6628,3.6815,3.6794,3.6628,3.6828,3.6875,3.6845,3.5761,3.55,3.5859,3.4984,3.462,3.4671,3.4747,3.4585,3.4536,3.4552,3.4463,3.445,3.4528,3.4685,3.492,3.5116,3.5312,3.5757,3.5874,3.5626,3.5253,3.5296,3.5353,3.5505,3.5721,3.6328,3.6813,3.7046,3.7007,3.6884,3.6689,3.6675,3.6739,3.7084,3.7297,3.7466,3.7794,3.8113,3.872,3.8778,3.9002,3.9883,4.0059,3.9846,3.9195,3.8547,3.8017,3.8713,3.9228,3.9606,3.99,3.986,3.939,3.9268,3.9237,3.937,3.8681,3.7628,3.6907,3.6138,3.5224,3.4455,3.4105,3.3979,3.3894,3.3725,3.3641,3.3641,3.3556,3.3428,3.331,3.2451,3.195,3.1132,3.012,2.9201,2.8328,2.7502,2.6909,2.6497,2.6669,2.6596,2.6666,2.609,2.5823,2.5453,2.5137,2.5034,2.4879,2.4691,2.4522,2.442,2.4282,2.411,2.4067,2.4024,2.3764,2.3373,2.3285,2.3091,2.296,2.2775,2.2555,2.2467,3.6417,3.6405,3.6499,3.6628,3.6862,3.7155,3.7155,3.7062,3.7062,3.7019,3.6673,3.593,3.5769,3.5903,3.5357,3.515,3.5384,3.55,3.54,3.5243,3.5012,3.5142,3.5103,3.5051,3.5325,3.5534,3.5704,3.59,3.6319,3.6436,3.624,3.6031,3.5665,3.5495,3.5648,3.5944,3.6491,3.6903,3.7085,3.7006,3.675,3.6454,3.6376,3.6558,3.6985,3.7196,3.7568,3.801,3.8583,3.9239,3.9337,3.9735,4.0434,4.0532,4.0646,4.008,3.9762,3.9643,4.011,4.0593,4.0916,4.1151,4.1364,4.1155,4.0603,4.0389,4.0173,3.9619,3.8339,3.7196,3.6313,3.5437,3.4832,3.4243,3.416,3.4118,3.3992,3.3894,3.381,3.3725,3.3725,3.3713,3.3398,3.2998,3.2644,3.193,3.136,3.0714,2.976,2.887,2.8371,2.8154,2.7999,2.7849,2.7224,2.6647,2.6359,2.6004,2.5523,2.5347,2.5057,2.4848,2.4763,2.4533,2.4292,2.4301,2.4349,2.3924,2.359,2.3523,2.3446,2.3222,2.3047,2.2916,2.2916,3.6452,3.6512,3.6675,3.6922,3.7168,3.7413,3.7505,3.7505,3.7307,3.6944,3.6489,3.6037,3.5926,3.6165,3.5731,3.5765,3.6,3.6188,3.6057,3.6083,3.5861,3.5835,3.5874,3.607,3.5966,3.607,3.6266,3.6488,3.6964,3.7248,3.7329,3.7093,3.6505,3.6375,3.6674,3.687,3.7354,3.7687,3.7648,3.744,3.6791,3.652,3.6442,3.7017,3.738,3.7687,3.8228,3.8642,3.8933,3.9368,3.9718,3.9971,4.0618,4.0914,4.1042,4.0998,4.0793,4.0746,4.0992,4.1396,4.1695,4.2063,4.2617,4.2115,4.1413,4.1432,4.1267,4.052,3.9355,3.8019,3.7037,3.5808,3.4944,3.4481,3.4285,3.4243,3.416,3.4105,3.4063,3.4021,3.4008,3.4008,3.3914,3.3441,3.3319,3.3206,3.2949,3.2449,3.1878,3.086,3.0205,2.9688,2.9205,2.8925,2.8576,2.8027,2.7504,2.6995,2.6475,2.6086,2.6034,2.5614,2.5086,2.499,2.4895,2.4664,2.4556,2.4243,2.4072,2.3881,2.373,2.3436,2.3319,2.3242,2.3144,3.6722,3.6968,3.7214,3.7366,3.7459,3.7703,3.7808,3.7808,3.7749,3.7625,3.7326,3.659,3.6504,3.6921,3.6235,3.6201,3.6567,3.6711,3.6488,3.6305,3.6214,3.6371,3.6188,3.6345,3.6436,3.6671,3.6881,3.7172,3.7701,3.8184,3.8455,3.8192,3.7941,3.8211,3.8047,3.8252,3.8567,3.8673,3.8564,3.7814,3.677,3.6182,3.5981,3.6579,3.6974,3.7792,3.8255,3.8552,3.9126,3.9705,3.9865,4.0626,4.1863,4.1922,4.1982,4.1986,4.164,4.1483,4.1442,4.1665,4.1736,4.1686,4.1799,4.1709,4.1778,4.2322,4.2181,4.1317,4.0256,3.8893,3.7634,3.6307,3.5155,3.4799,3.4439,3.4397,3.4356,3.4285,3.4285,3.4272,3.4272,3.4204,3.4137,3.4079,3.3985,3.3791,3.3597,3.3326,3.328,3.261,3.1871,3.1268,3.0332,2.9907,2.9659,2.9432,2.8925,2.8421,2.794,2.7487,2.7059,2.6453,2.5939,2.5737,2.5551,2.531,2.5067,2.4904,2.47,2.4486,2.4132,2.3857,2.3606,2.3456,2.3295,3.664,3.6828,3.7168,3.7459,3.7703,3.7854,3.79,3.79,3.79,3.79,3.7782,3.7011,3.6776,3.726,3.6619,3.6428,3.6834,3.7207,3.6985,3.6698,3.6857,3.6946,3.6894,3.6949,3.7103,3.7409,3.7846,3.8256,3.8612,3.9285,3.9607,3.9417,3.9746,3.9674,3.9391,3.9619,3.9802,3.9634,3.9618,3.8658,3.7263,3.6935,3.7002,3.7405,3.7689,3.8335,3.8929,3.9357,4.0022,4.0886,4.1376,4.1799,4.2599,4.2738,4.2772,4.2722,4.2482,4.2117,4.1916,4.1752,4.1647,4.1527,4.1422,4.1488,4.1488,4.1906,4.1911,4.1101,4.0054,3.8723,3.8246,3.7121,3.6046,3.5386,3.5114,3.4991,3.4634,3.4356,3.4356,3.4356,3.4356,3.4356,3.4392,3.4676,3.4686,3.5072,3.477,3.4538,3.4409,3.3965,3.3348,3.2736,3.1745,3.1057,3.0763,3.0582,3.0334,2.9837,2.942,2.8891,2.8322,2.7451,2.6825,2.6719,2.6388,2.5802,2.5599,2.5558,2.5382,2.5141,2.4692,2.4291,2.4038,2.3797,2.363,3.6546,3.664,3.7074,3.7459,3.79,3.807,3.8103,3.8103,3.8239,3.833,3.8368,3.7851,3.7105,3.6744,3.6744,3.6612,3.6845,3.759,3.7495,3.7685,3.8076,3.8292,3.8385,3.8334,3.8429,3.8626,3.904,3.9203,3.9431,4.0232,4.0718,4.0647,4.0477,4.0219,4.0136,4.0192,4.0512,4.0537,4.0363,3.9815,3.9074,3.8484,3.8485,3.8587,3.892,3.9312,4.0129,4.0689,4.1257,4.178,4.2404,4.2751,4.3015,4.3139,4.3163,4.3088,4.2992,4.2632,4.2323,4.2083,4.182,4.1587,4.1482,4.1437,4.1437,4.1429,4.1474,4.085,3.98,3.914,3.8669,3.7996,3.6934,3.5976,3.5736,3.5454,3.4991,3.4522,3.4439,3.4397,3.4397,3.4397,3.4633,3.4972,3.5413,3.5883,3.6004,3.589,3.5551,3.4775,3.4105,3.3662,3.2988,3.2401,3.1965,3.1721,3.1585,3.1252,3.0764,3.0237,2.962,2.8757,2.8151,2.7842,2.7453,2.6921,2.6438,2.6285,2.6051,2.5863,2.575,2.5386,2.4622,2.4358,2.4058,3.7214,3.7611,3.7703,3.7795,3.8024,3.8626,3.8957,3.9091,3.9752,4.0087,3.9929,3.986,3.9243,3.7863,3.7491,3.7423,3.7771,3.8297,3.8634,3.8867,3.9349,3.9798,3.9883,3.9546,3.997,4.0087,4.013,4.0303,4.0461,4.1212,4.1728,4.1684,4.2438,4.2438,4.2478,4.2423,4.2214,4.2056,4.1997,4.1817,4.1316,4.046,3.9107,3.9448,4.0244,4.0702,4.119,4.119,4.1339,4.1669,4.2276,4.2689,4.2998,4.3277,4.3356,4.3283,4.3201,4.2809,4.2439,4.219,4.1881,4.1588,4.1498,4.1498,4.146,4.146,4.1257,4.0793,3.9958,3.9597,3.9098,3.853,3.7606,3.6766,3.6281,3.5856,3.5426,3.4881,3.4522,3.4481,3.4397,3.445,3.458,3.5025,3.56,3.6018,3.6301,3.6186,3.6007,3.5418,3.483,3.4379,3.3968,3.3768,3.3318,3.3018,3.2821,3.2531,3.2084,3.1388,3.0723,3.0145,2.9613,2.9295,2.88,2.8294,2.7796,2.7299,2.6992,2.6887,2.6945,2.6625,2.5742,2.522,2.5164]}]]